[[{"header":{"parameterUnit":"m.s-1","parameterCategory":1,"la1":31.0,"la2":29.5877,"lo1":-88.7671,"lo2":-86.6584,"dy":0.0162,"dx":0.0185,"nx":115,"ny":88,"refTime":"2024-04-26T00:00:00:Z","depth":0,"parameterNumber":2,"parameterNumberName":"U-component_of_WINDS"},"data":[0.0,0.0,0.0,0.0,0.0,0.0,0.0,0.0,0.0,0.0,0.0,0.0,0.0,0.0,0.0,0.0,0.0,0.0,0.0,0.0,0.0,0.0,0.0,0.0,0.0,0.0,0.0,0.0,0.0,0.0,0.0,0.0,0.0,0.0,0.0,0.0,0.0,0.0,0.0,0.0,0.0,0.0,0.0,0.0,0.0,0.0,0.0,0.0,0.0,0.0,0.0,0.0,0.0,0.0,0.0,0.0,0.0,0.0,0.0,0.0,0.0,0.0,0.0,0.0,0.0,0.0,0.0,0.0,0.0,0.0,0.0,0.0,0.0,0.0,0.0,0.0,0.0,0.0,0.0,0.0,0.0,0.0,0.0,0.0,0.0,0.0,0.0,0.0,0.0,0.0,0.0,0.0,0.0,0.0,0.0,0.0,0.0,0.0,0.0,0.0,0.0,0.0,0.0,0.0,0.0,0.0,0.0,0.0,0.0,0.0,0.0,0.0,0.0,0.0,0.0,0.0,0.0,0.0,0.0,0.0,0.0,0.0,0.0,0.0,0.0,0.0,0.0,0.0,0.0,0.0,0.0,0.0,0.0,0.0,0.0,0.0,0.0,0.0,0.0,0.0,0.0,0.0,0.0,0.0,0.0,0.0,0.0,0.0,0.0,0.0,0.0,0.0,0.0,0.0,0.0,0.0,0.0,0.0,0.0,0.0,0.0,0.0,0.0,0.0,0.0,0.0,0.0,0.0,0.0,0.0,0.0,0.0,0.0,0.0,0.0,0.0,0.0,0.0,0.0,0.0,0.0,0.0,0.0,0.0,0.0,0.0,0.0,0.0,0.0,0.0,0.0,0.0,0.0,0.0,0.0,0.0,0.0,0.0,0.0,0.0,0.0,0.0,0.0,0.0,0.0,0.0,0.0,0.0,0.0,0.0,0.0,0.0,0.0,0.0,0.0,0.0,0.0,0.0,0.0,0.0,0.0,0.0,0.0,0.0,0.0,0.0,0.0,0.0,0.0,0.0,0.0,0.0,0.0,0.0,0.0,0.0,0.0,0.0,0.0,0.0,0.0,0.0,0.0,0.0,0.0,0.0,0.0,0.0,0.0,0.0,0.0,0.0,0.0,0.0,0.0,0.0,0.0,0.0,0.0,0.0,0.0,0.0,0.0,0.0,0.0,0.0,0.0,0.0,0.0,0.0,0.0,0.0,0.0,0.0,0.0,0.0,0.0,0.0,0.0,0.0,0.0,0.0,0.0,0.0,0.0,0.0,0.0,0.0,0.0,0.0,0.0,0.0,0.0,0.0,0.0,0.0,0.0,0.0,0.0,0.0,0.0,0.0,0.0,0.0,0.0,0.0,0.0,0.0,0.0,0.0,0.0,0.0,0.0,0.0,0.0,0.0,0.0,0.0,0.0,0.0,0.0,0.0,0.0,0.0,0.0,0.0,0.0,0.0,0.0,0.0,0.0,0.0,0.0,0.0,0.0,0.0,0.0,0.0,0.0,0.0,0.0,0.0,0.0,0.0,0.0,0.0,0.0,0.0,0.0,0.0,0.0,0.0,0.0,0.0,0.0,0.0,0.0,0.0,0.0,0.0,0.0,0.0,0.0,0.0,0.0,0.0,0.0,0.0,0.0,0.0,0.0,0.0,0.0,0.0,0.0,0.0,0.0,0.0,0.0,0.0,0.0,0.0,0.0,0.0,0.0,0.0,0.0,0.0,0.0,0.0,0.0,0.0,0.0,0.0,0.0,0.0,0.0,0.0,0.0,0.0,0.0,0.0,0.0,0.0,0.0,0.0,0.0,0.0,0.0,0.0,0.0,0.0,0.0,0.0,0.0,0.0,0.0,0.0,0.0,0.0,0.0,0.0,0.0,0.0,0.0,0.0,0.0,0.0,0.0,0.0,0.0,0.0,0.0,0.0,0.0,0.0,0.0,0.0,0.0,0.0,0.0,0.0,0.0,0.0,0.0,0.0,0.0,0.0,0.0,0.0,0.0,0.0,0.0,0.0,0.0,0.0,0.0,0.0,0.0,0.0,0.0,0.0,0.0,0.0,0.0,0.0,0.0,0.0,0.0,0.0,0.0,0.0,0.0,0.0,0.0,0.0,0.0,0.0,0.0,0.0,0.0,0.0,0.0,0.0,0.0,0.0,0.0,0.0,0.0,0.0,0.0,0.0,0.0,0.0,0.0,0.0,0.0,0.0,0.0,0.0,0.0,0.0,0.0,0.0,0.0,0.0,0.0,0.0,0.0,0.0,0.0,0.0,0.0,0.0,0.0,0.0,0.0,0.0,0.0,0.0,0.0,0.0,0.0,0.0,0.0,0.0,0.0,0.0,0.0,0.0,0.0,0.0,0.0,0.0,0.0,0.0,0.0,0.0,0.0,0.0,0.0,0.0,0.0,0.0,0.0,0.0,0.0,0.0,0.0,0.0,0.0,0.0,0.0,0.0,0.0,0.0,0.0,0.0,0.0,0.0,0.0,0.0,0.0,0.0,0.0,0.0,0.0,0.0,0.0,0.0,0.0,0.0,0.0,0.0,0.0,0.0,0.0,0.0,0.0,0.0,0.0,0.0,0.0,0.0,0.0,0.0,0.0,0.0,0.0,0.0,0.0,0.0,0.0,0.0,0.0,0.0,0.0,0.0,0.0,0.0,0.0,0.0,0.0,0.0,0.0,0.0,0.0,0.0,0.0,0.0,0.0,0.0,0.0,0.0,0.0,0.0,0.0,0.0,0.0,0.0,0.0,0.0,0.0,0.0,0.0,0.0,0.0,0.0,0.0,0.0,0.0,0.0,0.0,0.0,0.0,0.0,0.0,0.0,0.0,0.0,0.0,0.0,0.0,0.0,0.0,0.0,0.0,0.0,0.0,0.0,0.0,0.0,0.0,0.0,0.0,0.0,0.0,0.0,0.0,0.0,0.0,0.0,0.0,0.0,0.0,0.0,0.0,0.0,0.0,0.0,0.0,0.0,0.0,0.0,0.0,0.0,0.0,0.0,0.0,0.0,0.0,0.0,0.0,0.0,0.0,0.0,0.0,0.0,0.0,0.0,0.0,0.0,0.0,0.0,0.0,0.0,0.0,0.0,0.0,0.0,0.0,0.0,0.0,0.0,0.0,0.0,0.0,0.0,0.0,0.0,0.0,0.0,0.0,0.0,0.0,0.0,0.0,0.0,0.0,0.0,0.0,0.0,0.0,0.0,0.0,0.0,0.0,0.0,0.0,0.0,0.0,0.0,0.0,0.0,0.0,0.0,0.0,0.0,0.0,0.0,0.0,0.0,0.0,0.0,0.0,0.0,0.0,0.0,0.0,0.0,0.0,0.0,0.0,0.0,0.0,0.0,0.0,0.0,0.0,0.0,0.0,0.0,0.0,0.0,0.0,0.0,0.0,0.0,0.0,0.0,0.0,0.0,0.0,0.0,0.0,0.0,0.0,0.0,0.0,0.0,0.0,0.0,0.0,0.0,0.0,0.0,0.0,0.0,0.0,0.0,0.0,0.0,0.0,0.0,0.0,0.0,0.0,0.0,0.0,0.0,0.0,0.0,0.0,0.0,0.0,0.0,0.0,0.0,0.0,0.0,0.0,0.0,0.0,0.0,0.0,0.0,0.0,0.0,0.0,0.0,0.0,0.0,0.0,0.0,0.0,0.0,0.0,0.0,0.0,0.0,0.0,0.0,0.0,0.0,0.0,0.0,0.0,0.0,0.0,0.0,0.0,0.0,0.0,0.0,0.0,0.0,0.0,0.0,0.0,0.0,0.0,0.0,0.0,0.0,0.0,0.0,0.0,0.0,0.0,0.0,0.0,0.0,0.0,0.0,0.0,0.0,0.0,0.0,0.0,0.0,0.0,0.0,0.0,0.0,0.0,0.0,0.0,0.0,0.0,0.0,0.0,0.0,0.0,0.0,0.0,0.0,0.0,0.0,0.0,0.0,0.0,0.0,0.0,0.0,0.0,0.0,0.0,0.0,0.0,0.0,0.0,0.0,0.0,0.0,0.0,0.0,0.0,0.0,0.0,0.0,0.0,0.0,0.0,0.0,0.0,0.0,0.0,0.0,0.0,0.0,0.0,0.0,0.0,0.0,0.0,0.0,0.0,0.0,0.0,0.0,0.0,0.0,0.0,0.0,0.0,0.0,0.0,0.0,0.0,0.0,0.0,0.0,0.0,0.0,0.0,0.0,0.0,0.0,0.0,0.0,0.0,0.0,0.0,0.0,0.0,0.0,0.0,0.0,0.0,0.0,0.0,0.0,0.0,0.0,0.0,0.0,-0.6857,0.0,0.0,0.0,0.0,0.0,0.0,0.0,0.0,0.0,0.0,0.0,0.0,0.0,0.0,0.0,0.0,0.0,0.0,0.0,0.0,0.0,0.0,0.0,0.0,0.0,0.0,0.0,0.0,0.0,0.0,0.0,0.0,0.0,0.0,0.0,0.0,0.0,0.0,0.0,0.0,0.0,0.0,0.0,0.0,0.0,0.0,0.0,0.0,0.0,0.0,0.0,0.0,0.0,0.0,0.0,0.0,0.0,0.0,0.0,0.0,0.0,0.0,0.0,0.0,0.0,0.0,0.0,0.0,0.0,0.0,0.0,0.0,0.0,0.0,0.0,0.0,0.0,0.0,0.0,0.0,0.0,0.0,0.0,0.0,0.0,0.0,0.0,0.0,0.0,0.0,0.0,0.0,0.0,0.0,0.0,0.0,0.0,0.0,0.0,0.0,0.0,0.0,0.0,0.0,0.0,0.0,0.0,0.0,0.0,0.0,-0.6929,-0.669,-0.702,-0.7047,-0.6718,0.0,0.0,0.0,0.0,0.0,0.0,0.0,0.0,0.0,0.0,0.0,0.0,0.0,0.0,0.0,0.0,0.0,0.0,0.0,0.0,0.0,0.0,0.0,0.0,0.0,0.0,0.0,0.0,0.0,0.0,0.0,0.0,0.0,0.0,0.0,0.0,0.0,0.0,0.0,0.0,0.0,0.0,0.0,0.0,0.0,0.0,0.0,0.0,0.0,0.0,0.0,0.0,0.0,0.0,0.0,0.0,0.0,0.0,0.0,0.0,0.0,0.0,0.0,0.0,0.0,0.0,0.0,0.0,0.0,0.0,0.0,0.0,0.0,0.0,0.0,0.0,0.0,0.0,0.0,0.0,0.0,0.0,0.0,0.0,0.0,0.0,0.0,0.0,0.0,0.0,0.0,0.0,0.0,0.0,0.0,0.0,0.0,0.0,0.0,0.0,0.0,0.0,0.0,0.0,0.0,0.0,0.0,0.0,0.0,0.0,0.0,0.0,-0.7712,-0.7625,-0.7282,0.0,0.0,0.0,0.0,0.0,0.0,0.0,0.0,0.0,0.0,0.0,0.0,0.0,0.0,0.0,0.0,0.0,0.0,0.0,0.0,0.0,0.0,0.0,0.0,0.0,0.0,0.0,0.0,0.0,0.0,0.0,0.0,0.0,0.0,0.0,0.0,0.0,0.0,0.0,0.0,0.0,0.0,0.0,0.0,0.0,0.0,0.0,0.0,0.0,0.0,0.0,0.0,0.0,0.0,0.0,0.0,0.0,0.0,0.0,0.0,0.0,0.0,0.0,0.0,0.0,0.0,0.0,0.0,0.0,0.0,0.0,0.0,0.0,0.0,0.0,0.0,0.0,0.0,0.0,0.0,0.0,0.0,0.0,0.0,0.0,0.0,0.0,0.0,0.0,0.0,0.0,0.0,0.0,0.0,0.0,0.0,0.0,0.0,0.0,0.0,0.0,0.0,0.0,0.0,0.0,0.0,0.0,0.0,0.0,0.0,-0.8114,-0.9231,-0.9465,0.0,-0.9274,0.0,0.0,0.0,0.0,0.0,0.0,0.0,0.0,0.0,0.0,0.0,0.0,0.0,0.0,0.0,0.0,0.0,0.0,0.0,0.0,0.0,0.0,0.0,0.0,0.0,0.0,0.0,0.0,0.0,0.0,0.0,0.0,0.0,0.0,0.0,0.0,0.0,0.0,0.0,0.0,0.0,0.0,0.0,0.0,0.0,0.0,0.0,0.0,0.0,0.0,0.0,0.0,0.0,0.0,0.0,0.0,0.0,0.0,0.0,0.0,0.0,0.0,0.0,0.0,0.0,0.0,0.0,0.0,0.0,0.0,0.0,0.0,0.0,0.0,0.0,0.0,0.0,0.0,0.0,0.0,0.0,0.0,0.0,0.0,0.0,0.0,0.0,0.0,0.0,0.0,0.0,0.0,0.0,0.0,0.0,0.0,0.0,0.0,0.0,0.0,0.0,0.0,0.0,0.0,0.0,0.0,0.0,0.0,0.0,0.0,-0.8751,-0.9874,-0.9775,-0.9262,0.0,0.0,0.0,0.0,0.0,0.0,0.0,0.0,0.0,0.0,0.0,0.0,0.0,0.0,0.0,0.0,0.0,0.0,0.0,0.0,0.0,0.0,0.0,0.0,0.0,0.0,0.0,0.0,0.0,0.0,0.0,0.0,0.0,0.0,0.0,0.0,0.0,0.0,0.0,0.0,0.0,0.0,0.0,0.0,0.0,0.0,0.0,0.0,0.0,0.0,0.0,0.0,0.0,0.0,0.0,0.0,0.0,0.0,0.0,0.0,0.0,0.0,0.0,0.0,0.0,0.0,0.0,0.0,0.0,0.0,0.0,0.0,0.0,0.0,0.0,0.0,0.0,0.0,0.0,0.0,0.0,0.0,0.0,0.0,0.0,0.0,0.0,0.0,0.0,0.0,0.0,0.0,0.0,0.0,0.0,0.0,0.0,0.0,0.0,0.0,0.0,0.0,0.0,0.0,0.0,0.0,0.0,0.0,0.0,0.0,-0.9366,-0.9756,-1.0786,-0.9988,-0.9126,-0.8317,0.0,0.0,0.0,0.0,0.0,0.0,0.0,0.0,0.0,0.0,0.0,0.0,0.0,0.0,0.0,0.0,0.0,0.0,0.0,0.0,0.0,0.0,0.0,0.0,0.0,0.0,0.0,0.0,0.0,0.0,0.0,0.0,0.0,0.0,0.0,0.0,0.0,0.0,0.0,0.0,0.0,0.0,0.0,0.0,0.0,0.0,0.0,0.0,0.0,0.0,0.0,0.0,0.0,0.0,0.0,0.0,0.0,0.0,0.0,0.0,0.0,0.0,0.0,0.0,0.0,0.0,0.0,0.0,0.0,0.0,0.0,0.0,0.0,0.0,0.0,0.0,0.0,0.0,0.0,0.0,0.0,0.0,0.0,0.0,0.0,0.0,0.0,0.0,0.0,0.0,0.0,0.0,0.0,0.0,0.0,0.0,0.0,0.0,0.0,0.0,0.0,0.0,0.0,0.0,0.0,0.0,0.0,0.0,-1.2325,-1.1337,-1.1378,-1.2517,-1.045,-0.9549,0.0,0.0,0.0,0.0,0.0,0.0,0.0,0.0,0.0,0.0,0.0,0.0,0.0,0.0,0.0,0.0,0.0,0.0,0.0,0.0,0.0,0.0,0.0,0.0,0.0,0.0,0.0,0.0,0.0,0.0,0.0,0.0,0.0,0.0,0.0,0.0,0.0,0.0,0.0,0.0,0.0,0.0,0.0,0.0,0.0,0.0,0.0,0.0,0.0,0.0,0.0,0.0,0.0,0.0,0.0,0.0,0.0,0.0,0.0,0.0,0.0,0.0,0.0,0.0,0.0,0.0,0.0,0.0,0.0,0.0,0.0,0.0,0.0,0.0,0.0,0.0,0.0,0.0,0.0,0.0,0.0,0.0,0.0,0.0,0.0,0.0,0.0,0.0,0.0,0.0,0.0,0.0,0.0,0.0,0.0,0.0,0.0,0.0,0.0,0.0,0.0,0.0,0.0,0.0,0.0,0.0,0.0,0.0,0.0,-1.0425,-1.075,-1.1079,-1.147,-1.0711,-1.0081,0.0,0.0,0.0,0.0,0.0,0.0,0.0,0.0,0.0,0.0,0.0,0.0,0.0,0.0,0.0,0.0,0.0,0.0,0.0,0.0,0.0,0.0,0.0,0.0,0.0,0.0,0.0,0.0,0.0,0.0,0.0,0.0,0.0,0.0,0.0,0.0,0.0,0.0,0.0,0.0,0.0,0.0,0.0,0.0,0.0,0.0,0.0,0.0,0.0,0.0,0.0,0.0,0.0,0.0,0.0,0.0,0.0,0.0,0.0,0.0,0.0,0.0,0.0,0.0,0.0,0.0,0.0,0.0,0.0,0.0,0.0,0.0,0.0,0.0,0.0,0.0,0.0,0.0,0.0,0.0,0.0,0.0,0.0,0.0,0.0,0.0,0.0,0.0,0.0,0.0,0.0,0.0,0.0,0.0,0.0,0.0,0.0,0.0,0.0,0.0,0.0,0.0,0.0,0.0,0.0,0.0,0.0,0.0,0.0,-1.0338,0.0,-1.1736,-1.126,-1.0981,-1.0298,0.0,0.0,0.0,0.0,0.0,0.0,0.0,0.0,0.0,0.0,0.0,0.0,0.0,0.0,0.0,0.0,0.0,0.0,0.0,0.0,0.0,0.0,0.0,0.0,0.0,0.0,0.0,0.0,0.0,0.0,0.0,0.0,0.0,0.0,0.0,0.0,0.0,0.0,0.0,0.0,0.0,0.0,0.0,0.0,0.0,0.0,0.0,0.0,0.0,0.0,0.0,0.0,0.0,0.0,0.0,0.0,0.0,0.0,0.0,0.0,0.0,0.0,0.0,0.0,0.0,0.0,0.0,0.0,0.0,0.0,0.0,0.0,0.0,0.0,0.0,0.0,0.0,0.0,0.0,0.0,0.0,0.0,0.0,0.0,0.0,0.0,0.0,0.0,0.0,0.0,0.0,0.0,0.0,0.0,0.0,0.0,0.0,0.0,0.0,0.0,0.0,0.0,0.0,0.0,0.0,0.0,0.0,0.0,-1.0794,-1.2609,-1.3521,-1.3403,-1.2256,-1.126,-1.0192,0.0,0.0,0.0,0.0,0.0,0.0,0.0,0.0,0.0,0.0,0.0,0.0,0.0,0.0,0.0,0.0,0.0,0.0,0.0,0.0,0.0,0.0,0.0,0.0,0.0,0.0,0.0,0.0,0.0,0.0,0.0,0.0,0.0,0.0,0.0,0.0,0.0,0.0,0.0,0.0,0.0,0.0,0.0,0.0,0.0,0.0,0.0,0.0,0.0,0.0,0.0,0.0,0.0,0.0,0.0,0.0,0.0,0.0,0.0,0.0,0.0,0.0,0.0,0.0,0.0,0.0,0.0,0.0,0.0,0.0,0.0,0.0,0.0,0.0,0.0,0.0,0.0,0.0,0.0,0.0,0.0,0.0,0.0,0.0,0.0,0.0,0.0,0.0,0.0,0.0,0.0,0.0,0.0,0.0,0.0,0.0,0.0,0.0,0.0,0.0,0.0,0.0,0.0,0.0,0.0,0.0,0.0,0.0,0.0,-1.2721,-1.3211,-1.3768,-1.4219,-1.1967,-1.0634,0.0,0.0,0.0,0.0,0.0,0.0,0.0,0.0,0.0,0.0,0.0,0.0,0.0,0.0,0.0,0.0,0.0,0.0,0.0,0.0,0.0,0.0,0.0,0.0,0.0,0.0,0.0,0.0,0.0,0.0,0.0,0.0,0.0,0.0,0.0,0.0,0.0,0.0,0.0,0.0,0.0,0.0,0.0,0.0,0.0,0.0,0.0,0.0,0.0,0.0,0.0,0.0,0.0,0.0,0.0,0.0,0.0,0.0,0.0,0.0,0.0,0.0,0.0,0.0,0.0,0.0,0.0,0.0,0.0,0.0,0.0,0.0,0.0,0.0,0.0,0.0,0.0,0.0,0.0,0.0,0.0,0.0,0.0,0.0,0.0,0.0,0.0,0.0,0.0,0.0,0.0,0.0,0.0,0.0,0.0,0.0,0.0,0.0,0.0,0.0,0.0,0.0,0.0,0.0,0.0,0.0,0.0,0.0,0.0,-1.4948,-1.4903,-1.49,-1.4955,-1.3076,-1.1649,-1.0744,0.0,0.0,0.0,0.0,0.0,0.0,0.0,0.0,0.0,0.0,0.0,0.0,0.0,0.0,0.0,0.0,0.0,0.0,0.0,0.0,0.0,0.0,0.0,0.0,0.0,0.0,0.0,0.0,0.0,0.0,0.0,0.0,0.0,0.0,0.0,0.0,0.0,0.0,0.0,0.0,0.0,0.0,0.0,0.0,0.0,0.0,0.0,0.0,0.0,0.0,0.0,0.0,0.0,0.0,0.0,0.0,0.0,0.0,0.0,0.0,0.0,0.0,0.0,0.0,0.0,0.0,0.0,0.0,0.0,0.0,0.0,0.0,0.0,0.0,0.0,0.0,0.0,0.0,0.0,0.0,0.0,0.0,0.0,0.0,0.0,0.0,0.0,0.0,0.0,0.0,0.0,0.0,0.0,0.0,0.0,0.0,0.0,0.0,0.0,0.0,0.0,0.0,0.0,0.0,0.0,0.0,0.0,0.0,-1.8634,-1.8167,-1.6883,-1.4825,-1.4555,-1.3148,0.0,0.0,0.0,0.0,0.0,0.0,0.0,0.0,0.0,0.0,0.0,0.0,0.0,0.0,0.0,0.0,0.0,0.0,0.0,0.0,0.0,0.0,0.0,0.0,0.0,0.0,0.0,0.0,0.0,0.0,0.0,0.0,0.0,0.0,0.0,0.0,0.0,0.0,0.0,0.0,0.0,0.0,0.0,0.0,0.0,0.0,0.0,0.0,0.0,0.0,0.0,0.0,0.0,0.0,0.0,0.0,0.0,0.0,0.0,0.0,0.0,0.0,0.0,0.0,0.0,0.0,0.0,0.0,0.0,0.0,0.0,0.0,0.0,0.0,0.0,0.0,0.0,0.0,0.0,0.0,0.0,0.0,0.0,0.0,0.0,0.0,0.0,0.0,0.0,0.0,0.0,0.0,0.0,0.0,0.0,0.0,0.0,0.0,0.0,0.0,0.0,0.0,0.0,0.0,0.0,0.0,0.0,0.0,0.0,-1.9526,-2.0194,-1.9758,-1.8263,-1.6293,-1.4262,0.0,0.0,0.0,0.0,0.0,0.0,0.0,0.0,0.0,0.0,0.0,0.0,0.0,0.0,0.0,0.0,0.0,0.0,0.0,0.0,0.0,0.0,0.0,0.0,0.0,0.0,0.0,0.0,0.0,0.0,0.0,0.0,0.0,0.0,0.0,0.0,0.0,0.0,0.0,0.0,0.0,0.0,0.0,0.0,0.0,0.0,0.0,0.0,0.0,0.0,0.0,0.0,0.0,0.0,0.0,0.0,0.0,0.0,0.0,0.0,0.0,0.0,0.0,0.0,0.0,0.0,0.0,0.0,0.0,0.0,0.0,0.0,0.0,0.0,0.0,0.0,0.0,0.0,0.0,0.0,0.0,0.0,0.0,0.0,0.0,0.0,0.0,0.0,0.0,0.0,0.0,0.0,0.0,0.0,0.0,0.0,0.0,0.0,0.0,0.0,0.0,0.0,0.0,0.0,0.0,0.0,0.0,0.0,-1.9622,-2.1179,-2.1838,-2.1634,-2.0499,-1.825,-1.5704,0.0,0.0,0.0,0.0,0.0,0.0,0.0,0.0,0.0,0.0,0.0,0.0,0.0,0.0,0.0,0.0,0.0,0.0,0.0,0.0,0.0,0.0,0.0,0.0,0.0,0.0,0.0,0.0,0.0,0.0,0.0,0.0,0.0,0.0,0.0,0.0,0.0,0.0,0.0,0.0,0.0,0.0,0.0,0.0,0.0,0.0,0.0,0.0,0.0,0.0,0.0,0.0,0.0,0.0,0.0,0.0,0.0,0.0,0.0,0.0,0.0,0.0,0.0,0.0,0.0,0.0,0.0,0.0,0.0,0.0,0.0,0.0,0.0,0.0,0.0,0.0,0.0,0.0,0.0,0.0,0.0,0.0,0.0,0.0,0.0,0.0,0.0,0.0,0.0,0.0,0.0,0.0,0.0,0.0,0.0,0.0,0.0,0.0,0.0,0.0,0.0,0.0,0.0,0.0,0.0,0.0,0.0,0.0,-2.098,-2.3189,-2.3208,-2.2765,-2.1883,-2.0108,-1.7208,0.0,0.0,0.0,0.0,0.0,0.0,0.0,0.0,0.0,0.0,0.0,0.0,0.0,0.0,0.0,0.0,0.0,0.0,0.0,0.0,0.0,0.0,0.0,0.0,0.0,0.0,0.0,0.0,0.0,0.0,0.0,0.0,0.0,0.0,0.0,0.0,0.0,0.0,0.0,0.0,0.0,0.0,0.0,0.0,0.0,0.0,0.0,0.0,0.0,0.0,0.0,0.0,0.0,0.0,0.0,0.0,0.0,0.0,0.0,0.0,0.0,0.0,0.0,0.0,0.0,0.0,0.0,0.0,0.0,0.0,0.0,0.0,0.0,0.0,0.0,0.0,0.0,0.0,0.0,0.0,0.0,0.0,0.0,0.0,0.0,0.0,0.0,0.0,0.0,0.0,0.0,0.0,0.0,0.0,0.0,0.0,0.0,0.0,0.0,0.0,0.0,0.0,0.0,0.0,0.0,0.0,0.0,0.0,-2.1863,-2.4839,-2.4208,-2.3579,-2.3139,-2.0463,-1.7584,0.0,0.0,0.0,0.0,0.0,0.0,0.0,0.0,0.0,0.0,0.0,0.0,0.0,0.0,0.0,0.0,0.0,0.0,0.0,0.0,0.0,0.0,0.0,0.0,0.0,0.0,0.0,0.0,0.0,0.0,0.0,0.0,0.0,0.0,0.0,0.0,0.0,0.0,0.0,0.0,0.0,0.0,0.0,0.0,0.0,0.0,0.0,0.0,-0.2917,0.0,0.0,0.0,0.0,0.0,0.0,0.0,0.0,0.0,0.0,0.0,0.0,0.0,0.0,0.0,0.0,0.0,0.0,0.0,0.0,0.0,0.0,0.0,0.0,0.0,0.0,0.0,0.0,0.0,0.0,0.0,0.0,0.0,0.0,0.0,0.0,0.0,0.0,0.0,0.0,0.0,0.0,0.0,0.0,0.0,0.0,0.0,0.0,0.0,0.0,0.0,0.0,0.0,0.0,0.0,0.0,0.0,0.0,0.0,-2.302,-2.5662,-2.4606,-2.3891,-2.3535,-2.0789,-1.8111,0.0,0.0,0.0,0.0,0.0,0.0,0.0,0.0,0.0,0.0,0.0,0.0,0.0,0.0,0.0,0.0,0.0,0.0,0.0,0.0,0.0,0.0,0.0,0.0,0.0,0.0,0.0,0.0,0.0,0.0,0.0,0.0,0.0,0.0,0.0,0.0,0.0,0.0,0.0,0.0,0.0,0.0,0.0,0.0,0.0,0.0,0.0,0.0,0.0,0.0,0.0,0.0,0.0,0.0,0.0,0.0,0.0,0.0,0.0,0.0,0.0,0.0,0.0,0.0,0.0,0.0,0.0,0.0,0.0,0.0,0.0,0.0,0.0,0.0,0.0,0.0,0.0,0.0,0.0,0.0,0.0,0.0,0.0,0.0,0.0,0.0,0.0,0.0,0.0,0.0,0.0,0.0,0.0,0.0,0.0,0.0,0.0,0.0,0.0,0.0,0.0,0.0,0.0,0.0,0.0,0.0,0.0,-2.2579,-2.4181,-2.6143,-2.491,-2.4048,-2.3803,-2.1047,-1.864,-1.6658,0.0,0.0,0.0,0.0,0.0,0.0,0.0,0.0,0.0,0.0,0.0,0.0,0.0,0.0,0.0,0.0,0.0,0.0,0.0,0.0,0.0,0.0,0.0,0.0,0.0,0.0,0.0,0.0,0.0,0.0,0.0,0.0,0.0,0.0,0.0,0.0,0.0,0.0,-0.4963,-0.504,0.0,0.0,0.0,0.0,0.0,0.0,0.0,0.0,-0.4177,0.0,0.0,0.0,0.0,0.0,0.0,0.0,0.0,0.0,0.0,0.0,0.0,0.0,0.0,0.0,0.0,0.0,0.0,0.0,0.0,0.0,0.0,0.0,0.0,0.0,0.0,0.0,0.0,0.0,0.0,0.0,0.0,0.0,0.0,0.0,0.0,0.0,0.0,0.0,0.0,0.0,0.0,0.0,0.0,0.0,0.0,0.0,0.0,0.0,0.0,0.0,0.0,0.0,0.0,0.0,0.0,-2.2432,-2.2981,-2.4577,-2.7164,-2.5743,-2.4632,-2.3994,-2.1307,-1.896,-1.7058,0.0,0.0,0.0,0.0,0.0,0.0,0.0,0.0,0.0,0.0,0.0,0.0,0.0,0.0,0.0,0.0,0.0,0.0,0.0,0.0,0.0,0.0,0.0,0.0,0.0,0.0,0.0,0.0,0.0,0.0,0.0,0.0,0.0,0.0,0.0,0.0,0.0,0.0,0.0,-0.6151,-0.6638,0.0,0.0,0.0,0.0,0.0,0.0,0.0,0.0,-0.4381,0.0,0.0,0.0,0.0,0.0,0.0,0.0,0.0,0.0,0.0,0.0,0.0,0.0,0.0,0.0,0.0,0.0,0.0,0.0,0.0,0.0,0.0,0.0,0.0,0.0,0.0,0.0,0.0,0.0,0.0,0.0,0.0,0.0,0.0,0.0,0.0,0.0,0.0,0.0,0.0,0.0,0.0,0.0,0.0,0.0,0.0,0.0,0.0,0.0,0.0,0.0,0.0,0.0,0.0,0.0,-2.2909,-2.4468,-2.5902,-2.7235,-2.5801,-2.46,-2.3789,-2.0772,-1.8277,0.0,0.0,0.0,0.0,0.0,0.0,0.0,0.0,0.0,0.0,0.0,0.0,0.0,0.0,0.0,0.0,0.0,0.0,0.0,0.0,0.0,0.0,0.0,0.0,0.0,0.0,0.0,0.0,0.0,0.0,0.0,0.0,0.0,0.0,0.0,0.0,0.0,0.0,0.0,0.0,-0.6811,-0.6977,-0.6862,0.0,0.0,0.0,0.0,0.0,0.0,-0.6402,-0.6388,0.0,0.0,0.0,0.0,0.0,0.0,0.0,0.0,0.0,0.0,0.0,0.0,0.0,0.0,0.0,0.0,0.0,0.0,0.0,0.0,0.0,0.0,0.0,0.0,0.0,0.0,0.0,0.0,0.0,0.0,0.0,0.0,0.0,0.0,0.0,0.0,0.0,0.0,0.0,0.0,0.0,0.0,0.0,0.0,0.0,0.0,0.0,0.0,0.0,0.0,0.0,0.0,0.0,0.0,0.0,-2.3358,-2.582,-2.7145,-2.7183,-2.58,-2.4506,-2.3427,-2.0414,-1.784,0.0,0.0,0.0,0.0,0.0,0.0,0.0,0.0,0.0,0.0,0.0,0.0,0.0,0.0,0.0,0.0,0.0,0.0,0.0,0.0,0.0,0.0,0.0,0.0,0.0,0.0,0.0,0.0,0.0,0.0,0.0,0.0,0.0,0.0,0.0,0.0,0.0,0.0,0.0,0.0,0.0,-0.7426,-0.7368,-0.7604,0.0,0.0,0.0,0.0,-0.7502,-0.7997,0.0,0.0,0.0,0.0,0.0,0.0,0.0,0.0,0.0,0.0,0.0,0.0,0.0,0.0,0.0,0.0,0.0,0.0,0.0,0.0,0.0,0.0,0.0,0.0,0.0,0.0,0.0,0.0,0.0,0.0,0.0,0.0,0.0,0.0,0.0,0.0,0.0,0.0,0.0,0.0,0.0,0.0,0.0,0.0,0.0,0.0,0.0,0.0,0.0,0.0,0.0,0.0,0.0,0.0,0.0,0.0,-2.3592,-2.6104,-2.7418,-2.7314,-2.6022,-2.4665,-2.3269,-2.1121,-1.8648,0.0,0.0,0.0,0.0,0.0,0.0,0.0,0.0,0.0,0.0,0.0,0.0,0.0,0.0,0.0,0.0,0.0,0.0,0.0,0.0,0.0,0.0,0.0,0.0,0.0,0.0,0.0,0.0,0.0,0.0,0.0,0.0,0.0,0.0,0.0,0.0,0.0,0.0,0.0,0.0,0.0,-0.8941,-0.953,-0.946,-0.9324,0.0,0.0,-0.8586,-0.8295,-0.782,0.0,0.0,0.0,0.0,0.0,0.0,0.0,0.0,0.0,0.0,0.0,0.0,0.0,0.0,0.0,0.0,0.0,0.0,0.0,0.0,0.0,0.0,0.0,0.0,0.0,0.0,0.0,0.0,0.0,0.0,0.0,0.0,0.0,0.0,0.0,0.0,0.0,0.0,0.0,0.0,0.0,0.0,0.0,0.0,0.0,0.0,0.0,0.0,0.0,0.0,0.0,0.0,0.0,0.0,0.0,-2.2677,-2.4058,-2.675,-2.7958,-2.753,-2.6028,-2.4602,-2.3262,-2.0586,-1.812,0.0,0.0,0.0,0.0,0.0,0.0,0.0,0.0,0.0,0.0,0.0,0.0,0.0,0.0,0.0,0.0,0.0,0.0,0.0,0.0,0.0,0.0,0.0,0.0,0.0,0.0,0.0,0.0,0.0,0.0,0.0,0.0,0.0,0.0,0.0,0.0,0.0,0.0,0.0,0.0,0.0,0.0,-1.0098,-1.0509,0.0,0.0,0.0,-1.0214,-0.9668,0.0,0.0,0.0,0.0,0.0,0.0,0.0,0.0,0.0,0.0,0.0,0.0,0.0,0.0,0.0,0.0,0.0,0.0,0.0,0.0,0.0,0.0,0.0,0.0,0.0,0.0,0.0,0.0,0.0,0.0,0.0,0.0,0.0,0.0,0.0,0.0,0.0,0.0,0.0,0.0,0.0,0.0,0.0,0.0,0.0,0.0,0.0,0.0,0.0,0.0,0.0,0.0,0.0,0.0,0.0,0.0,0.0,-2.4358,-2.74,-2.8619,-2.7899,-2.6248,-2.476,-2.3459,-2.0463,0.0,0.0,0.0,0.0,0.0,0.0,0.0,0.0,0.0,0.0,0.0,0.0,0.0,0.0,0.0,0.0,0.0,0.0,0.0,0.0,0.0,0.0,0.0,0.0,0.0,0.0,0.0,-0.7493,0.0,0.0,0.0,0.0,0.0,0.0,0.0,0.0,0.0,0.0,0.0,0.0,0.0,0.0,-1.1598,-1.0874,-1.1877,-1.2163,0.0,0.0,-1.1829,-1.0929,-1.0532,-1.0115,0.0,0.0,0.0,0.0,0.0,0.0,0.0,0.0,0.0,0.0,0.0,0.0,0.0,0.0,0.0,0.0,0.0,0.0,0.0,0.0,0.0,0.0,0.0,0.0,0.0,0.0,0.0,0.0,0.0,0.0,0.0,0.0,0.0,0.0,0.0,0.0,0.0,0.0,0.0,0.0,0.0,0.0,0.0,0.0,0.0,0.0,0.0,0.0,0.0,0.0,0.0,0.0,0.0,0.0,-2.4586,-2.4615,-2.8111,-2.9497,-2.8446,-2.687,-2.5361,-2.396,-2.1445,-1.9559,0.0,0.0,0.0,0.0,0.0,0.0,0.0,0.0,0.0,0.0,0.0,0.0,0.0,0.0,0.0,0.0,0.0,0.0,0.0,0.0,0.0,0.0,0.0,0.0,0.0,0.0,0.0,0.0,0.0,0.0,0.0,0.0,0.0,0.0,0.0,0.0,0.0,0.0,0.0,0.0,0.0,-1.3202,-1.2778,-1.4063,-1.4527,0.0,0.0,-1.2896,-1.1772,-1.1086,-1.0415,-0.9699,0.0,0.0,0.0,0.0,0.0,0.0,0.0,0.0,0.0,0.0,0.0,0.0,0.0,0.0,0.0,0.0,0.0,0.0,0.0,0.0,0.0,0.0,0.0,0.0,0.0,0.0,0.0,0.0,0.0,0.0,0.0,0.0,0.0,0.0,0.0,0.0,0.0,0.0,0.0,0.0,0.0,0.0,0.0,0.0,0.0,0.0,0.0,0.0,0.0,0.0,0.0,0.0,0.0,-2.5072,-2.5458,-2.8369,-2.9603,-2.8948,-2.7534,-2.6102,-2.4709,-2.2604,-2.044,0.0,0.0,0.0,0.0,0.0,0.0,0.0,0.0,0.0,0.0,0.0,0.0,0.0,0.0,0.0,0.0,0.0,0.0,0.0,0.0,0.0,0.0,0.0,0.0,0.0,0.0,0.0,0.0,-0.8967,-0.9214,-1.0315,0.0,0.0,0.0,0.0,0.0,0.0,0.0,0.0,0.0,0.0,-1.4499,-1.4119,-1.4611,0.0,0.0,-1.3934,-1.362,-1.2491,-1.1964,-1.1446,-1.0706,-1.0156,0.0,0.0,0.0,0.0,0.0,0.0,0.0,0.0,0.0,0.0,0.0,0.0,0.0,0.0,0.0,0.0,0.0,0.0,0.0,0.0,0.0,0.0,0.0,0.0,0.0,0.0,0.0,0.0,0.0,0.0,0.0,0.0,0.0,0.0,0.0,0.0,0.0,0.0,0.0,0.0,0.0,0.0,0.0,0.0,0.0,0.0,0.0,0.0,0.0,0.0,0.0,0.0,-2.5389,-2.6009,-2.8685,-2.9839,-2.9439,-2.8201,-2.6902,-2.5659,-2.3623,-2.1517,0.0,0.0,0.0,0.0,0.0,0.0,0.0,0.0,0.0,0.0,0.0,0.0,0.0,0.0,0.0,0.0,0.0,0.0,0.0,0.0,0.0,0.0,0.0,0.0,0.0,0.0,0.0,0.0,-1.01,-1.0391,-1.1242,0.0,0.0,0.0,0.0,0.0,0.0,0.0,0.0,0.0,0.0,-1.5725,-1.5358,-1.5431,-1.5442,-1.5129,-1.4874,-1.4473,-1.3735,-1.3162,-1.26,-1.1988,0.0,0.0,0.0,0.0,0.0,0.0,0.0,0.0,0.0,0.0,0.0,0.0,0.0,0.0,0.0,0.0,0.0,0.0,0.0,0.0,0.0,0.0,0.0,0.0,0.0,0.0,0.0,-1.9929,0.0,0.0,-1.8554,0.0,0.0,0.0,0.0,0.0,0.0,0.0,0.0,0.0,0.0,0.0,0.0,0.0,0.0,0.0,0.0,0.0,0.0,0.0,0.0,0.0,0.0,-2.5458,-2.6038,-2.9028,-3.0326,-2.9777,-2.8756,-2.7775,-2.6903,-2.4413,-2.2895,-2.2699,0.0,0.0,0.0,0.0,0.0,0.0,0.0,0.0,0.0,0.0,0.0,0.0,0.0,0.0,0.0,0.0,0.0,0.0,0.0,0.0,0.0,0.0,0.0,0.0,0.0,0.0,-1.1127,-1.1412,-1.1721,0.0,0.0,0.0,0.0,0.0,0.0,0.0,0.0,0.0,0.0,-1.6651,-1.6833,-1.6514,-1.6929,-1.714,-1.7017,-1.6144,-1.5538,-1.5647,-1.4712,-1.3869,0.0,0.0,0.0,0.0,0.0,0.0,0.0,0.0,0.0,0.0,0.0,0.0,0.0,0.0,0.0,0.0,0.0,0.0,0.0,0.0,0.0,0.0,0.0,0.0,0.0,0.0,0.0,-2.4524,-2.4016,0.0,0.0,0.0,0.0,0.0,0.0,0.0,0.0,0.0,0.0,0.0,-3.2883,-3.3858,0.0,0.0,0.0,0.0,0.0,0.0,0.0,0.0,0.0,0.0,0.0,0.0,-2.5888,-2.6916,-2.9345,-3.0328,-2.9808,-2.9364,-2.8557,-2.7363,-2.5756,-2.3866,-2.1613,0.0,0.0,0.0,0.0,0.0,0.0,0.0,0.0,0.0,0.0,0.0,0.0,0.0,0.0,0.0,0.0,0.0,0.0,0.0,0.0,0.0,0.0,0.0,0.0,0.0,-1.1835,0.0,0.0,0.0,0.0,0.0,0.0,0.0,0.0,0.0,0.0,0.0,-1.6407,-1.6614,-1.7136,-1.7345,-1.7071,-1.7516,-1.775,0.0,0.0,0.0,0.0,0.0,0.0,0.0,0.0,0.0,0.0,0.0,0.0,0.0,0.0,-1.2618,-1.1161,-1.0723,-1.0637,-1.0757,0.0,0.0,0.0,0.0,0.0,0.0,0.0,0.0,0.0,0.0,0.0,0.0,0.0,0.0,-2.9191,0.0,-2.7236,0.0,0.0,0.0,0.0,0.0,0.0,0.0,0.0,-3.427,-3.5984,-3.6381,-3.7318,-3.6929,0.0,-3.4682,-3.2681,0.0,0.0,0.0,0.0,0.0,0.0,0.0,0.0,-2.7115,-2.8267,-2.9899,-3.0593,-3.0273,-2.9888,-2.9174,-2.8071,-2.6631,-2.4494,-2.1579,-1.9499,-1.8521,0.0,0.0,0.0,0.0,0.0,0.0,0.0,0.0,0.0,0.0,0.0,0.0,0.0,0.0,0.0,0.0,0.0,0.0,0.0,0.0,0.0,0.0,0.0,-1.341,0.0,0.0,0.0,0.0,0.0,0.0,0.0,0.0,0.0,-1.6402,-1.719,-1.7832,-1.7801,-1.7911,-1.7961,-1.7891,0.0,0.0,0.0,0.0,0.0,0.0,0.0,-1.6834,-1.6452,-1.6504,-1.6482,-1.6167,-1.6238,-1.6276,-1.5959,0.0,0.0,-1.3184,-1.2598,-1.249,-1.269,-1.2646,-1.262,-1.2768,-1.2922,-1.3105,0.0,0.0,0.0,0.0,0.0,0.0,0.0,0.0,-3.3717,-3.4028,0.0,-3.1318,0.0,0.0,0.0,0.0,-2.9842,-3.178,0.0,0.0,-3.7921,-3.8885,-3.7932,-3.8601,-3.8267,-3.7185,-3.7685,-3.7156,-3.5423,-3.002,0.0,0.0,0.0,0.0,0.0,0.0,-2.9104,-3.0041,-3.0807,-3.1156,-3.1091,-3.033,-2.9617,-2.9089,-2.7001,-2.4849,-2.2818,-2.1844,-2.0607,-1.8908,-1.7944,0.0,0.0,0.0,0.0,0.0,0.0,0.0,0.0,0.0,0.0,0.0,0.0,0.0,0.0,0.0,0.0,0.0,0.0,0.0,0.0,-1.5169,0.0,0.0,0.0,0.0,0.0,0.0,0.0,0.0,0.0,0.0,-1.9092,-1.9071,-1.9263,-1.9551,0.0,0.0,0.0,0.0,-1.9048,-1.9756,-1.9432,-1.9177,-1.9599,-1.9266,-1.8895,-1.8797,0.0,0.0,-1.7369,-1.7663,-1.7819,-1.7259,-1.7519,-1.7439,-1.5723,-1.4907,-1.4534,-1.4543,-1.4364,-1.4223,-1.4317,-1.4467,-1.4588,-4.565,0.0,0.0,0.0,0.0,-3.9512,-4.0028,-4.0037,-4.0323,-3.9959,-3.9134,-3.7593,0.0,0.0,0.0,0.0,0.0,0.0,-3.5834,-3.696,-3.8919,-3.9979,-4.028,-4.0894,-4.0578,-3.9566,-3.9125,-3.831,-3.7126,-3.5141,-3.2592,-2.9672,0.0,0.0,0.0,0.0,-3.0006,-3.1152,-3.2019,-3.2126,-3.149,-3.1533,-3.087,-2.9338,-2.7665,-2.6011,-2.4369,-2.3089,-2.2064,-2.1319,-1.8965,0.0,0.0,0.0,0.0,0.0,0.0,0.0,0.0,0.0,0.0,0.0,0.0,0.0,0.0,0.0,0.0,0.0,0.0,0.0,-1.6079,-1.6441,-1.6929,0.0,0.0,0.0,0.0,0.0,0.0,0.0,0.0,0.0,-2.1365,-2.0794,-2.0318,0.0,0.0,-2.0036,-1.9984,-2.0135,-2.0251,-2.0122,-1.9984,0.0,-1.9524,-1.9208,-1.9029,-1.9081,-1.9318,-1.943,-1.9273,-1.9112,-1.8769,-1.8023,-1.7768,-1.7446,-1.7059,-1.6757,-1.6678,-1.6879,-1.6545,-1.6234,-1.638,-1.6209,-1.5997,-5.058,-4.638,-4.4874,-4.3876,-4.3274,-4.4147,-4.466,-4.4874,-4.5042,-4.4687,-4.3877,-4.2347,-4.0714,-3.909,-3.7594,0.0,0.0,0.0,-3.852,-3.9693,-4.0823,-4.155,-4.1971,-4.2267,-4.1981,-4.1118,-4.0578,-3.9817,-3.8809,-3.8154,-3.6443,-3.3742,0.0,0.0,-3.1131,-3.1248,-3.1802,-3.2766,-3.3001,-3.2897,-3.237,-3.2003,-3.1079,-2.9554,-2.8294,-2.7143,-2.6016,-2.4498,-2.3386,-2.2832,-2.0813,-1.9704,0.0,0.0,0.0,0.0,0.0,0.0,0.0,0.0,0.0,0.0,0.0,-1.6417,-1.5984,0.0,0.0,0.0,-1.7212,-1.7655,-1.8301,-1.8581,0.0,0.0,0.0,0.0,0.0,0.0,0.0,-2.1262,-2.2124,-2.2707,-2.2623,-2.2114,-2.1608,-2.1131,-2.0884,-2.0807,-2.088,0.0,-2.1063,-2.1021,-2.0902,-2.075,-2.0365,-2.0106,-1.9946,-1.9884,-2.0079,-2.0286,-2.0311,-2.0102,-1.9742,-1.931,-1.8902,-1.8655,-1.8676,-1.8573,-1.8333,-1.8121,-1.7786,-1.7504,-1.7404,-1.7159,-1.6905,-5.4362,-5.328,-5.068,-4.9086,-4.8244,-4.8244,-4.852,-4.8935,-4.8326,-4.8301,-4.8413,-4.5883,-4.498,-4.5139,-4.1671,0.0,-4.0945,-4.0807,-4.1451,-4.2771,-4.3347,-4.3401,-4.3093,-4.3062,-4.2717,-4.2139,-4.2106,-4.1529,-4.0509,-3.9783,-3.8807,-3.7712,-3.6477,-3.5308,-3.4243,-3.4001,-3.4149,-3.4595,-3.3868,-3.3492,-3.3565,-3.1939,-3.0646,-2.982,-2.896,-2.8201,-2.7561,-2.6042,-2.4745,-2.3739,-2.3116,-2.2178,-2.0888,0.0,0.0,0.0,0.0,0.0,0.0,0.0,0.0,0.0,0.0,0.0,0.0,0.0,0.0,0.0,-1.961,0.0,-2.088,-2.1043,0.0,0.0,0.0,-2.1231,-2.0809,-2.1882,-2.2571,-2.228,0.0,0.0,-2.315,-2.3095,-2.286,-2.2242,-2.1659,-2.1367,-2.1677,-2.1631,-2.1656,-2.2115,-2.2049,-2.1862,-2.1588,-2.1369,-2.1149,-2.0896,-2.0892,-2.086,-2.0722,-2.0722,-2.0722,-2.0555,-2.0494,-2.0321,-2.0333,-1.9965,-1.9587,-1.856,-1.8327,-1.8135,-1.7739,-1.7568,-1.7376,-5.7169,-5.5883,-5.5243,-5.3518,-5.1285,-5.1251,-5.1016,-5.068,-5.1051,-5.0615,-4.9512,-4.8837,-4.7905,-4.6622,-4.519,-4.4567,-4.455,-4.4489,-4.4627,-4.4867,-4.5125,-4.5034,-4.472,-4.456,-4.4367,-4.4073,-4.3708,-4.3057,-4.2291,-4.1999,-4.1107,-3.9655,-3.9052,-3.7772,-3.5828,-3.5327,-3.5292,-3.5636,-3.5038,-3.4646,-3.4339,-3.1835,-3.0867,-3.1639,-3.0142,-2.9044,-2.8416,-2.753,-2.6482,-2.5226,-2.4063,-2.3156,-2.2523,-2.1441,0.0,0.0,0.0,0.0,0.0,0.0,0.0,0.0,0.0,-2.0795,-1.9894,0.0,-2.1634,0.0,-2.1135,-2.0899,-2.1184,-2.1156,0.0,0.0,-2.2131,-2.2448,-2.2843,-2.3156,-2.3394,-2.3478,-2.3403,-2.336,-2.333,-2.321,-2.304,-2.286,-2.2735,-2.2655,-2.2715,-2.2529,-2.2427,-2.2519,-2.2321,-2.2018,-2.1769,-2.1431,-2.1233,-2.1115,-2.1115,-2.1074,-2.0882,-2.0978,-2.0928,-2.0415,-2.0293,-2.02,-2.0066,-1.9856,-1.9776,-1.9629,-1.9285,-1.8865,-1.849,-1.8121,-1.773,-5.8321,-5.7239,-5.6596,-5.5176,-5.3415,-5.3348,-5.3078,-5.2739,-5.2807,-5.2165,-5.0953,-5.0551,-4.9448,-4.7786,-4.7291,-4.6599,-4.5847,-4.6146,-4.6081,-4.5689,-4.6114,-4.5986,-4.5436,-4.5307,-4.4918,-4.4302,-4.4328,-4.3903,-4.3065,-4.2865,-4.2252,-4.1262,-4.0582,-3.9347,-3.7632,-3.6839,-3.6406,-3.6332,-3.5576,-3.4949,-3.4361,-3.2727,-3.1809,-3.1827,-3.0788,-2.9888,-2.9233,-2.8466,-2.7687,-2.6851,-2.5721,-2.4955,-2.4568,-2.389,-2.3355,0.0,0.0,0.0,0.0,0.0,0.0,0.0,0.0,0.0,0.0,0.0,-2.3677,-2.3618,-2.316,-2.2996,-2.328,-2.3187,-2.3284,-2.3799,-2.365,-2.3684,-2.4052,-2.3931,-2.3832,-2.3747,-2.3599,-2.348,-2.339,-2.321,-2.3095,-2.3095,-2.3095,-2.3095,-2.3095,-2.2969,-2.2848,-2.2812,-2.2604,-2.2389,-2.2056,-2.1683,-2.1454,-2.14,-2.1296,-2.1169,-2.1074,-2.1115,-2.1055,-2.074,-2.0577,-2.0515,-2.0483,-2.02,-2.0058,-2.0202,-1.9943,-1.9498,-1.9082,-1.8807,-1.8501,-5.8727,-5.7915,-5.6562,-5.5685,-5.5179,-5.4872,-5.4567,-5.4195,-5.3517,-5.2908,-5.2299,-5.1526,-5.0253,-4.8785,-4.8656,-4.7729,-4.6278,-4.6874,-4.6841,-4.6278,-4.6775,-4.6645,-4.5923,-4.5891,-4.5306,-4.4269,-4.4788,-4.4494,-4.3424,-4.3193,-4.2798,-4.2304,-4.1367,-4.0402,-3.9412,-3.8489,-3.762,-3.683,-3.5839,-3.4984,-3.4292,-3.3921,-3.3048,-3.1656,-3.1323,-3.0823,-3.0154,-2.9338,-2.8817,-2.841,-2.7721,-2.7091,-2.6566,-2.6616,-2.6306,0.0,-2.5448,0.0,0.0,0.0,0.0,0.0,0.0,0.0,0.0,-2.5602,-2.5508,-2.5161,-2.5161,-2.5341,-2.5777,-2.5704,-2.5667,-2.5735,-2.5231,-2.4801,-2.4723,-2.4398,-2.406,-2.3717,-2.3658,-2.3569,-2.345,-2.3271,-2.3125,-2.3095,-2.3095,-2.3095,-2.3095,-2.3095,-2.306,-2.2939,-2.2878,-2.2696,-2.2451,-2.208,-2.1745,-2.1714,-2.1549,-2.1296,-2.1305,-2.1296,-2.1273,-2.1242,-2.1123,-2.106,-2.1233,-2.0828,-2.0561,-2.0603,-2.0377,-1.9975,-1.9506,-1.9353,-1.9244,-5.9471,-5.8727,-5.7848,-5.7444,-5.7243,-5.6021,-5.4228,-5.2247,-5.1983,-5.2123,-5.253,-5.2197,-5.1427,-5.0324,-5.0259,-4.9593,-4.8498,-4.863,-4.8597,-4.8465,-4.8001,-4.7703,-4.7538,-4.7375,-4.7177,-4.6914,-4.6643,-4.579,-4.4494,-4.413,-4.3287,-4.2006,-4.1453,-4.0959,-4.0495,0.0,0.0,0.0,-3.6428,-3.5941,-3.5759,-3.4394,-3.3553,-3.3226,-3.2442,0.0,-3.1818,-3.1511,-3.0779,-2.9659,-2.9691,0.0,0.0,0.0,0.0,0.0,0.0,0.0,0.0,0.0,0.0,0.0,-2.8514,-2.7728,-2.6728,-2.7084,-2.6981,-2.6003,-2.6012,-2.5977,-2.5892,-2.5887,-2.5798,-2.5647,-2.56,-2.537,-2.4801,-2.4767,-2.4622,-2.409,-2.392,-2.3772,-2.3569,-2.342,-2.3271,-2.315,-2.3095,-2.3095,-2.3095,-2.3095,-2.312,-2.3035,-2.2928,-2.2751,-2.2659,-2.2376,-2.2207,-2.2073,-2.1925,-2.1769,-2.1737,-2.1769,-2.1706,-2.1612,-2.1643,-2.1612,-2.1431,-2.1178,-2.0978,-2.0882,-2.0722,-2.0363,-1.9591,-1.9419,-1.9266,-6.0047,-5.8964,-5.8186,-5.7548,0.0,-5.565,-5.4262,-5.2755,-5.2563,-5.2702,-5.3041,-5.2942,-5.2269,-5.1196,-5.0591,-4.9724,-4.8629,-4.8061,-4.796,-4.8261,-4.7829,-4.783,-4.8099,-4.7902,-4.7638,-4.721,-4.6813,-4.6058,-4.4951,-4.4201,-4.3583,-4.3098,-4.2002,-4.1413,-4.1417,-4.0628,-3.9469,-3.8052,-3.7319,-3.6888,-3.6658,-3.5537,-3.4725,-3.4335,-3.3459,0.0,0.0,0.0,0.0,0.0,0.0,0.0,0.0,-2.9991,0.0,-2.9907,-2.9784,-2.9859,-3.0104,-2.9693,-2.9738,-3.0483,-3.0327,-2.9568,-2.8098,-2.8201,-2.8067,-2.739,-2.73,-2.7205,-2.7014,-2.6982,-2.6854,-2.657,-2.6431,-2.618,-2.5829,-2.5332,-2.4917,-2.4659,-2.422,-2.3832,-2.3628,-2.348,-2.333,-2.315,-2.3095,-2.3095,-2.3095,-2.3095,-2.3195,-2.3471,-2.3337,-2.3337,-2.3616,-2.3477,-2.3108,-2.2907,-2.2621,-2.2312,-2.1949,-2.1894,-2.1862,-2.173,-2.1761,-2.1737,-2.1675,-2.1423,-2.1178,-2.1115,-2.0914,-2.0613,-2.0122,-1.996,-1.9788,-6.0351,-5.9133,-5.8254,-5.7279,-5.6197,-5.5346,-5.4703,-5.4157,-5.372,0.0,0.0,-5.345,-5.291,-5.1799,-5.0892,-4.9887,-4.8825,-4.7845,-4.7639,-4.7981,-4.7751,-4.7857,-4.8195,-4.8066,-4.7604,-4.6946,-4.675,-4.6094,-4.5114,-4.4204,-4.3814,-4.3808,-4.255,-4.1962,-4.1991,-4.0917,-3.9852,-3.8987,-3.8409,-3.7906,-3.7476,-3.6905,-3.6208,-3.5389,-3.4541,-3.3856,-3.3387,-3.3048,-3.2771,-3.2526,-3.2417,-3.2262,-3.2062,-3.2229,-3.2315,-3.2233,-3.2008,-3.19,-3.1852,-3.15,-3.1215,-3.1243,-3.1344,-3.0815,-2.9425,-2.9155,-2.8967,-2.8665,-2.8476,-2.8346,-2.821,-2.8145,-2.7987,-2.7689,-2.7301,-2.705,-2.6833,-2.597,-2.5275,-2.5183,-2.4606,-2.403,-2.3773,-2.3628,-2.3402,-2.318,-2.3095,-2.3095,-2.3095,-2.3095,-2.3246,-2.3622,-2.3554,-2.3742,-2.426,-2.4283,-2.4023,-2.3423,-2.3301,-2.2998,-2.2335,-2.209,-2.202,-2.1824,-2.1792,-2.1824,-2.1831,-2.158,-2.1328,-2.1431,-2.1106,-2.0754,-2.0722,-2.0593,-2.0377,-6.0148,-5.9844,-5.8457,-5.7782,-5.7546,-5.6799,-5.6124,-5.538,-5.4194,-5.3311,-5.2768,-5.328,-5.2943,-5.2068,-5.2505,-5.2202,-5.1296,-5.1162,-5.0793,-5.0192,-4.9458,-4.8793,-4.8195,-4.8066,-4.7935,-4.7803,-4.7605,-4.675,-4.5374,-4.4984,-4.4172,-4.288,-4.2878,-4.2669,-4.2056,-4.1159,-4.0512,-4.0104,-3.9803,-3.9294,-3.8512,-3.8252,-3.7719,-3.6891,-3.6035,-3.555,-3.5461,-3.4765,-3.4072,-3.3383,-3.3648,-3.3346,-3.2371,-3.3126,-3.3436,-3.3087,-3.2863,-3.289,-3.3231,-3.288,-3.2562,-3.2427,-3.2292,-3.1624,-3.0257,-3.0086,-2.973,-2.888,-2.8789,-2.867,-2.8568,-2.8406,-2.8249,-2.8157,-2.7874,-2.7472,-2.7024,-2.6498,-2.5999,-2.5563,-2.5272,-2.4833,-2.4264,-2.4126,-2.3856,-2.3301,-2.3221,-2.3145,-2.3195,-2.3095,-2.312,-2.3195,-2.319,-2.3215,-2.3647,-2.3822,-2.386,-2.3235,-2.3878,-2.3949,-2.2991,-2.2872,-2.2749,-2.2231,-2.2128,-2.2073,-2.1956,-2.1792,-2.1667,-2.1612,-2.1328,-2.1074,-2.0914,-2.0754,-2.0583,-6.0858,-6.008,-5.937,-5.8626,-5.7848,-5.7509,-5.6968,-5.6258,-5.5651,-5.4703,-5.3754,-5.3991,-5.3517,-5.2538,-5.2269,-5.1799,-5.1162,-5.0621,-5.0414,-5.0318,-4.9984,-4.9551,-4.912,-4.8893,-4.8562,-4.8099,-4.744,-4.6717,-4.5897,-4.5375,-4.4821,-4.4268,-4.4424,-4.3763,-4.2322,-4.1875,-4.1224,-4.0436,-4.0226,-3.9894,-3.9244,-3.8813,-3.8342,-3.7839,-3.704,-3.6335,-3.5908,-3.5473,-3.4864,-3.4026,-3.4086,-3.3902,-3.3516,-3.3806,-3.3945,-3.3859,-3.3662,-3.3602,-3.375,-3.3356,-3.3083,-3.3042,-3.2939,-3.2476,-3.1511,-3.102,-3.0516,-2.9876,-2.9542,-2.9253,-2.8963,-2.8568,-2.8222,-2.8026,-2.7987,-2.7874,-2.7576,-2.7006,-2.6588,-2.6364,-2.5823,-2.5255,-2.4867,-2.4716,-2.4514,-2.4054,-2.3797,-2.3672,-2.3948,-2.3747,-2.3572,-2.3602,-2.3602,-2.3879,-2.4305,-2.4374,-2.4424,-2.4431,-2.4593,-2.4471,-2.3884,-2.3656,-2.322,-2.2812,-2.2476,-2.2221,-2.2104,-2.1949,-2.1824,-2.1698,-2.1517,-2.1273,-2.1106,-2.0914,-2.069,-6.1332,-6.0114,-5.9911,-5.9099,-5.7915,-5.7881,-5.7577,-5.707,-5.7036,-5.6325,-5.5175,-5.4905,-5.4259,-5.3175,-5.2269,-5.1663,-5.1195,-5.0477,-5.0299,-5.0574,-5.0544,-5.0447,-5.0083,-4.9657,-4.906,-4.8428,-4.7471,-4.6815,-4.6422,-4.5767,-4.557,-4.5726,-4.5493,-4.4539,-4.2965,-4.2585,-4.1869,-4.0855,-4.0528,-4.0191,-3.9809,-3.9289,-3.8913,-3.8642,-3.7868,-3.7129,-3.6487,-3.6134,-3.5668,-3.5035,-3.4621,-3.4553,-3.4869,-3.4408,-3.4288,-3.4569,-3.4351,-3.4128,-3.3985,-3.364,-3.3431,-3.3431,-3.3361,-3.3094,-3.2617,-3.2044,-3.1388,-3.0801,-3.03,-2.9832,-2.9275,-2.8765,-2.8284,-2.7947,-2.798,-2.802,-2.8026,-2.7458,-2.7097,-2.7114,-2.6387,-2.5775,-2.5429,-2.5274,-2.5069,-2.4764,-2.4431,-2.4406,-2.4682,-2.4431,-2.4205,-2.4155,-2.4104,-2.423,-2.5084,-2.4858,-2.4757,-2.5209,-2.5109,-2.4793,-2.4496,-2.4062,-2.3828,-2.3545,-2.2916,-2.2556,-2.2397,-2.2121,-2.1957,-2.1926,-2.1815,-2.1591,-2.1527,-2.1316,-2.0899,-6.0926,-6.0047,-5.9438,-5.866,-5.7915,-5.7881,-5.7814,-5.7746,-5.778,-5.734,-5.6528,-5.5886,-5.5069,-5.4256,-5.3986,-5.3515,-5.2909,-5.2842,-5.2505,-5.2064,-5.1965,-5.1562,-5.0856,-4.9924,-4.9359,-4.916,-4.8298,-4.744,-4.6749,-4.6585,-4.629,-4.576,-4.5008,-4.4669,-4.4373,-4.3123,-4.2188,-4.1678,-4.0882,-4.0401,-4.0261,-3.999,-3.9783,-3.9606,-3.8767,-3.8272,-3.8053,-3.7292,-3.6827,-3.6847,-3.5839,-3.5601,-3.6149,-3.5136,-3.469,-3.5247,-3.4748,-3.4366,-3.4327,-3.402,-3.3813,-3.3813,-3.3501,-3.3326,-3.3241,-3.3122,-3.2479,-3.1308,-3.0881,-3.0336,-2.9376,-2.9074,-2.8759,-2.8259,-2.8,-2.7888,-2.804,-2.7729,-2.7378,-2.7278,-2.6956,-2.6552,-2.5836,-2.5734,-2.5557,-2.5034,-2.4858,-2.4808,-2.4958,-2.4825,-2.4732,-2.4625,-2.4356,-2.413,-2.4305,-2.413,-2.4255,-2.4356,-2.4983,-2.5026,-2.4718,-2.4796,-2.5046,-2.4344,-2.3707,-2.3174,-2.2926,-2.2527,-2.2186,-2.2447,-2.2371,-2.2138,-2.2183,-2.1978,-2.1459,-6.1231,-6.008,-5.9776,-5.8964,-5.7949,-5.7881,-5.7881,-5.7881,-5.7881,-5.7712,-5.7442,-5.7137,-5.598,-5.4149,-5.4359,-5.392,-5.3075,-5.328,-5.3247,-5.301,-5.2943,-5.2504,-5.1763,-5.1128,-5.0393,-4.9525,-4.8928,-4.8167,-4.7441,-4.721,-4.6911,-4.6473,-4.6079,-4.5541,-4.4819,-4.4176,-4.3207,-4.2011,-4.1926,-4.1511,-4.0666,-4.0296,-4.0016,-3.9702,-3.9324,-3.8852,-3.8316,-3.7872,-3.7469,-3.705,-3.6546,-3.6406,-3.6599,-3.6032,-3.5752,-3.5851,-3.5224,-3.4605,-3.4225,-3.402,-3.4054,-3.4368,-3.3838,-3.3642,-3.3953,-3.3558,-3.2968,-3.2284,-3.1723,-3.1082,-3.0319,-2.9885,-2.9461,-2.8989,-2.8663,-2.8518,-2.8552,-2.8033,-2.7656,-2.759,-2.7248,-2.6833,-2.6367,-2.6249,-2.6114,-2.5795,-2.5536,-2.5385,-2.5661,-2.5511,-2.5285,-2.5234,-2.5059,-2.4808,-2.4556,-2.418,-2.4305,-2.4808,-2.5285,-2.5335,-2.5536,-2.5261,-2.5311,-2.5112,-2.441,-2.3839,-2.3685,-2.3466,-2.3207,-2.3227,-2.2921,-2.2691,-2.2741,-2.2271,-2.1717,-6.1637,-6.0452,-6.0013,-5.9066,-5.7915,-5.7881,-5.7881,-5.7881,-5.7881,-5.7881,-5.7881,-5.7881,-5.6586,-5.4584,-5.4592,-5.4053,-5.3038,-5.3212,-5.3382,-5.3484,-5.3518,-5.3213,-5.2639,-5.2034,-5.1229,-5.0225,-4.9427,-4.863,-4.7869,-4.7637,-4.7403,-4.7132,-4.6996,-4.6357,-4.5384,-4.5049,-4.4134,-4.2907,-4.2909,-4.2395,-4.1461,-4.0874,-4.0375,-3.994,-3.9768,-3.9349,-3.865,-3.8513,-3.8198,-3.7653,-3.727,-3.7128,-3.7197,-3.6769,-3.6458,-3.6286,-3.5774,-3.5206,-3.471,-3.4571,-3.4673,-3.4982,-3.4341,-3.403,-3.4285,-3.3769,-3.3255,-3.2967,-3.2493,-3.1838,-3.1056,-3.0599,-3.0164,-2.9592,-2.9308,-2.9198,-2.9137,-2.8603,-2.8283,-2.8163,-2.7832,-2.7199,-2.6867,-2.6611,-2.6424,-2.6373,-2.6122,-2.5971,-2.6348,-2.6122,-2.5837,-2.5845,-2.5711,-2.541,-2.5059,-2.4607,-2.4757,-2.5209,-2.5586,-2.577,-2.6223,-2.582,-2.5727,-2.5711,-2.5062,-2.4633,-2.4427,-2.4303,-2.3966,-2.3785,-2.3576,-2.3431,-2.3514,-2.2844,-2.2296,-6.1941,-6.1061,-5.9674,-5.8626,-5.7881,-5.7881,-5.7881,-5.7881,-5.7881,-5.7881,-5.7881,-5.7881,-5.6855,-5.5116,-5.5085,-5.4278,-5.3037,-5.2972,-5.3178,-5.3484,-5.3518,-5.3484,-5.3382,-5.2337,-5.1731,-5.143,-5.0025,-4.8862,-4.8067,-4.7836,-4.7671,-4.7638,-4.7167,-4.6756,-4.6317,-4.538,-4.4678,-4.4176,-4.3448,-4.286,-4.2705,-4.197,-4.1172,-4.0349,-3.991,-3.9666,-3.9535,-3.9247,-3.9103,-3.9247,-3.8191,-3.7915,-3.8429,-3.72,-3.6402,-3.6344,-3.6251,-3.6193,-3.6135,-3.5899,-3.5885,-3.5813,-3.5046,-3.4519,-3.4633,-3.3938,-3.3424,-3.3079,-3.3043,-3.242,-3.1405,-3.1137,-3.0663,-2.9883,-2.9759,-2.9749,-2.9749,-2.9469,-2.9346,-2.9109,-2.8612,-2.7954,-2.7131,-2.6705,-2.6584,-2.6549,-2.6474,-2.6449,-2.6449,-2.6424,-2.6399,-2.6298,-2.6021,-2.5586,-2.5511,-2.5134,-2.5084,-2.5435,-2.5661,-2.572,-2.5871,-2.5988,-2.6214,-2.6289,-2.5752,-2.5352,-2.5186,-2.4887,-2.4396,-2.426,-2.4471,-2.4461,-2.419,-2.3722,-2.3086,-6.167,-6.0452,-5.9438,-5.8592,-5.7915,-5.7881,-5.7881,-5.7881,-5.7881,-5.7881,-5.7881,-5.7881,-5.7195,-5.5965,-5.535,-5.4276,-5.297,-5.3178,-5.3348,-5.3518,-5.3518,-5.3518,-5.345,-5.2943,-5.237,-5.1697,-5.0992,-4.9958,-4.8829,-4.863,-4.8199,-4.7537,-4.7235,-4.6892,-4.641,-4.5897,-4.5258,-4.4495,-4.4476,-4.4045,-4.2984,-4.2973,-4.2464,-4.1172,-4.033,-3.9839,-3.9732,-3.9445,-3.9337,-3.9403,-3.8954,-3.8743,-3.8708,-3.7989,-3.7331,-3.6983,-3.6954,-3.6751,-3.6338,-3.6244,-3.6382,-3.6693,-3.5848,-3.543,-3.565,-3.5091,-3.4478,-3.4321,-3.384,-3.3245,-3.2691,-3.2182,-3.1613,-3.1019,-3.0574,-3.037,-3.0219,-2.9795,-2.9345,-2.9248,-2.8889,-2.8363,-2.7825,-2.7404,-2.7167,-2.7012,-2.6725,-2.6549,-2.6499,-2.6499,-2.6549,-2.6474,-2.6323,-2.6172,-2.6197,-2.5686,-2.5435,-2.5636,-2.5812,-2.6097,-2.6273,-2.6273,-2.6449,-2.6449,-2.607,-2.5827,-2.5551,-2.5259,-2.4789,-2.4923,-2.5134,-2.4909,-2.4742,-2.4048,-2.3317,-6.1501,-6.0148,-5.9573,-5.8761,-5.7915,-5.7881,-5.7881,-5.7881,-5.7881,-5.7881,-5.7881,-5.7881,-5.7367,-5.6511,-5.59,-5.4751,-5.3373,-5.3313,-5.3348,-5.3416,-5.3484,-5.345,-5.3382,-5.3179,-5.2739,-5.2064,-5.1625,-5.0721,-4.9558,-4.9226,-4.8695,-4.7999,-4.7399,-4.6927,-4.6512,-4.6187,-4.5575,-4.5074,-4.5243,-4.4741,-4.3707,-4.3722,-4.3333,-4.2294,-4.1301,-4.0405,-3.9833,-3.9517,-3.9403,-3.9373,-3.9337,-3.9119,-3.8723,-3.8427,-3.8103,-3.7651,-3.7666,-3.7455,-3.7012,-3.6925,-3.7128,-3.7506,-3.672,-3.6327,-3.6625,-3.5852,-3.5356,-3.5077,-3.4481,-3.3899,-3.3505,-3.2954,-3.2336,-3.1726,-3.1296,-3.1019,-3.0884,-3.0349,-2.9869,-2.9506,-2.9202,-2.8773,-2.8304,-2.795,-2.7713,-2.758,-2.7193,-2.7002,-2.6801,-2.6927,-2.6826,-2.66,-2.67,-2.66,-2.6499,-2.6097,-2.5862,-2.6038,-2.6038,-2.6373,-2.6499,-2.6499,-2.6499,-2.6499,-2.6364,-2.6111,-2.5825,-2.5565,-2.5483,-2.5568,-2.537,-2.5111,-2.4732,-2.4202,-2.3572,-6.1501,-6.0182,-6.008,-5.9201,-5.7983,-5.7881,-5.7881,-5.7881,-5.7881,-5.7881,-5.7881,-5.7881,-5.74,-5.6718,-5.6588,-5.5741,-5.4282,-5.3442,-5.3177,-5.3246,-5.3416,-5.3382,-5.3247,-5.3041,-5.2834,-5.2491,-5.1717,-5.0949,-5.022,-4.9657,-4.9226,-4.8827,-4.7694,-4.7059,-4.6892,-4.6223,-4.5828,-4.5619,-4.5426,-4.5173,-4.5036,-4.4217,-4.3661,-4.3402,-4.2634,-4.1528,-4.0163,-3.9715,-3.9529,-3.9463,-3.9228,-3.8936,-3.8679,-3.8501,-3.8427,-3.8219,-3.836,-3.836,-3.8153,-3.8057,-3.7999,-3.7991,-3.7436,-3.6897,-3.671,-3.6097,-3.5571,-3.5367,-3.4722,-3.4136,-3.3907,-3.3342,-3.2596,-3.1817,-3.1736,-3.1636,-3.1378,-3.1283,-3.0887,-3.0058,-2.967,-2.9207,-2.8616,-2.8293,-2.817,-2.8133,-2.7971,-2.7745,-2.7429,-2.7595,-2.7494,-2.6952,-2.6851,-2.6952,-2.6725,-2.6474,-2.6449,-2.6449,-2.6399,-2.6499,-2.6499,-2.6499,-2.6499,-2.6474,-2.6273,-2.602,-2.6161,-2.5865,-2.5684,-2.5673,-2.5452,-2.5218,-2.4732,-2.4284,-2.3991,-6.1501,-6.0148,-6.008,-5.9235,-5.7949,-5.7881,-5.7881,-5.7881,-5.7881,-5.7881,-5.7881,-5.7881,-5.771,-5.7333,-5.6892,-5.6277,-5.5631,-5.4488,-5.3649,-5.3314,-5.3416,-5.345,-5.3348,-5.3212,-5.2938,-5.259,-5.2248,-5.168,-5.1015,-5.0684,-5.0154,-4.9126,-4.839,-4.7623,-4.6957,-4.6404,-4.6008,-4.5641,-4.5463,-4.5278,-4.5024,-4.4688,-4.4236,-4.3624,-4.3186,-4.2487,-4.1626,-4.0777,-4.0244,-4.0068,-3.9576,-3.9192,-3.8943,-3.8797,-3.8612,-3.8427,-3.8456,-3.8389,-3.824,-3.8202,-3.8202,-3.8136,-3.7812,-3.7557,-3.7339,-3.695,-3.6618,-3.6352,-3.5489,-3.4797,-3.4454,-3.3609,-3.283,-3.2417,-3.2191,-3.2,-3.1706,-3.131,-3.0921,-3.054,-3.0401,-3.011,-2.9605,-2.9201,-2.8786,-2.8624,-2.8398,-2.8072,-2.7946,-2.8047,-2.7846,-2.7253,-2.7304,-2.7243,-2.6977,-2.6826,-2.6826,-2.6725,-2.665,-2.6499,-2.6499,-2.6499,-2.6499,-2.6424,-2.6197,-2.6138,-2.6246,-2.6168,-2.597,-2.5742,-2.5546,-2.5218,-2.4767,-2.4411,-2.4095,-6.1501,-6.0148,-6.008,-5.9235,-5.7949,-5.7881,-5.7881,-5.7881,-5.7881,-5.7881,-5.7881,-5.7881,-5.7881,-5.778,-5.7263,-5.6819,-5.641,-5.5302,-5.4393,-5.3651,-5.345,-5.345,-5.328,-5.3006,-5.2799,-5.2587,-5.2445,-5.2177,-5.1713,-5.1415,-5.0851,-4.9953,-4.8951,-4.8211,-4.757,-4.6696,-4.6104,-4.5929,-4.562,-4.5278,-4.5055,-4.4874,-4.4507,-4.4055,-4.3844,-4.3554,-4.3013,-4.2149,-4.1284,-4.0544,-3.9768,-3.9228,-3.9119,-3.898,-3.8833,-3.8649,-3.8575,-3.8501,-3.8315,-3.824,-3.8202,-3.8165,-3.8089,-3.7891,-3.7663,-3.7471,-3.7289,-3.6916,-3.5892,-3.5152,-3.4836,-3.3848,-3.3107,-3.2917,-3.2516,-3.2182,-3.1817,-3.1336,-3.0898,-3.0646,-3.0533,-3.0394,-3.0024,-2.9719,-2.9378,-2.9176,-2.895,-2.8574,-2.8549,-2.8624,-2.8247,-2.7971,-2.7946,-2.772,-2.7243,-2.7143,-2.7118,-2.7002,-2.6826,-2.6625,-2.6499,-2.6499,-2.6499,-2.6449,-2.6298,-2.6298,-2.6414,-2.6289,-2.6102,-2.5891,-2.5606,-2.5324,-2.4945,-2.4494,-2.4188,-6.1535,-6.0216,-6.0114,-5.9302,-5.8051,-5.7915,-5.7881,-5.7881,-5.7881,-5.7881,-5.7881,-5.7881,-5.7881,-5.7881,-5.778,-5.7367,-5.6617,-5.5881,-5.5137,-5.4359,-5.3787,-5.328,-5.2903,-5.2657,-5.2516,-5.2409,-5.2409,-5.2376,-5.2243,-5.1746,-5.1348,-5.0947,-4.9506,-4.8595,-4.844,-4.7101,-4.6421,-4.6513,-4.5702,-4.5204,-4.5129,-4.4799,-4.461,-4.451,-4.4479,-4.4373,-4.4098,-4.341,-4.2339,-4.0848,-3.9702,-3.9162,-3.9156,-3.909,-3.9017,-3.8833,-3.8804,-3.8686,-3.8501,-3.8315,-3.824,-3.8202,-3.8165,-3.8014,-3.7701,-3.7586,-3.7404,-3.7039,-3.5977,-3.5302,-3.5096,-3.4161,-3.3424,-3.3192,-3.2731,-3.2191,-3.1669,-3.1261,-3.0898,-3.0558,-3.0406,-3.0254,-2.9934,-2.9806,-2.9767,-2.9704,-2.9654,-2.9377,-2.9164,-2.9126,-2.9076,-2.885,-2.8499,-2.8172,-2.772,-2.7595,-2.7595,-2.7469,-2.7304,-2.7027,-2.6675,-2.6575,-2.6499,-2.6449,-2.6499,-2.6499,-2.6414,-2.628,-2.6049,-2.5767,-2.5571,-2.543,-2.5063,-2.453,-2.4291,-6.1839,-6.096,-6.0351,-5.9573,-5.8693,-5.8152,-5.7881,-5.7881,-5.7881,-5.7881,-5.7881,-5.7881,-5.7881,-5.7881,-5.7881,-5.771,-5.7234,-5.6256,-5.5543,-5.4964,-5.3785,-5.3075,-5.2729,-5.2589,-5.248,-5.2409,-5.2409,-5.2409,-5.2409,-5.2177,-5.1812,-5.128,-5.0432,-4.9613,-4.8929,-4.7694,-4.6975,-4.6676,-4.5734,-4.5204,-4.5129,-4.4799,-4.461,-4.461,-4.461,-4.4572,-4.4434,-4.37,-4.2498,-4.0818,-3.9841,-3.9337,-3.9301,-3.9301,-3.9228,-3.9053,-3.9017,-3.8833,-3.8575,-3.8456,-3.8352,-3.8202,-3.8202,-3.8089,-3.7853,-3.7663,-3.751,-3.7098,-3.6362,-3.5836,-3.5667,-3.4731,-3.3844,-3.3107,-3.2814,-3.2282,-3.1706,-3.1373,-3.1048,-3.0698,-3.0482,-3.0292,-3.0088,-2.9856,-2.9779,-2.9779,-2.9779,-2.9754,-2.9578,-2.9528,-2.9453,-2.9076,-2.875,-2.8499,-2.8247,-2.8122,-2.8047,-2.7971,-2.7821,-2.763,-2.7178,-2.6776,-2.6625,-2.6474,-2.6625,-2.665,-2.6411,-2.6208,-2.5921,-2.5676,-2.5465,-2.53,-2.4897,-2.4443,-2.4371,-6.1975,-6.1264,-6.0791,-5.9979,-5.9032,-5.8524,-5.8186,-5.7915,-5.7881,-5.7881,-5.7881,-5.7881,-5.7881,-5.7881,-5.7881,-5.7845,-5.7603,-5.6662,-5.5879,-5.5024,-5.3643,-5.2866,-5.2624,-5.2553,-5.248,-5.2409,-5.2409,-5.2409,-5.2409,-5.2409,-5.2142,-5.1643,-5.0834,-5.0249,-5.0014,-4.8003,-4.7221,-4.7109,-4.6102,-4.5278,-4.5198,-4.4905,-4.4685,-4.461,-4.461,-4.461,-4.4479,-4.3738,-4.2619,-4.1314,-4.0371,-3.9781,-3.9439,-3.9403,-3.9337,-3.9228,-3.9156,-3.8943,-3.8686,-3.8567,-3.8389,-3.824,-3.8202,-3.8118,-3.7929,-3.7777,-3.7625,-3.7271,-3.6646,-3.625,-3.5949,-3.518,-3.4461,-3.3944,-3.3514,-3.2882,-3.1887,-3.1384,-3.1048,-3.0773,-3.052,-3.033,-3.0126,-2.9934,-2.9818,-2.9779,-2.9779,-2.9779,-2.9754,-2.9779,-2.9704,-2.9377,-2.9227,-2.9076,-2.8976,-2.8875,-2.88,-2.8699,-2.8323,-2.8122,-2.762,-2.7128,-2.6851,-2.6725,-2.6801,-2.6706,-2.6467,-2.6193,-2.5945,-2.5735,-2.5465,-2.5158,-2.479,-2.4562,-2.4418,-6.2009,-6.14,-6.1332,-6.0452,-5.9235,-5.9032,-5.8521,-5.7946,-5.7845,-5.7845,-5.7808,-5.7808,-5.7772,-5.7845,-5.7772,-5.7735,-5.7554,-5.6855,-5.5902,-5.4778,-5.3494,-5.272,-5.2553,-5.248,-5.2409,-5.2409,-5.2409,-5.2409,-5.2409,-5.2409,-5.2409,-5.1974,-5.0806,-5.0689,-5.0554,-4.8472,-4.7562,-4.7835,-4.6534,-4.5671,-4.5391,-4.5073,-4.4761,-4.461,-4.461,-4.461,-4.4449,-4.3867,-4.2962,-4.1881,-4.112,-4.028,-3.9619,-3.9493,-3.9373,-3.9373,-3.9228,-3.9053,-3.887,-3.8649,-3.8464,-3.8315,-3.824,-3.8127,-3.8005,-3.7891,-3.7739,-3.7404,-3.6817,-3.6438,-3.6071,-3.5555,-3.5143,-3.4762,-3.4594,-3.3741,-3.2523,-3.1554,-3.1078,-3.0825,-3.0636,-3.033,-3.0101,-2.9934,-2.9818,-2.9779,-2.9779,-2.9779,-2.9779,-2.9779,-2.9779,-2.9704,-2.9654,-2.9704,-2.9679,-2.9679,-2.9603,-2.9478,-2.8888,-2.8512,-2.8047,-2.7544,-2.7193,-2.7042,-2.7128,-2.6922,-2.6557,-2.6282,-2.6044,-2.5735,-2.5441,-2.5182,-2.4921,-2.4706,-2.4585,-6.2279,-6.211,-6.1535,-6.0757,-5.9844,-5.9268,-5.8481,-5.7695,-5.7662,-5.7588,-5.7476,-5.7439,-5.7439,-5.7439,-5.7476,-5.7402,-5.7264,-5.6597,-5.5478,-5.4061,-5.3579,-5.2909,-5.2577,-5.2409,-5.2409,-5.2409,-5.2409,-5.2409,-5.2409,-5.2409,-5.2409,-5.2208,-5.1369,-5.1089,-5.1194,-4.9451,-4.8533,-4.8749,-4.7245,-4.6178,-4.5797,-4.5235,-4.4799,-4.461,-4.461,-4.461,-4.461,-4.4449,-4.3822,-4.269,-4.1526,-4.0648,-4.0194,-3.9738,-3.9499,-3.9433,-3.9367,-3.9228,-3.9053,-3.8833,-3.8649,-3.8427,-3.8277,-3.8165,-3.8127,-3.8005,-3.7815,-3.7519,-3.7291,-3.6825,-3.6268,-3.6005,-3.5714,-3.5321,-3.4843,-3.4365,-3.3717,-3.282,-3.2049,-3.1587,-3.1097,-3.0508,-3.019,-3.0138,-3.0023,-2.9843,-2.9804,-2.9804,-2.9804,-2.9829,-2.9779,-2.9779,-2.9779,-2.9779,-2.9779,-2.9779,-2.9779,-2.9779,-2.9377,-2.9038,-2.8574,-2.8222,-2.7921,-2.7645,-2.7444,-2.7187,-2.692,-2.6431,-2.6191,-2.5822,-2.5513,-2.5337,-2.5171,-2.4944,-2.4751,-6.2685,-6.2347,-6.1975,-6.1366,-6.0622,-5.9844,-5.8987,-5.8163,-5.7722,-5.7476,-5.7327,-5.7327,-5.7327,-5.7327,-5.7289,-5.7252,-5.6872,-5.5892,-5.4989,-5.4083,-5.3443,-5.2705,-5.2542,-5.2409,-5.2409,-5.2409,-5.2409,-5.2409,-5.2409,-5.2409,-5.2409,-5.2343,-5.1539,-5.1394,-5.1467,-4.9848,-4.9126,-4.8984,-4.7642,-4.6504,-4.6115,-4.5435,-4.4874,-4.4648,-4.461,-4.461,-4.461,-4.461,-4.4197,-4.3404,-4.2357,-4.1445,-4.086,-4.0247,-3.9918,-3.9858,-3.9493,-3.9331,-3.909,-3.8907,-3.8723,-3.8501,-3.8315,-3.824,-3.8202,-3.8089,-3.7891,-3.7663,-3.7481,-3.7185,-3.6606,-3.6539,-3.6314,-3.6097,-3.5652,-3.5372,-3.5079,-3.3912,-3.2703,-3.2261,-3.1651,-3.1279,-3.0971,-3.065,-3.071,-3.073,-3.0281,-3.0256,-3.0105,-3.008,-2.9829,-2.9779,-2.9779,-2.9779,-2.9779,-2.9779,-2.9779,-2.9754,-2.9628,-2.9478,-2.9277,-2.8976,-2.8725,-2.8373,-2.7996,-2.7812,-2.7517,-2.6951,-2.6451,-2.6164,-2.5936,-2.5709,-2.5481,-2.5253,-2.5107,-6.299,-6.2415,-6.2415,-6.1907,-6.1095,-6.0313,-5.9351,-5.8425,-5.7816,-5.7327,-5.7214,-5.7214,-5.7139,-5.7176,-5.7176,-5.7067,-5.6449,-5.5567,-5.4771,-5.4213,-5.3274,-5.2672,-5.2475,-5.2409,-5.2409,-5.2409,-5.2409,-5.2409,-5.2409,-5.2409,-5.2409,-5.2241,-5.1609,-5.1463,-5.1303,-5.0148,-4.9388,-4.9469,-4.8003,-4.6831,-4.6341,-4.5665,-4.5011,-4.4648,-4.461,-4.461,-4.461,-4.4572,-4.4351,-4.3996,-4.3441,-4.2636,-4.1798,-4.0965,-4.0457,-4.0397,-3.9888,-3.9516,-3.9222,-3.898,-3.8797,-3.8567,-3.8352,-3.824,-3.8202,-3.8165,-3.8005,-3.7739,-3.7481,-3.7289,-3.7056,-3.6894,-3.6922,-3.6855,-3.6716,-3.6563,-3.6093,-3.4775,-3.3736,-3.2889,-3.2237,-3.1731,-3.1578,-3.1357,-3.1519,-3.1574,-3.1095,-3.0658,-3.0507,-3.0306,-3.0055,-2.9804,-2.9779,-2.9779,-2.9779,-2.9779,-2.9779,-2.9779,-2.9729,-2.9729,-2.9704,-2.9503,-2.9176,-2.885,-2.8537,-2.8362,-2.8088,-2.763,-2.7175,-2.6724,-2.6445,-2.6275,-2.5949,-2.5588,-2.5452,-6.2482,-6.2415,-6.2415,-6.1603,-6.0381,-5.9958,-5.8997,-5.7629,-5.7277,-5.6987,-5.6834,-5.6796,-5.6834,-5.6834,-5.6796,-5.6459,-5.6027,-5.5388,-5.4692,-5.3971,-5.3202,-5.287,-5.2475,-5.2409,-5.2409,-5.2409,-5.2409,-5.2409,-5.2409,-5.2409,-5.2409,-5.2241,-5.1605,-5.1424,-5.1328,-5.0459,-4.9893,-4.9911,-4.8574,-4.7523,-4.6879,-4.5784,-4.498,-4.461,-4.461,-4.461,-4.461,-4.4572,-4.4419,-4.4065,-4.3905,-4.3512,-4.2848,-4.1871,-4.1115,-4.0606,-4.0277,-3.9911,-3.948,-3.9156,-3.8943,-3.876,-3.8538,-3.8352,-3.824,-3.8202,-3.7976,-3.7663,-3.7327,-3.7095,-3.7017,-3.6978,-3.6978,-3.6929,-3.6733,-3.6417,-3.6084,-3.5558,-3.478,-3.3939,-3.3065,-3.2265,-3.2215,-3.2109,-3.1986,-3.2015,-3.1787,-3.1181,-3.0733,-3.0532,-3.0281,-3.003,-2.9779,-2.9779,-2.9779,-2.9779,-2.9779,-2.9779,-2.9754,-2.9754,-2.9754,-2.9779,-2.9553,-2.9252,-2.9026,-2.8863,-2.8562,-2.8263,-2.7718,-2.7201,-2.6993,-2.6869,-2.6465,-2.61,-2.5951,-6.3057,-6.2415,-6.2415,-6.1699,-6.0603,-6.0021,-5.8979,-5.774,-5.7192,-5.6872,-5.6757,-5.668,-5.668,-5.668,-5.668,-5.6448,-5.6084,-5.5289,-5.4659,-5.393,-5.3268,-5.2738,-5.2442,-5.2409,-5.2409,-5.2409,-5.2409,-5.2409,-5.2409,-5.2409,-5.2409,-5.2307,-5.1869,-5.1756,-5.1594,-5.0955,-5.0542,-5.0231,-4.9068,-4.7917,-4.72,-4.577,-4.4885,-4.4648,-4.461,-4.461,-4.461,-4.461,-4.4458,-4.422,-4.4065,-4.3832,-4.3386,-4.28,-4.2073,-4.1444,-4.0786,-4.0307,-3.9852,-3.9467,-3.9017,-3.8804,-3.8612,-3.8427,-3.8277,-3.8165,-3.8014,-3.7634,-3.7394,-3.7095,-3.7017,-3.6978,-3.6978,-3.6978,-3.6811,-3.6536,-3.6298,-3.6098,-3.5547,-3.4794,-3.3727,-3.3105,-3.3212,-3.296,-3.2547,-3.2408,-3.2449,-3.1848,-3.1125,-3.0899,-3.0698,-3.017,-2.9893,-2.9779,-2.9779,-2.9779,-2.9779,-2.9779,-2.9779,-2.9779,-2.9779,-2.9779,-2.9779,-2.9654,-2.9478,-2.9239,-2.9289,-2.9063,-2.8362,-2.7693,-2.7666,-2.7465,-2.7018,-2.6657,-2.6482,-6.3463,-6.2415,-6.2415,-6.1756,-6.0757,-6.004,-5.9002,-5.7891,-5.7215,-5.6834,-5.6719,-5.668,-5.668,-5.668,-5.6647,-5.6514,-5.6216,-5.4957,-5.4394,-5.3732,-5.2937,-5.2442,-5.2409,-5.2409,-5.2409,-5.2409,-5.2409,-5.2409,-5.2409,-5.2409,-5.2409,-5.2373,-5.2373,-5.2086,-5.1582,-5.1182,-5.0902,-5.0179,-4.9307,-4.8224,-4.6874,-4.5634,-4.4733,-4.4641,-4.461,-4.461,-4.461,-4.461,-4.4496,-4.4297,-4.4104,-4.391,-4.3714,-4.3448,-4.309,-4.2462,-4.1324,-4.0696,-4.021,-3.9659,-3.9083,-3.8833,-3.8649,-3.8464,-3.824,-3.8127,-3.7976,-3.7663,-3.7433,-3.7201,-3.7017,-3.6978,-3.6978,-3.6978,-3.6968,-3.6811,-3.6417,-3.6138,-3.5858,-3.5076,-3.4204,-3.3953,-3.3993,-3.362,-3.3152,-3.3163,-3.3136,-3.2472,-3.1811,-3.1508,-3.1155,-3.041,-3.0007,-2.9829,-2.9779,-2.9779,-2.9779,-2.9779,-2.9779,-2.9779,-2.9779,-2.9779,-2.9779,-2.9779,-2.9613,-2.9463,-2.9677,-2.9613,-2.8719,-2.8194,-2.8278,-2.796,-2.7272,-2.704,-2.6995,-6.255,-6.2415,-6.2415,-6.1452,-6.0045,-5.965,-5.8585,-5.722,-5.6829,-5.6719,-5.668,-5.668,-5.668,-5.668,-5.668,-5.5984,-5.5156,-5.4622,-5.403,-5.3202,-5.2638,-5.2409,-5.2409,-5.2409,-5.2409,-5.2409,-5.2409,-5.2409,-5.2409,-5.2409,-5.2409,-5.2373,-5.2194,-5.1868,-5.1397,-5.1205,-5.0788,-5.0041,-4.9236,-4.798,-4.6416,-4.5712,-4.5164,-4.4764,-4.461,-4.461,-4.461,-4.4572,-4.4496,-4.4335,-4.4104,-4.391,-4.3714,-4.3438,-4.3329,-4.288,-4.2073,-4.1025,-4.0487,-3.9755,-3.9192,-3.8907,-3.8797,-3.8575,-3.8315,-3.8081,-3.7891,-3.7663,-3.7433,-3.725,-3.7095,-3.7046,-3.6978,-3.694,-3.6889,-3.6615,-3.6258,-3.6258,-3.5978,-3.5588,-3.4753,-3.4728,-3.478,-3.4257,-3.3814,-3.3851,-3.3724,-3.3004,-3.2373,-3.201,-3.1681,-3.0933,-3.0539,-3.0374,-3.0234,-3.0145,-2.998,-2.9905,-2.9804,-2.9804,-2.9779,-2.9779,-2.9779,-2.974,-2.9599,-2.9521,-2.9599,-2.9344,-2.8733,-2.8504,-2.8402,-2.7906,-2.727,-2.7246,-2.7348,-6.2415,-6.2381,-6.2229,-6.1195,-5.9722,-5.9421,-5.8391,-5.7066,-5.6719,-5.668,-5.668,-5.668,-5.668,-5.668,-5.668,-5.6382,-5.5653,-5.4854,-5.4262,-5.3334,-5.2804,-5.2409,-5.2409,-5.2409,-5.2409,-5.2409,-5.2409,-5.2409,-5.2409,-5.2409,-5.2409,-5.2373,-5.2194,-5.1941,-5.1429,-5.1167,-5.082,-5.0094,-4.9158,-4.7832,-4.6601,-4.585,-4.528,-4.4633,-4.4641,-4.4641,-4.461,-4.4572,-4.4572,-4.4419,-4.422,-4.3988,-4.3793,-4.3527,-4.329,-4.32,-4.2491,-4.1654,-4.0995,-4.0038,-3.9407,-3.9083,-3.8943,-3.8797,-3.8427,-3.8165,-3.7967,-3.7777,-3.7586,-3.7366,-3.7173,-3.7056,-3.7017,-3.694,-3.6929,-3.6693,-3.6417,-3.6298,-3.6138,-3.5722,-3.5386,-3.5319,-3.5197,-3.4578,-3.4202,-3.4204,-3.4027,-3.3392,-3.2724,-3.2092,-3.1813,-3.1508,-3.124,-3.1099,-3.0933,-3.0752,-3.0407,-3.0256,-2.988,-2.9854,-2.9804,-2.9779,-2.9779,-2.9624,-2.9365,-2.9365,-2.9521,-2.9238,-2.8763,-2.8606,-2.8488,-2.7949,-2.7458,-2.7369,-2.7405,-6.2415,-6.2381,-6.2189,-6.1217,-5.9767,-5.9443,-5.8407,-5.7083,-5.6746,-5.668,-5.668,-5.668,-5.668,-5.668,-5.668,-5.6514,-5.6249,-5.509,-5.4494,-5.3864,-5.3102,-5.2509,-5.2409,-5.2409,-5.2409,-5.2409,-5.2409,-5.2409,-5.2409,-5.2409,-5.2409,-5.2409,-5.2266,-5.1977,-5.1684,-5.1312,-5.0896,-5.0253,-4.9213,-4.8111,-4.7071,-4.6458,-4.5711,-4.5126,-4.4856,-4.4795,-4.4641,-4.461,-4.4572,-4.4496,-4.4297,-4.4065,-4.3949,-4.3636,-4.3369,-4.321,-4.2611,-4.2171,-4.1512,-4.0726,-3.9778,-3.9245,-3.8973,-3.8752,-3.8567,-3.8315,-3.8089,-3.7891,-3.7777,-3.7586,-3.7366,-3.7173,-3.7134,-3.7056,-3.7017,-3.6889,-3.6761,-3.6524,-3.6286,-3.5951,-3.5696,-3.5615,-3.5332,-3.4767,-3.4523,-3.4583,-3.4293,-3.3746,-3.311,-3.2418,-3.2215,-3.2036,-3.158,-3.1478,-3.1443,-3.1236,-3.0914,-3.0633,-3.0256,-2.9955,-2.9905,-2.9829,-2.9779,-2.9546,-2.9298,-2.9209,-2.9365,-2.9091,-2.8855,-2.8609,-2.8386,-2.8091,-2.781,-2.7615,-2.7476,-6.2415,-6.2415,-6.2381,-6.1638,-6.0403,-5.9767,-5.8797,-5.7574,-5.6945,-5.668,-5.668,-5.668,-5.668,-5.668,-5.6647,-5.6382,-5.5752,-5.4891,-5.4328,-5.3599,-5.2804,-5.2542,-5.2442,-5.2409,-5.2409,-5.2409,-5.2409,-5.2409,-5.2409,-5.2409,-5.2409,-5.2373,-5.2302,-5.1977,-5.1684,-5.1387,-5.0749,-5.0168,-4.9345,-4.868,-4.7933,-4.7339,-4.6705,-4.5711,-4.5434,-4.5249,-4.4671,-4.461,-4.461,-4.4572,-4.4335,-4.4143,-4.3988,-4.3714,-4.3478,-4.321,-4.2851,-4.247,-4.1991,-4.1384,-4.0495,-3.9498,-3.8981,-3.8906,-3.8919,-3.846,-3.8147,-3.8111,-3.8093,-3.7835,-3.7615,-3.7433,-3.7459,-3.7409,-3.7416,-3.7259,-3.7046,-3.6642,-3.6405,-3.6166,-3.5938,-3.5817,-3.5669,-3.5171,-3.4874,-3.4909,-3.4522,-3.4017,-3.3646,-3.3027,-3.2832,-3.2561,-3.1959,-3.1741,-3.1813,-3.163,-3.1351,-3.1085,-3.0758,-3.0357,-3.008,-3.0005,-3.0156,-2.9888,-2.9766,-2.9475,-2.9204,-2.9251,-2.9124,-2.8619,-2.8283,-2.8089,-2.7877,-2.7702,-2.7561,-6.1738,-6.1738,-6.1704,-6.1301,-6.0537,-5.9683,-5.8746,-5.7779,-5.7011,-5.668,-5.668,-5.668,-5.668,-5.668,-5.668,-5.6581,-5.6183,-5.5521,-5.4759,-5.4063,-5.3434,-5.2837,-5.2572,-5.2409,-5.2409,-5.2409,-5.2409,-5.2409,-5.2409,-5.2409,-5.2409,-5.2373,-5.2335,-5.2122,-5.1831,-5.135,-5.0596,-4.9979,-4.951,-4.8988,-4.8168,-4.7871,-4.7132,-4.5741,-4.5588,-4.5249,-4.4695,-4.461,-4.461,-4.4534,-4.4297,-4.4143,-4.3988,-4.3714,-4.3478,-4.3329,-4.3,-4.2761,-4.2381,-4.1841,-4.1077,-4.0755,-4.0186,-3.9862,-3.9706,-3.9527,-3.9102,-3.8861,-3.8582,-3.8409,-3.7863,-3.7967,-3.8069,-3.7951,-3.7833,-3.7743,-3.7377,-3.6984,-3.6552,-3.6313,-3.6086,-3.5938,-3.5777,-3.5602,-3.5359,-3.5182,-3.4729,-3.4288,-3.3917,-3.3588,-3.3383,-3.3155,-3.2599,-3.2424,-3.2523,-3.2221,-3.1838,-3.1537,-3.126,-3.0909,-3.0608,-3.0809,-3.0884,-3.0553,-3.0338,-3.0164,-2.9973,-2.9707,-2.9359,-2.8851,-2.8466,-2.8143,-2.7953,-2.7792,-2.7801,-6.1163,-6.0994,-6.1086,-6.0953,-6.0504,-5.9643,-5.8746,-5.7779,-5.7011,-5.668,-5.668,-5.668,-5.668,-5.668,-5.668,-5.668,-5.6349,-5.5686,-5.5019,-5.4262,-5.35,-5.2904,-5.2575,-5.2409,-5.2409,-5.2409,-5.2442,-5.2475,-5.2738,-5.2506,-5.2572,-5.2569,-5.2365,-5.2191,-5.1904,-5.1312,-5.055,-5.0018,-4.967,-4.9305,-4.8475,-4.8373,-4.7809,-4.6528,-4.6326,-4.5988,-4.5434,-4.5157,-4.4941,-4.4811,-4.4565,-4.4181,-4.3949,-4.3723,-4.3488,-4.3369,-4.326,-4.309,-4.2611,-4.1863,-4.1534,-4.1496,-4.102,-4.0829,-4.0733,-4.0461,-3.9858,-3.9538,-3.9334,-3.9044,-3.8515,-3.8859,-3.8864,-3.8734,-3.8632,-3.8484,-3.7782,-3.733,-3.6825,-3.6432,-3.6166,-3.5885,-3.5817,-3.5696,-3.5534,-3.5331,-3.5018,-3.4605,-3.4246,-3.3985,-3.3817,-3.3572,-3.3267,-3.3276,-3.331,-3.2836,-3.234,-3.1964,-3.1712,-3.1512,-3.1361,-3.1512,-3.1411,-3.106,-3.0879,-3.0907,-3.0704,-3.0433,-2.9797,-2.9093,-2.8745,-2.8386,-2.8365,-2.8238,-2.833,-6.0791,-6.0212,-6.0661,-6.0768,-6.0476,-5.9801,-5.8864,-5.7918,-5.7083,-5.668,-5.668,-5.668,-5.668,-5.668,-5.668,-5.668,-5.6415,-5.5388,-5.4622,-5.4295,-5.3367,-5.2638,-5.2442,-5.2409,-5.2409,-5.2373,-5.2539,-5.2837,-5.3268,-5.2804,-5.287,-5.2937,-5.2633,-5.2227,-5.2013,-5.1275,-5.0749,-5.0448,-5.0058,-4.9599,-4.9287,-4.9144,-4.8364,-4.7596,-4.7219,-4.6819,-4.6234,-4.5772,-4.5526,-4.5303,-4.4895,-4.445,-4.4026,-4.3949,-4.3675,-4.3329,-4.329,-4.326,-4.317,-4.2073,-4.1953,-4.2222,-4.1811,-4.1388,-4.0988,-4.0695,-4.0529,-4.0226,-4.0089,-4.0021,-3.9923,-3.9863,-3.9693,-3.955,-3.9446,-3.9215,-3.8577,-3.7917,-3.7519,-3.704,-3.6332,-3.5764,-3.5764,-3.5724,-3.5643,-3.5453,-3.5249,-3.4895,-3.4564,-3.4272,-3.4105,-3.3894,-3.3641,-3.3428,-3.3343,-3.3197,-3.2842,-3.2466,-3.2215,-3.2064,-3.1888,-3.1905,-3.1754,-3.1436,-3.1521,-3.1639,-3.1406,-3.1108,-3.0474,-2.9915,-2.9076,-2.8751,-2.8703,-2.8746,-2.8838,-5.9641,-5.94,-5.9953,-6.0141,-5.999,-5.9555,-5.9052,-5.8534,-5.7387,-5.668,-5.668,-5.668,-5.668,-5.668,-5.668,-5.668,-5.6481,-5.5852,-5.5085,-5.4394,-5.34,-5.287,-5.2539,-5.2409,-5.2409,-5.2539,-5.2771,-5.3102,-5.3367,-5.3135,-5.3169,-5.3165,-5.2663,-5.2152,-5.1794,-5.1275,-5.082,-5.0672,-5.0246,-4.9781,-4.9661,-4.939,-4.8858,-4.7954,-4.7762,-4.7342,-4.6828,-4.6458,-4.6111,-4.5772,-4.5303,-4.4764,-4.4217,-4.3979,-4.3675,-4.3369,-4.329,-4.329,-4.326,-4.2811,-4.2821,-4.2772,-4.2574,-4.2208,-4.2209,-4.1949,-4.1514,-4.1073,-4.0837,-4.0622,-4.0166,-4.0543,-4.0527,-4.0457,-4.0339,-4.0161,-3.9645,-3.8922,-3.8353,-3.7924,-3.7304,-3.6675,-3.6429,-3.6252,-3.6116,-3.5764,-3.5547,-3.5276,-3.4921,-3.4522,-3.4314,-3.4063,-3.3852,-3.3556,-3.3343,-3.3283,-3.3197,-3.2877,-3.2784,-3.2767,-3.2566,-3.2357,-3.219,-3.2039,-3.224,-3.2416,-3.2014,-3.1672,-3.1339,-3.0748,-2.9971,-2.9404,-2.9349,-2.9385,-2.9412,-5.8863,-5.8724,-5.9443,-5.9847,-5.9847,-5.9382,-5.8912,-5.8235,-5.7188,-5.668,-5.668,-5.668,-5.668,-5.668,-5.668,-5.668,-5.6581,-5.562,-5.5085,-5.4394,-5.3467,-5.2837,-5.2473,-5.2409,-5.2409,-5.2572,-5.3069,-5.35,-5.3864,-5.3831,-5.3665,-5.3228,-5.2557,-5.2079,-5.1721,-5.1312,-5.101,-5.0858,-5.048,-5.0089,-4.9852,-4.955,-4.9113,-4.859,-4.8161,-4.7814,-4.7484,-4.7114,-4.6726,-4.6256,-4.5716,-4.5153,-4.4569,-4.407,-4.3823,-4.3606,-4.3448,-4.3438,-4.3299,-4.326,-4.317,-4.32,-4.317,-4.3061,-4.2941,-4.2541,-4.2192,-4.1825,-4.1546,-4.1233,-4.096,-4.1337,-4.1244,-4.1213,-4.1006,-4.0785,-4.018,-3.9424,-3.8824,-3.8407,-3.7962,-3.7424,-3.7081,-3.6877,-3.6699,-3.6306,-3.5913,-3.5628,-3.533,-3.4921,-3.4564,-3.4314,-3.4105,-3.3852,-3.3598,-3.3471,-3.3368,-3.324,-3.3197,-3.3154,-3.3061,-3.2784,-3.2692,-3.2616,-3.2692,-3.2692,-3.2499,-3.2237,-3.1786,-3.1369,-3.0783,-3.0332,-3.0043,-2.9913,-2.9893,-5.8558,-5.8115,-5.9279,-5.9924,-5.9962,-5.946,-5.8374,-5.6884,-5.6752,-5.668,-5.668,-5.668,-5.668,-5.668,-5.668,-5.668,-5.6382,-5.5222,-5.4725,-5.4129,-5.3202,-5.2672,-5.2442,-5.2409,-5.2509,-5.2705,-5.3202,-5.3993,-5.446,-5.4328,-5.3997,-5.3364,-5.2521,-5.2112,-5.1758,-5.1429,-5.1237,-5.1048,-5.0781,-5.0402,-5.0129,-4.9741,-4.9399,-4.9032,-4.8676,-4.8512,-4.8265,-4.7978,-4.7619,-4.7096,-4.6449,-4.5778,-4.517,-4.4664,-4.4334,-4.3988,-4.3754,-4.3557,-4.3329,-4.329,-4.329,-4.329,-4.329,-4.317,-4.3021,-4.285,-4.2559,-4.2327,-4.2065,-4.2029,-4.2005,-4.1906,-4.1835,-4.1657,-4.1449,-4.0998,-4.0377,-3.9746,-3.913,-3.864,-3.8164,-3.776,-3.7609,-3.7431,-3.7338,-3.6889,-3.6522,-3.6373,-3.5977,-3.5344,-3.4948,-3.4564,-3.4356,-3.4147,-3.3894,-3.3683,-3.3471,-3.3326,-3.3326,-3.3283,-3.3197,-3.3136,-3.2986,-3.2935,-3.3036,-3.2968,-3.2817,-3.2496,-3.2166,-3.1706,-3.1207,-3.0711,-3.0254,-3.0234,-3.0191,-5.8084,-5.8051,-5.9279,-5.9924,-6.0038,-5.9616,-5.8736,-5.7709,-5.7022,-5.668,-5.668,-5.668,-5.668,-5.668,-5.668,-5.668,-5.615,-5.5355,-5.4725,-5.3997,-5.3135,-5.2641,-5.2409,-5.2442,-5.2672,-5.3202,-5.3798,-5.4423,-5.4953,-5.4854,-5.4195,-5.3397,-5.2656,-5.2214,-5.19,-5.161,-5.1424,-5.1162,-5.0896,-5.0666,-5.0324,-4.9892,-4.9653,-4.934,-4.8893,-4.8759,-4.8594,-4.8461,-4.8112,-4.7527,-4.725,-4.6677,-4.5284,-4.5061,-4.4791,-4.3892,-4.3675,-4.3596,-4.3399,-4.329,-4.329,-4.329,-4.329,-4.329,-4.317,-4.304,-4.2839,-4.2607,-4.2392,-4.2298,-4.2175,-4.2092,-4.2051,-4.1897,-4.1689,-4.1308,-4.0772,-4.0337,-3.9717,-3.9204,-3.8694,-3.8412,-3.8233,-3.8109,-3.7962,-3.7485,-3.716,-3.701,-3.6574,-3.5897,-3.5396,-3.4997,-3.4522,-3.4272,-3.4063,-3.3852,-3.3641,-3.3454,-3.3454,-3.3411,-3.324,-3.3111,-3.3136,-3.3136,-3.3136,-3.3136,-3.3086,-3.2739,-3.2319,-3.1981,-3.148,-3.0953,-3.0576,-3.0464,-3.0352,-5.7881,-5.8051,-5.9051,-5.9692,-5.9823,-5.9319,-5.8647,-5.7986,-5.7128,-5.668,-5.668,-5.668,-5.668,-5.668,-5.668,-5.668,-5.6547,-5.562,-5.4891,-5.4229,-5.3301,-5.2771,-5.2542,-5.2475,-5.2804,-5.3434,-5.4162,-5.4754,-5.5284,-5.5185,-5.4556,-5.3861,-5.299,-5.2382,-5.2076,-5.1868,-5.1577,-5.1275,-5.0934,-5.0781,-5.0402,-4.9931,-4.9613,-4.9381,-4.8893,-4.8718,-4.8718,-4.8676,-4.8358,-4.7958,-4.7865,-4.7271,-4.6107,-4.576,-4.5253,-4.4421,-4.3992,-4.3775,-4.3518,-4.3359,-4.3329,-4.3319,-4.3319,-4.3469,-4.3429,-4.3299,-4.3059,-4.2809,-4.2555,-4.238,-4.2257,-4.2175,-4.2133,-4.2092,-4.1856,-4.166,-4.1296,-4.0958,-4.0445,-3.9924,-3.9464,-3.9108,-3.8912,-3.883,-3.8586,-3.8125,-3.7799,-3.7594,-3.7076,-3.6342,-3.5907,-3.555,-3.4925,-3.4424,-3.4215,-3.4063,-3.3894,-3.3725,-3.3598,-3.3513,-3.3283,-3.3154,-3.3136,-3.3136,-3.3136,-3.3136,-3.3111,-3.2792,-3.2404,-3.2068,-3.1689,-3.1172,-3.0707,-3.0419,-3.0352,-5.7881,-5.7949,-5.8727,-5.9291,-5.9573,-5.8811,-5.8279,-5.7953,-5.7061,-5.668,-5.668,-5.668,-5.668,-5.668,-5.668,-5.668,-5.6481,-5.5819,-5.5152,-5.4523,-5.3665,-5.3036,-5.2672,-5.2509,-5.2937,-5.3533,-5.4192,-5.4953,-5.5516,-5.545,-5.5019,-5.4494,-5.3662,-5.2891,-5.2116,-5.2122,-5.1868,-5.1392,-5.101,-5.0705,-5.0214,-4.9741,-4.9331,-4.925,-4.8965,-4.8676,-4.88,-4.8759,-4.8604,-4.8389,-4.8112,-4.7711,-4.7086,-4.6379,-4.5708,-4.5183,-4.4621,-4.4174,-4.3856,-4.3568,-4.3399,-4.3359,-4.3349,-4.3718,-4.3758,-4.3449,-4.312,-4.3148,-4.2924,-4.2573,-4.2351,-4.2257,-4.2216,-4.2133,-4.1939,-4.1744,-4.1535,-4.1114,-4.0516,-4.0067,-3.9689,-3.936,-3.9183,-3.9047,-3.8966,-3.8586,-3.8423,-3.826,-3.7795,-3.7045,-3.6446,-3.6064,-3.5224,-3.4643,-3.4507,-3.434,-3.423,-3.4063,-3.3852,-3.3598,-3.3368,-3.324,-3.3136,-3.3136,-3.3136,-3.3136,-3.3061,-3.2817,-3.2571,-3.229,-3.1904,-3.1316,-3.0924,-3.0621,-3.0352,-5.7881,-5.7949,-5.8693,-5.9096,-5.9085,-5.8648,-5.8021,-5.7482,-5.6934,-5.668,-5.668,-5.668,-5.668,-5.668,-5.668,-5.668,-5.6514,-5.6117,-5.5582,-5.4887,-5.4096,-5.3434,-5.3036,-5.2638,-5.3102,-5.393,-5.4589,-5.5189,-5.5918,-5.5781,-5.5218,-5.449,-5.3794,-5.306,-5.2326,-5.2332,-5.1977,-5.161,-5.1237,-5.0788,-5.0331,-4.986,-4.9461,-4.9219,-4.8893,-4.8718,-4.8759,-4.8646,-4.8604,-4.8512,-4.8481,-4.8112,-4.7588,-4.6788,-4.63,-4.5957,-4.5388,-4.4917,-4.4467,-4.4027,-4.3698,-4.3668,-4.3778,-4.4047,-4.4007,-4.3519,-4.3319,-4.3437,-4.3305,-4.2854,-4.2474,-4.2351,-4.2228,-4.2133,-4.2009,-4.1897,-4.1744,-4.1198,-4.0602,-4.017,-3.9804,-3.9584,-3.9407,-3.9292,-3.921,-3.9156,-3.9102,-3.8922,-3.8634,-3.8033,-3.7111,-3.6565,-3.5429,-3.4861,-3.4805,-3.4653,-3.4607,-3.425,-3.3988,-3.3734,-3.3454,-3.324,-3.3136,-3.3136,-3.3136,-3.3136,-3.3136,-3.3086,-3.2846,-3.2525,-3.2127,-3.1656,-3.1216,-3.0892,-3.0578,-5.7881,-5.7949,-5.8321,-5.8413,-5.8193,-5.7968,-5.7582,-5.7092,-5.6796,-5.668,-5.668,-5.668,-5.668,-5.668,-5.668,-5.668,-5.6614,-5.6316,-5.5885,-5.5284,-5.4556,-5.3831,-5.3301,-5.2804,-5.3102,-5.3864,-5.4754,-5.5483,-5.6084,-5.6216,-5.5686,-5.4626,-5.3964,-5.3533,-5.287,-5.2461,-5.2188,-5.1904,-5.1536,-5.1048,-5.0518,-4.99,-4.9653,-4.9381,-4.9056,-4.8811,-4.8852,-4.8811,-4.8604,-4.8646,-4.8687,-4.8522,-4.8101,-4.7555,-4.7167,-4.676,-4.6202,-4.5654,-4.5232,-4.473,-4.4238,-4.4328,-4.4077,-4.4347,-4.5214,-4.4784,-4.4127,-4.4154,-4.3783,-4.3371,-4.2754,-4.2474,-4.2269,-4.2133,-4.2051,-4.1939,-4.1773,-4.1367,-4.0816,-4.0272,-3.9952,-3.9672,-3.9496,-3.9319,-3.9264,-3.9264,-3.9292,-3.9292,-3.9084,-3.8878,-3.8006,-3.7284,-3.6316,-3.5701,-3.5706,-3.5368,-3.5021,-3.4611,-3.4253,-3.3828,-3.3547,-3.3308,-3.3136,-3.3111,-3.3111,-3.3136,-3.3136,-3.3136,-3.3068,-3.2853,-3.2438,-3.2021,-3.1605,-3.1229,-3.0894,-5.7881,-5.7845,-5.7879,-5.7662,-5.7327,-5.7252,-5.7096,-5.6796,-5.6719,-5.668,-5.668,-5.668,-5.668,-5.668,-5.668,-5.668,-5.6647,-5.6547,-5.6183,-5.5752,-5.5024,-5.4361,-5.3632,-5.3003,-5.3235,-5.3765,-5.4622,-5.5052,-5.5454,-5.5752,-5.5653,-5.4692,-5.4361,-5.4195,-5.3434,-5.2967,-5.2663,-5.2214,-5.1782,-5.1226,-5.055,-4.986,-4.9733,-4.9493,-4.9178,-4.9015,-4.9138,-4.9056,-4.8687,-4.8646,-4.8759,-4.8697,-4.8574,-4.8183,-4.7947,-4.7548,-4.6935,-4.6538,-4.6203,-4.5505,-4.5374,-4.5273,-4.4798,-4.5046,-4.5873,-4.5873,-4.5214,-4.4713,-4.437,-4.3701,-4.3053,-4.2544,-4.2368,-4.2233,-4.215,-4.2109,-4.183,-4.1592,-4.11,-4.0516,-4.017,-3.9892,-3.9584,-3.9407,-3.9319,-3.9319,-3.9319,-3.9319,-3.9264,-3.9057,-3.858,-3.8195,-3.7714,-3.7197,-3.6601,-3.6085,-3.5578,-3.5269,-3.4908,-3.4264,-3.3734,-3.3647,-3.3467,-3.3154,-3.3154,-3.3162,-3.3136,-3.3136,-3.3068,-3.3075,-3.281,-3.2419,-3.2069,-3.1697,-3.13,-5.7808,-5.7662,-5.7662,-5.7514,-5.7289,-5.7139,-5.7025,-5.6911,-5.679,-5.668,-5.668,-5.668,-5.668,-5.668,-5.668,-5.668,-5.668,-5.668,-5.668,-5.6382,-5.5587,-5.4887,-5.4258,-5.3599,-5.3367,-5.3831,-5.439,-5.4622,-5.5019,-5.545,-5.5156,-5.3864,-5.5019,-5.4527,-5.3036,-5.297,-5.3357,-5.2781,-5.2437,-5.2095,-5.089,-5.0207,-4.9573,-4.9331,-4.921,-4.9087,-4.9118,-4.8996,-4.88,-4.8718,-4.8646,-4.8759,-4.8738,-4.8615,-4.8409,-4.8183,-4.7599,-4.7334,-4.6936,-4.6316,-4.6184,-4.5958,-4.5672,-4.5878,-4.6496,-4.677,-4.6172,-4.5622,-4.5037,-4.3908,-4.323,-4.2849,-4.2614,-4.2449,-4.2324,-4.2324,-4.2199,-4.1961,-4.1609,-4.1085,-4.06,-4.0209,-3.9716,-3.9496,-3.9336,-3.9292,-3.9319,-3.9319,-3.9319,-3.9183,-3.9047,-3.8878,-3.8725,-3.7896,-3.703,-3.6707,-3.6243,-3.5974,-3.5583,-3.4986,-3.4494,-3.4226,-3.3994,-3.3824,-3.3467,-3.333,-3.3237,-3.3456,-3.3194,-3.3219,-3.3119,-3.2853,-3.2531,-3.2211,-3.1821]},{"header":{"parameterUnit":"m.s-1","parameterCategory":1,"la1":31.0,"la2":29.5877,"lo1":-88.7671,"lo2":-86.6584,"dy":0.0162,"dx":0.0185,"nx":115,"ny":88,"refTime":"2024-04-26T00:00:00:Z","depth":0,"parameterNumber":3,"parameterNumberName":"V-component_of_WINDS"},"data":[0.0,0.0,0.0,0.0,0.0,0.0,0.0,0.0,0.0,0.0,0.0,0.0,0.0,0.0,0.0,0.0,0.0,0.0,0.0,0.0,0.0,0.0,0.0,0.0,0.0,0.0,0.0,0.0,0.0,0.0,0.0,0.0,0.0,0.0,0.0,0.0,0.0,0.0,0.0,0.0,0.0,0.0,0.0,0.0,0.0,0.0,0.0,0.0,0.0,0.0,0.0,0.0,0.0,0.0,0.0,0.0,0.0,0.0,0.0,0.0,0.0,0.0,0.0,0.0,0.0,0.0,0.0,0.0,0.0,0.0,0.0,0.0,0.0,0.0,0.0,0.0,0.0,0.0,0.0,0.0,0.0,0.0,0.0,0.0,0.0,0.0,0.0,0.0,0.0,0.0,0.0,0.0,0.0,0.0,0.0,0.0,0.0,0.0,0.0,0.0,0.0,0.0,0.0,0.0,0.0,0.0,0.0,0.0,0.0,0.0,0.0,0.0,0.0,0.0,0.0,0.0,0.0,0.0,0.0,0.0,0.0,0.0,0.0,0.0,0.0,0.0,0.0,0.0,0.0,0.0,0.0,0.0,0.0,0.0,0.0,0.0,0.0,0.0,0.0,0.0,0.0,0.0,0.0,0.0,0.0,0.0,0.0,0.0,0.0,0.0,0.0,0.0,0.0,0.0,0.0,0.0,0.0,0.0,0.0,0.0,0.0,0.0,0.0,0.0,0.0,0.0,0.0,0.0,0.0,0.0,0.0,0.0,0.0,0.0,0.0,0.0,0.0,0.0,0.0,0.0,0.0,0.0,0.0,0.0,0.0,0.0,0.0,0.0,0.0,0.0,0.0,0.0,0.0,0.0,0.0,0.0,0.0,0.0,0.0,0.0,0.0,0.0,0.0,0.0,0.0,0.0,0.0,0.0,0.0,0.0,0.0,0.0,0.0,0.0,0.0,0.0,0.0,0.0,0.0,0.0,0.0,0.0,0.0,0.0,0.0,0.0,0.0,0.0,0.0,0.0,0.0,0.0,0.0,0.0,0.0,0.0,0.0,0.0,0.0,0.0,0.0,0.0,0.0,0.0,0.0,0.0,0.0,0.0,0.0,0.0,0.0,0.0,0.0,0.0,0.0,0.0,0.0,0.0,0.0,0.0,0.0,0.0,0.0,0.0,0.0,0.0,0.0,0.0,0.0,0.0,0.0,0.0,0.0,0.0,0.0,0.0,0.0,0.0,0.0,0.0,0.0,0.0,0.0,0.0,0.0,0.0,0.0,0.0,0.0,0.0,0.0,0.0,0.0,0.0,0.0,0.0,0.0,0.0,0.0,0.0,0.0,0.0,0.0,0.0,0.0,0.0,0.0,0.0,0.0,0.0,0.0,0.0,0.0,0.0,0.0,0.0,0.0,0.0,0.0,0.0,0.0,0.0,0.0,0.0,0.0,0.0,0.0,0.0,0.0,0.0,0.0,0.0,0.0,0.0,0.0,0.0,0.0,0.0,0.0,0.0,0.0,0.0,0.0,0.0,0.0,0.0,0.0,0.0,0.0,0.0,0.0,0.0,0.0,0.0,0.0,0.0,0.0,0.0,0.0,0.0,0.0,0.0,0.0,0.0,0.0,0.0,0.0,0.0,0.0,0.0,0.0,0.0,0.0,0.0,0.0,0.0,0.0,0.0,0.0,0.0,0.0,0.0,0.0,0.0,0.0,0.0,0.0,0.0,0.0,0.0,0.0,0.0,0.0,0.0,0.0,0.0,0.0,0.0,0.0,0.0,0.0,0.0,0.0,0.0,0.0,0.0,0.0,0.0,0.0,0.0,0.0,0.0,0.0,0.0,0.0,0.0,0.0,0.0,0.0,0.0,0.0,0.0,0.0,0.0,0.0,0.0,0.0,0.0,0.0,0.0,0.0,0.0,0.0,0.0,0.0,0.0,0.0,0.0,0.0,0.0,0.0,0.0,0.0,0.0,0.0,0.0,0.0,0.0,0.0,0.0,0.0,0.0,0.0,0.0,0.0,0.0,0.0,0.0,0.0,0.0,0.0,0.0,0.0,0.0,0.0,0.0,0.0,0.0,0.0,0.0,0.0,0.0,0.0,0.0,0.0,0.0,0.0,0.0,0.0,0.0,0.0,0.0,0.0,0.0,0.0,0.0,0.0,0.0,0.0,0.0,0.0,0.0,0.0,0.0,0.0,0.0,0.0,0.0,0.0,0.0,0.0,0.0,0.0,0.0,0.0,0.0,0.0,0.0,0.0,0.0,0.0,0.0,0.0,0.0,0.0,0.0,0.0,0.0,0.0,0.0,0.0,0.0,0.0,0.0,0.0,0.0,0.0,0.0,0.0,0.0,0.0,0.0,0.0,0.0,0.0,0.0,0.0,0.0,0.0,0.0,0.0,0.0,0.0,0.0,0.0,0.0,0.0,0.0,0.0,0.0,0.0,0.0,0.0,0.0,0.0,0.0,0.0,0.0,0.0,0.0,0.0,0.0,0.0,0.0,0.0,0.0,0.0,0.0,0.0,0.0,0.0,0.0,0.0,0.0,0.0,0.0,0.0,0.0,0.0,0.0,0.0,0.0,0.0,0.0,0.0,0.0,0.0,0.0,0.0,0.0,0.0,0.0,0.0,0.0,0.0,0.0,0.0,0.0,0.0,0.0,0.0,0.0,0.0,0.0,0.0,0.0,0.0,0.0,0.0,0.0,0.0,0.0,0.0,0.0,0.0,0.0,0.0,0.0,0.0,0.0,0.0,0.0,0.0,0.0,0.0,0.0,0.0,0.0,0.0,0.0,0.0,0.0,0.0,0.0,0.0,0.0,0.0,0.0,0.0,0.0,0.0,0.0,0.0,0.0,0.0,0.0,0.0,0.0,0.0,0.0,0.0,0.0,0.0,0.0,0.0,0.0,0.0,0.0,0.0,0.0,0.0,0.0,0.0,0.0,0.0,0.0,0.0,0.0,0.0,0.0,0.0,0.0,0.0,0.0,0.0,0.0,0.0,0.0,0.0,0.0,0.0,0.0,0.0,0.0,0.0,0.0,0.0,0.0,0.0,0.0,0.0,0.0,0.0,0.0,0.0,0.0,0.0,0.0,0.0,0.0,0.0,0.0,0.0,0.0,0.0,0.0,0.0,0.0,0.0,0.0,0.0,0.0,0.0,0.0,0.0,0.0,0.0,0.0,0.0,0.0,0.0,0.0,0.0,0.0,0.0,0.0,0.0,0.0,0.0,0.0,0.0,0.0,0.0,0.0,0.0,0.0,0.0,0.0,0.0,0.0,0.0,0.0,0.0,0.0,0.0,0.0,0.0,0.0,0.0,0.0,0.0,0.0,0.0,0.0,0.0,0.0,0.0,0.0,0.0,0.0,0.0,0.0,0.0,0.0,0.0,0.0,0.0,0.0,0.0,0.0,0.0,0.0,0.0,0.0,0.0,0.0,0.0,0.0,0.0,0.0,0.0,0.0,0.0,0.0,0.0,0.0,0.0,0.0,0.0,0.0,0.0,0.0,0.0,0.0,0.0,0.0,0.0,0.0,0.0,0.0,0.0,0.0,0.0,0.0,0.0,0.0,0.0,0.0,0.0,0.0,0.0,0.0,0.0,0.0,0.0,0.0,0.0,0.0,0.0,0.0,0.0,0.0,0.0,0.0,0.0,0.0,0.0,0.0,0.0,0.0,0.0,0.0,0.0,0.0,0.0,0.0,0.0,0.0,0.0,0.0,0.0,0.0,0.0,0.0,0.0,0.0,0.0,0.0,0.0,0.0,0.0,0.0,0.0,0.0,0.0,0.0,0.0,0.0,0.0,0.0,0.0,0.0,0.0,0.0,0.0,0.0,0.0,0.0,0.0,0.0,0.0,0.0,0.0,0.0,0.0,0.0,0.0,0.0,0.0,0.0,0.0,0.0,0.0,0.0,0.0,0.0,0.0,0.0,0.0,0.0,0.0,0.0,0.0,0.0,0.0,0.0,0.0,0.0,0.0,0.0,0.0,0.0,0.0,0.0,0.0,0.0,0.0,0.0,0.0,0.0,0.0,0.0,0.0,0.0,0.0,0.0,0.0,0.0,0.0,0.0,0.0,0.0,0.0,0.0,0.0,0.0,0.0,0.0,0.0,0.0,0.0,0.0,0.0,0.0,0.0,0.0,0.0,0.0,0.0,0.0,0.0,0.0,0.0,0.0,0.0,0.0,0.0,0.0,0.0,0.0,0.0,0.0,0.0,0.0,0.0,0.0,0.0,0.0,0.0,0.0,0.0,0.0,0.0,0.0,0.0,0.0,1.3866,0.0,0.0,0.0,0.0,0.0,0.0,0.0,0.0,0.0,0.0,0.0,0.0,0.0,0.0,0.0,0.0,0.0,0.0,0.0,0.0,0.0,0.0,0.0,0.0,0.0,0.0,0.0,0.0,0.0,0.0,0.0,0.0,0.0,0.0,0.0,0.0,0.0,0.0,0.0,0.0,0.0,0.0,0.0,0.0,0.0,0.0,0.0,0.0,0.0,0.0,0.0,0.0,0.0,0.0,0.0,0.0,0.0,0.0,0.0,0.0,0.0,0.0,0.0,0.0,0.0,0.0,0.0,0.0,0.0,0.0,0.0,0.0,0.0,0.0,0.0,0.0,0.0,0.0,0.0,0.0,0.0,0.0,0.0,0.0,0.0,0.0,0.0,0.0,0.0,0.0,0.0,0.0,0.0,0.0,0.0,0.0,0.0,0.0,0.0,0.0,0.0,0.0,0.0,0.0,0.0,0.0,0.0,0.0,0.0,0.0,1.4569,1.468,1.4003,1.3682,1.389,0.0,0.0,0.0,0.0,0.0,0.0,0.0,0.0,0.0,0.0,0.0,0.0,0.0,0.0,0.0,0.0,0.0,0.0,0.0,0.0,0.0,0.0,0.0,0.0,0.0,0.0,0.0,0.0,0.0,0.0,0.0,0.0,0.0,0.0,0.0,0.0,0.0,0.0,0.0,0.0,0.0,0.0,0.0,0.0,0.0,0.0,0.0,0.0,0.0,0.0,0.0,0.0,0.0,0.0,0.0,0.0,0.0,0.0,0.0,0.0,0.0,0.0,0.0,0.0,0.0,0.0,0.0,0.0,0.0,0.0,0.0,0.0,0.0,0.0,0.0,0.0,0.0,0.0,0.0,0.0,0.0,0.0,0.0,0.0,0.0,0.0,0.0,0.0,0.0,0.0,0.0,0.0,0.0,0.0,0.0,0.0,0.0,0.0,0.0,0.0,0.0,0.0,0.0,0.0,0.0,0.0,0.0,0.0,0.0,0.0,0.0,0.0,1.5054,1.4571,1.4527,0.0,0.0,0.0,0.0,0.0,0.0,0.0,0.0,0.0,0.0,0.0,0.0,0.0,0.0,0.0,0.0,0.0,0.0,0.0,0.0,0.0,0.0,0.0,0.0,0.0,0.0,0.0,0.0,0.0,0.0,0.0,0.0,0.0,0.0,0.0,0.0,0.0,0.0,0.0,0.0,0.0,0.0,0.0,0.0,0.0,0.0,0.0,0.0,0.0,0.0,0.0,0.0,0.0,0.0,0.0,0.0,0.0,0.0,0.0,0.0,0.0,0.0,0.0,0.0,0.0,0.0,0.0,0.0,0.0,0.0,0.0,0.0,0.0,0.0,0.0,0.0,0.0,0.0,0.0,0.0,0.0,0.0,0.0,0.0,0.0,0.0,0.0,0.0,0.0,0.0,0.0,0.0,0.0,0.0,0.0,0.0,0.0,0.0,0.0,0.0,0.0,0.0,0.0,0.0,0.0,0.0,0.0,0.0,0.0,0.0,1.673,1.7874,1.7707,0.0,1.6475,0.0,0.0,0.0,0.0,0.0,0.0,0.0,0.0,0.0,0.0,0.0,0.0,0.0,0.0,0.0,0.0,0.0,0.0,0.0,0.0,0.0,0.0,0.0,0.0,0.0,0.0,0.0,0.0,0.0,0.0,0.0,0.0,0.0,0.0,0.0,0.0,0.0,0.0,0.0,0.0,0.0,0.0,0.0,0.0,0.0,0.0,0.0,0.0,0.0,0.0,0.0,0.0,0.0,0.0,0.0,0.0,0.0,0.0,0.0,0.0,0.0,0.0,0.0,0.0,0.0,0.0,0.0,0.0,0.0,0.0,0.0,0.0,0.0,0.0,0.0,0.0,0.0,0.0,0.0,0.0,0.0,0.0,0.0,0.0,0.0,0.0,0.0,0.0,0.0,0.0,0.0,0.0,0.0,0.0,0.0,0.0,0.0,0.0,0.0,0.0,0.0,0.0,0.0,0.0,0.0,0.0,0.0,0.0,0.0,0.0,1.7505,1.8817,1.8383,1.7328,0.0,0.0,0.0,0.0,0.0,0.0,0.0,0.0,0.0,0.0,0.0,0.0,0.0,0.0,0.0,0.0,0.0,0.0,0.0,0.0,0.0,0.0,0.0,0.0,0.0,0.0,0.0,0.0,0.0,0.0,0.0,0.0,0.0,0.0,0.0,0.0,0.0,0.0,0.0,0.0,0.0,0.0,0.0,0.0,0.0,0.0,0.0,0.0,0.0,0.0,0.0,0.0,0.0,0.0,0.0,0.0,0.0,0.0,0.0,0.0,0.0,0.0,0.0,0.0,0.0,0.0,0.0,0.0,0.0,0.0,0.0,0.0,0.0,0.0,0.0,0.0,0.0,0.0,0.0,0.0,0.0,0.0,0.0,0.0,0.0,0.0,0.0,0.0,0.0,0.0,0.0,0.0,0.0,0.0,0.0,0.0,0.0,0.0,0.0,0.0,0.0,0.0,0.0,0.0,0.0,0.0,0.0,0.0,0.0,0.0,1.8332,1.879,1.9969,1.8933,1.7577,1.6148,0.0,0.0,0.0,0.0,0.0,0.0,0.0,0.0,0.0,0.0,0.0,0.0,0.0,0.0,0.0,0.0,0.0,0.0,0.0,0.0,0.0,0.0,0.0,0.0,0.0,0.0,0.0,0.0,0.0,0.0,0.0,0.0,0.0,0.0,0.0,0.0,0.0,0.0,0.0,0.0,0.0,0.0,0.0,0.0,0.0,0.0,0.0,0.0,0.0,0.0,0.0,0.0,0.0,0.0,0.0,0.0,0.0,0.0,0.0,0.0,0.0,0.0,0.0,0.0,0.0,0.0,0.0,0.0,0.0,0.0,0.0,0.0,0.0,0.0,0.0,0.0,0.0,0.0,0.0,0.0,0.0,0.0,0.0,0.0,0.0,0.0,0.0,0.0,0.0,0.0,0.0,0.0,0.0,0.0,0.0,0.0,0.0,0.0,0.0,0.0,0.0,0.0,0.0,0.0,0.0,0.0,0.0,0.0,2.184,2.0825,2.0847,2.1956,1.9705,1.8589,0.0,0.0,0.0,0.0,0.0,0.0,0.0,0.0,0.0,0.0,0.0,0.0,0.0,0.0,0.0,0.0,0.0,0.0,0.0,0.0,0.0,0.0,0.0,0.0,0.0,0.0,0.0,0.0,0.0,0.0,0.0,0.0,0.0,0.0,0.0,0.0,0.0,0.0,0.0,0.0,0.0,0.0,0.0,0.0,0.0,0.0,0.0,0.0,0.0,0.0,0.0,0.0,0.0,0.0,0.0,0.0,0.0,0.0,0.0,0.0,0.0,0.0,0.0,0.0,0.0,0.0,0.0,0.0,0.0,0.0,0.0,0.0,0.0,0.0,0.0,0.0,0.0,0.0,0.0,0.0,0.0,0.0,0.0,0.0,0.0,0.0,0.0,0.0,0.0,0.0,0.0,0.0,0.0,0.0,0.0,0.0,0.0,0.0,0.0,0.0,0.0,0.0,0.0,0.0,0.0,0.0,0.0,0.0,0.0,1.9763,2.0165,2.0298,2.017,1.9831,1.9061,0.0,0.0,0.0,0.0,0.0,0.0,0.0,0.0,0.0,0.0,0.0,0.0,0.0,0.0,0.0,0.0,0.0,0.0,0.0,0.0,0.0,0.0,0.0,0.0,0.0,0.0,0.0,0.0,0.0,0.0,0.0,0.0,0.0,0.0,0.0,0.0,0.0,0.0,0.0,0.0,0.0,0.0,0.0,0.0,0.0,0.0,0.0,0.0,0.0,0.0,0.0,0.0,0.0,0.0,0.0,0.0,0.0,0.0,0.0,0.0,0.0,0.0,0.0,0.0,0.0,0.0,0.0,0.0,0.0,0.0,0.0,0.0,0.0,0.0,0.0,0.0,0.0,0.0,0.0,0.0,0.0,0.0,0.0,0.0,0.0,0.0,0.0,0.0,0.0,0.0,0.0,0.0,0.0,0.0,0.0,0.0,0.0,0.0,0.0,0.0,0.0,0.0,0.0,0.0,0.0,0.0,0.0,0.0,0.0,1.9189,0.0,2.0378,1.975,1.9862,1.9166,0.0,0.0,0.0,0.0,0.0,0.0,0.0,0.0,0.0,0.0,0.0,0.0,0.0,0.0,0.0,0.0,0.0,0.0,0.0,0.0,0.0,0.0,0.0,0.0,0.0,0.0,0.0,0.0,0.0,0.0,0.0,0.0,0.0,0.0,0.0,0.0,0.0,0.0,0.0,0.0,0.0,0.0,0.0,0.0,0.0,0.0,0.0,0.0,0.0,0.0,0.0,0.0,0.0,0.0,0.0,0.0,0.0,0.0,0.0,0.0,0.0,0.0,0.0,0.0,0.0,0.0,0.0,0.0,0.0,0.0,0.0,0.0,0.0,0.0,0.0,0.0,0.0,0.0,0.0,0.0,0.0,0.0,0.0,0.0,0.0,0.0,0.0,0.0,0.0,0.0,0.0,0.0,0.0,0.0,0.0,0.0,0.0,0.0,0.0,0.0,0.0,0.0,0.0,0.0,0.0,0.0,0.0,0.0,1.8981,2.0677,2.1121,2.1242,2.1069,1.975,1.8869,0.0,0.0,0.0,0.0,0.0,0.0,0.0,0.0,0.0,0.0,0.0,0.0,0.0,0.0,0.0,0.0,0.0,0.0,0.0,0.0,0.0,0.0,0.0,0.0,0.0,0.0,0.0,0.0,0.0,0.0,0.0,0.0,0.0,0.0,0.0,0.0,0.0,0.0,0.0,0.0,0.0,0.0,0.0,0.0,0.0,0.0,0.0,0.0,0.0,0.0,0.0,0.0,0.0,0.0,0.0,0.0,0.0,0.0,0.0,0.0,0.0,0.0,0.0,0.0,0.0,0.0,0.0,0.0,0.0,0.0,0.0,0.0,0.0,0.0,0.0,0.0,0.0,0.0,0.0,0.0,0.0,0.0,0.0,0.0,0.0,0.0,0.0,0.0,0.0,0.0,0.0,0.0,0.0,0.0,0.0,0.0,0.0,0.0,0.0,0.0,0.0,0.0,0.0,0.0,0.0,0.0,0.0,0.0,0.0,1.9778,2.0391,2.1101,2.1739,2.0016,1.8892,0.0,0.0,0.0,0.0,0.0,0.0,0.0,0.0,0.0,0.0,0.0,0.0,0.0,0.0,0.0,0.0,0.0,0.0,0.0,0.0,0.0,0.0,0.0,0.0,0.0,0.0,0.0,0.0,0.0,0.0,0.0,0.0,0.0,0.0,0.0,0.0,0.0,0.0,0.0,0.0,0.0,0.0,0.0,0.0,0.0,0.0,0.0,0.0,0.0,0.0,0.0,0.0,0.0,0.0,0.0,0.0,0.0,0.0,0.0,0.0,0.0,0.0,0.0,0.0,0.0,0.0,0.0,0.0,0.0,0.0,0.0,0.0,0.0,0.0,0.0,0.0,0.0,0.0,0.0,0.0,0.0,0.0,0.0,0.0,0.0,0.0,0.0,0.0,0.0,0.0,0.0,0.0,0.0,0.0,0.0,0.0,0.0,0.0,0.0,0.0,0.0,0.0,0.0,0.0,0.0,0.0,0.0,0.0,0.0,2.0669,2.0893,2.1279,2.1811,2.0525,1.9387,1.8469,0.0,0.0,0.0,0.0,0.0,0.0,0.0,0.0,0.0,0.0,0.0,0.0,0.0,0.0,0.0,0.0,0.0,0.0,0.0,0.0,0.0,0.0,0.0,0.0,0.0,0.0,0.0,0.0,0.0,0.0,0.0,0.0,0.0,0.0,0.0,0.0,0.0,0.0,0.0,0.0,0.0,0.0,0.0,0.0,0.0,0.0,0.0,0.0,0.0,0.0,0.0,0.0,0.0,0.0,0.0,0.0,0.0,0.0,0.0,0.0,0.0,0.0,0.0,0.0,0.0,0.0,0.0,0.0,0.0,0.0,0.0,0.0,0.0,0.0,0.0,0.0,0.0,0.0,0.0,0.0,0.0,0.0,0.0,0.0,0.0,0.0,0.0,0.0,0.0,0.0,0.0,0.0,0.0,0.0,0.0,0.0,0.0,0.0,0.0,0.0,0.0,0.0,0.0,0.0,0.0,0.0,0.0,0.0,2.3011,2.2534,2.2053,2.1521,2.1327,2.0246,0.0,0.0,0.0,0.0,0.0,0.0,0.0,0.0,0.0,0.0,0.0,0.0,0.0,0.0,0.0,0.0,0.0,0.0,0.0,0.0,0.0,0.0,0.0,0.0,0.0,0.0,0.0,0.0,0.0,0.0,0.0,0.0,0.0,0.0,0.0,0.0,0.0,0.0,0.0,0.0,0.0,0.0,0.0,0.0,0.0,0.0,0.0,0.0,0.0,0.0,0.0,0.0,0.0,0.0,0.0,0.0,0.0,0.0,0.0,0.0,0.0,0.0,0.0,0.0,0.0,0.0,0.0,0.0,0.0,0.0,0.0,0.0,0.0,0.0,0.0,0.0,0.0,0.0,0.0,0.0,0.0,0.0,0.0,0.0,0.0,0.0,0.0,0.0,0.0,0.0,0.0,0.0,0.0,0.0,0.0,0.0,0.0,0.0,0.0,0.0,0.0,0.0,0.0,0.0,0.0,0.0,0.0,0.0,0.0,2.4548,2.4662,2.4563,2.4291,2.2685,2.1195,0.0,0.0,0.0,0.0,0.0,0.0,0.0,0.0,0.0,0.0,0.0,0.0,0.0,0.0,0.0,0.0,0.0,0.0,0.0,0.0,0.0,0.0,0.0,0.0,0.0,0.0,0.0,0.0,0.0,0.0,0.0,0.0,0.0,0.0,0.0,0.0,0.0,0.0,0.0,0.0,0.0,0.0,0.0,0.0,0.0,0.0,0.0,0.0,0.0,0.0,0.0,0.0,0.0,0.0,0.0,0.0,0.0,0.0,0.0,0.0,0.0,0.0,0.0,0.0,0.0,0.0,0.0,0.0,0.0,0.0,0.0,0.0,0.0,0.0,0.0,0.0,0.0,0.0,0.0,0.0,0.0,0.0,0.0,0.0,0.0,0.0,0.0,0.0,0.0,0.0,0.0,0.0,0.0,0.0,0.0,0.0,0.0,0.0,0.0,0.0,0.0,0.0,0.0,0.0,0.0,0.0,0.0,0.0,2.407,2.5521,2.6141,2.6361,2.612,2.4496,2.248,0.0,0.0,0.0,0.0,0.0,0.0,0.0,0.0,0.0,0.0,0.0,0.0,0.0,0.0,0.0,0.0,0.0,0.0,0.0,0.0,0.0,0.0,0.0,0.0,0.0,0.0,0.0,0.0,0.0,0.0,0.0,0.0,0.0,0.0,0.0,0.0,0.0,0.0,0.0,0.0,0.0,0.0,0.0,0.0,0.0,0.0,0.0,0.0,0.0,0.0,0.0,0.0,0.0,0.0,0.0,0.0,0.0,0.0,0.0,0.0,0.0,0.0,0.0,0.0,0.0,0.0,0.0,0.0,0.0,0.0,0.0,0.0,0.0,0.0,0.0,0.0,0.0,0.0,0.0,0.0,0.0,0.0,0.0,0.0,0.0,0.0,0.0,0.0,0.0,0.0,0.0,0.0,0.0,0.0,0.0,0.0,0.0,0.0,0.0,0.0,0.0,0.0,0.0,0.0,0.0,0.0,0.0,0.0,2.4565,2.6268,2.7234,2.7555,2.7265,2.6324,2.3903,0.0,0.0,0.0,0.0,0.0,0.0,0.0,0.0,0.0,0.0,0.0,0.0,0.0,0.0,0.0,0.0,0.0,0.0,0.0,0.0,0.0,0.0,0.0,0.0,0.0,0.0,0.0,0.0,0.0,0.0,0.0,0.0,0.0,0.0,0.0,0.0,0.0,0.0,0.0,0.0,0.0,0.0,0.0,0.0,0.0,0.0,0.0,0.0,0.0,0.0,0.0,0.0,0.0,0.0,0.0,0.0,0.0,0.0,0.0,0.0,0.0,0.0,0.0,0.0,0.0,0.0,0.0,0.0,0.0,0.0,0.0,0.0,0.0,0.0,0.0,0.0,0.0,0.0,0.0,0.0,0.0,0.0,0.0,0.0,0.0,0.0,0.0,0.0,0.0,0.0,0.0,0.0,0.0,0.0,0.0,0.0,0.0,0.0,0.0,0.0,0.0,0.0,0.0,0.0,0.0,0.0,0.0,0.0,2.5711,2.8199,2.8281,2.8351,2.8511,2.6789,2.4595,0.0,0.0,0.0,0.0,0.0,0.0,0.0,0.0,0.0,0.0,0.0,0.0,0.0,0.0,0.0,0.0,0.0,0.0,0.0,0.0,0.0,0.0,0.0,0.0,0.0,0.0,0.0,0.0,0.0,0.0,0.0,0.0,0.0,0.0,0.0,0.0,0.0,0.0,0.0,0.0,0.0,0.0,0.0,0.0,0.0,0.0,0.0,0.0,1.5549,0.0,0.0,0.0,0.0,0.0,0.0,0.0,0.0,0.0,0.0,0.0,0.0,0.0,0.0,0.0,0.0,0.0,0.0,0.0,0.0,0.0,0.0,0.0,0.0,0.0,0.0,0.0,0.0,0.0,0.0,0.0,0.0,0.0,0.0,0.0,0.0,0.0,0.0,0.0,0.0,0.0,0.0,0.0,0.0,0.0,0.0,0.0,0.0,0.0,0.0,0.0,0.0,0.0,0.0,0.0,0.0,0.0,0.0,0.0,2.6365,2.8564,2.8557,2.8599,2.8742,2.7278,2.5274,0.0,0.0,0.0,0.0,0.0,0.0,0.0,0.0,0.0,0.0,0.0,0.0,0.0,0.0,0.0,0.0,0.0,0.0,0.0,0.0,0.0,0.0,0.0,0.0,0.0,0.0,0.0,0.0,0.0,0.0,0.0,0.0,0.0,0.0,0.0,0.0,0.0,0.0,0.0,0.0,0.0,0.0,0.0,0.0,0.0,0.0,0.0,0.0,0.0,0.0,0.0,0.0,0.0,0.0,0.0,0.0,0.0,0.0,0.0,0.0,0.0,0.0,0.0,0.0,0.0,0.0,0.0,0.0,0.0,0.0,0.0,0.0,0.0,0.0,0.0,0.0,0.0,0.0,0.0,0.0,0.0,0.0,0.0,0.0,0.0,0.0,0.0,0.0,0.0,0.0,0.0,0.0,0.0,0.0,0.0,0.0,0.0,0.0,0.0,0.0,0.0,0.0,0.0,0.0,0.0,0.0,0.0,2.5242,2.6796,2.8655,2.8655,2.8723,2.8876,2.7867,2.5953,2.3192,0.0,0.0,0.0,0.0,0.0,0.0,0.0,0.0,0.0,0.0,0.0,0.0,0.0,0.0,0.0,0.0,0.0,0.0,0.0,0.0,0.0,0.0,0.0,0.0,0.0,0.0,0.0,0.0,0.0,0.0,0.0,0.0,0.0,0.0,0.0,0.0,0.0,0.0,1.3823,1.5284,0.0,0.0,0.0,0.0,0.0,0.0,0.0,0.0,1.6753,0.0,0.0,0.0,0.0,0.0,0.0,0.0,0.0,0.0,0.0,0.0,0.0,0.0,0.0,0.0,0.0,0.0,0.0,0.0,0.0,0.0,0.0,0.0,0.0,0.0,0.0,0.0,0.0,0.0,0.0,0.0,0.0,0.0,0.0,0.0,0.0,0.0,0.0,0.0,0.0,0.0,0.0,0.0,0.0,0.0,0.0,0.0,0.0,0.0,0.0,0.0,0.0,0.0,0.0,0.0,0.0,2.4373,2.53,2.7176,3.0103,2.9484,2.9355,2.9829,2.8794,2.6828,2.3915,0.0,0.0,0.0,0.0,0.0,0.0,0.0,0.0,0.0,0.0,0.0,0.0,0.0,0.0,0.0,0.0,0.0,0.0,0.0,0.0,0.0,0.0,0.0,0.0,0.0,0.0,0.0,0.0,0.0,0.0,0.0,0.0,0.0,0.0,0.0,0.0,0.0,0.0,0.0,1.7132,1.7994,0.0,0.0,0.0,0.0,0.0,0.0,0.0,0.0,1.5932,0.0,0.0,0.0,0.0,0.0,0.0,0.0,0.0,0.0,0.0,0.0,0.0,0.0,0.0,0.0,0.0,0.0,0.0,0.0,0.0,0.0,0.0,0.0,0.0,0.0,0.0,0.0,0.0,0.0,0.0,0.0,0.0,0.0,0.0,0.0,0.0,0.0,0.0,0.0,0.0,0.0,0.0,0.0,0.0,0.0,0.0,0.0,0.0,0.0,0.0,0.0,0.0,0.0,0.0,0.0,2.4141,2.584,2.7655,2.9721,2.9485,2.9382,2.9442,2.8072,2.6162,0.0,0.0,0.0,0.0,0.0,0.0,0.0,0.0,0.0,0.0,0.0,0.0,0.0,0.0,0.0,0.0,0.0,0.0,0.0,0.0,0.0,0.0,0.0,0.0,0.0,0.0,0.0,0.0,0.0,0.0,0.0,0.0,0.0,0.0,0.0,0.0,0.0,0.0,0.0,0.0,1.8097,1.8785,1.9243,0.0,0.0,0.0,0.0,0.0,0.0,1.808,1.767,0.0,0.0,0.0,0.0,0.0,0.0,0.0,0.0,0.0,0.0,0.0,0.0,0.0,0.0,0.0,0.0,0.0,0.0,0.0,0.0,0.0,0.0,0.0,0.0,0.0,0.0,0.0,0.0,0.0,0.0,0.0,0.0,0.0,0.0,0.0,0.0,0.0,0.0,0.0,0.0,0.0,0.0,0.0,0.0,0.0,0.0,0.0,0.0,0.0,0.0,0.0,0.0,0.0,0.0,0.0,2.3926,2.6217,2.7926,2.9023,2.9226,2.9205,2.893,2.7462,2.5657,0.0,0.0,0.0,0.0,0.0,0.0,0.0,0.0,0.0,0.0,0.0,0.0,0.0,0.0,0.0,0.0,0.0,0.0,0.0,0.0,0.0,0.0,0.0,0.0,0.0,0.0,0.0,0.0,0.0,0.0,0.0,0.0,0.0,0.0,0.0,0.0,0.0,0.0,0.0,0.0,0.0,1.9409,1.964,2.0136,0.0,0.0,0.0,0.0,1.9673,1.9856,0.0,0.0,0.0,0.0,0.0,0.0,0.0,0.0,0.0,0.0,0.0,0.0,0.0,0.0,0.0,0.0,0.0,0.0,0.0,0.0,0.0,0.0,0.0,0.0,0.0,0.0,0.0,0.0,0.0,0.0,0.0,0.0,0.0,0.0,0.0,0.0,0.0,0.0,0.0,0.0,0.0,0.0,0.0,0.0,0.0,0.0,0.0,0.0,0.0,0.0,0.0,0.0,0.0,0.0,0.0,0.0,2.3695,2.5934,2.7658,2.8846,2.9028,2.9071,2.9058,2.8349,2.657,0.0,0.0,0.0,0.0,0.0,0.0,0.0,0.0,0.0,0.0,0.0,0.0,0.0,0.0,0.0,0.0,0.0,0.0,0.0,0.0,0.0,0.0,0.0,0.0,0.0,0.0,0.0,0.0,0.0,0.0,0.0,0.0,0.0,0.0,0.0,0.0,0.0,0.0,0.0,0.0,0.0,1.9964,2.0554,2.0758,2.082,0.0,0.0,2.0289,2.1125,2.0847,0.0,0.0,0.0,0.0,0.0,0.0,0.0,0.0,0.0,0.0,0.0,0.0,0.0,0.0,0.0,0.0,0.0,0.0,0.0,0.0,0.0,0.0,0.0,0.0,0.0,0.0,0.0,0.0,0.0,0.0,0.0,0.0,0.0,0.0,0.0,0.0,0.0,0.0,0.0,0.0,0.0,0.0,0.0,0.0,0.0,0.0,0.0,0.0,0.0,0.0,0.0,0.0,0.0,0.0,0.0,2.1614,2.3334,2.6002,2.7837,2.8695,2.897,2.9125,2.9114,2.7821,2.5938,0.0,0.0,0.0,0.0,0.0,0.0,0.0,0.0,0.0,0.0,0.0,0.0,0.0,0.0,0.0,0.0,0.0,0.0,0.0,0.0,0.0,0.0,0.0,0.0,0.0,0.0,0.0,0.0,0.0,0.0,0.0,0.0,0.0,0.0,0.0,0.0,0.0,0.0,0.0,0.0,0.0,0.0,2.076,2.1429,0.0,0.0,0.0,2.1657,2.1779,0.0,0.0,0.0,0.0,0.0,0.0,0.0,0.0,0.0,0.0,0.0,0.0,0.0,0.0,0.0,0.0,0.0,0.0,0.0,0.0,0.0,0.0,0.0,0.0,0.0,0.0,0.0,0.0,0.0,0.0,0.0,0.0,0.0,0.0,0.0,0.0,0.0,0.0,0.0,0.0,0.0,0.0,0.0,0.0,0.0,0.0,0.0,0.0,0.0,0.0,0.0,0.0,0.0,0.0,0.0,0.0,0.0,2.2964,2.6115,2.8001,2.8391,2.8771,2.899,2.8905,2.7279,0.0,0.0,0.0,0.0,0.0,0.0,0.0,0.0,0.0,0.0,0.0,0.0,0.0,0.0,0.0,0.0,0.0,0.0,0.0,0.0,0.0,0.0,0.0,0.0,0.0,0.0,0.0,1.38,0.0,0.0,0.0,0.0,0.0,0.0,0.0,0.0,0.0,0.0,0.0,0.0,0.0,0.0,2.1528,2.1114,2.2397,2.2997,0.0,0.0,2.3215,2.2658,2.2716,2.252,0.0,0.0,0.0,0.0,0.0,0.0,0.0,0.0,0.0,0.0,0.0,0.0,0.0,0.0,0.0,0.0,0.0,0.0,0.0,0.0,0.0,0.0,0.0,0.0,0.0,0.0,0.0,0.0,0.0,0.0,0.0,0.0,0.0,0.0,0.0,0.0,0.0,0.0,0.0,0.0,0.0,0.0,0.0,0.0,0.0,0.0,0.0,0.0,0.0,0.0,0.0,0.0,0.0,0.0,2.2431,2.2804,2.6214,2.7991,2.7954,2.8191,2.8414,2.8491,2.7264,2.5956,0.0,0.0,0.0,0.0,0.0,0.0,0.0,0.0,0.0,0.0,0.0,0.0,0.0,0.0,0.0,0.0,0.0,0.0,0.0,0.0,0.0,0.0,0.0,0.0,0.0,0.0,0.0,0.0,0.0,0.0,0.0,0.0,0.0,0.0,0.0,0.0,0.0,0.0,0.0,0.0,0.0,2.1917,2.2076,2.3814,2.5036,0.0,0.0,2.4642,2.4203,2.4396,2.4096,2.2575,0.0,0.0,0.0,0.0,0.0,0.0,0.0,0.0,0.0,0.0,0.0,0.0,0.0,0.0,0.0,0.0,0.0,0.0,0.0,0.0,0.0,0.0,0.0,0.0,0.0,0.0,0.0,0.0,0.0,0.0,0.0,0.0,0.0,0.0,0.0,0.0,0.0,0.0,0.0,0.0,0.0,0.0,0.0,0.0,0.0,0.0,0.0,0.0,0.0,0.0,0.0,0.0,0.0,2.2476,2.2923,2.6396,2.8276,2.8447,2.8637,2.8799,2.8931,2.8039,2.6758,0.0,0.0,0.0,0.0,0.0,0.0,0.0,0.0,0.0,0.0,0.0,0.0,0.0,0.0,0.0,0.0,0.0,0.0,0.0,0.0,0.0,0.0,0.0,0.0,0.0,0.0,0.0,0.0,1.5931,1.6285,1.6998,0.0,0.0,0.0,0.0,0.0,0.0,0.0,0.0,0.0,0.0,2.3091,2.3325,2.4078,0.0,0.0,2.4566,2.4383,2.406,2.3672,2.3275,2.2894,2.2545,0.0,0.0,0.0,0.0,0.0,0.0,0.0,0.0,0.0,0.0,0.0,0.0,0.0,0.0,0.0,0.0,0.0,0.0,0.0,0.0,0.0,0.0,0.0,0.0,0.0,0.0,0.0,0.0,0.0,0.0,0.0,0.0,0.0,0.0,0.0,0.0,0.0,0.0,0.0,0.0,0.0,0.0,0.0,0.0,0.0,0.0,0.0,0.0,0.0,0.0,0.0,0.0,2.2413,2.301,2.6342,2.8254,2.8615,2.8697,2.8912,2.9194,2.8467,2.7356,0.0,0.0,0.0,0.0,0.0,0.0,0.0,0.0,0.0,0.0,0.0,0.0,0.0,0.0,0.0,0.0,0.0,0.0,0.0,0.0,0.0,0.0,0.0,0.0,0.0,0.0,0.0,0.0,1.6808,1.6997,1.7478,0.0,0.0,0.0,0.0,0.0,0.0,0.0,0.0,0.0,0.0,2.3928,2.4165,2.4397,2.4713,2.5179,2.4877,2.457,2.4588,2.3745,2.3206,2.3528,0.0,0.0,0.0,0.0,0.0,0.0,0.0,0.0,0.0,0.0,0.0,0.0,0.0,0.0,0.0,0.0,0.0,0.0,0.0,0.0,0.0,0.0,0.0,0.0,0.0,0.0,0.0,1.3761,0.0,0.0,1.3605,0.0,0.0,0.0,0.0,0.0,0.0,0.0,0.0,0.0,0.0,0.0,0.0,0.0,0.0,0.0,0.0,0.0,0.0,0.0,0.0,0.0,0.0,2.2277,2.3036,2.6022,2.7789,2.832,2.8197,2.8512,2.9231,2.8207,2.765,2.7659,0.0,0.0,0.0,0.0,0.0,0.0,0.0,0.0,0.0,0.0,0.0,0.0,0.0,0.0,0.0,0.0,0.0,0.0,0.0,0.0,0.0,0.0,0.0,0.0,0.0,0.0,1.7134,1.7039,1.7255,0.0,0.0,0.0,0.0,0.0,0.0,0.0,0.0,0.0,0.0,2.3724,2.4264,2.4482,2.5098,2.5896,2.6906,2.6024,2.548,2.6235,2.529,2.4513,0.0,0.0,0.0,0.0,0.0,0.0,0.0,0.0,0.0,0.0,0.0,0.0,0.0,0.0,0.0,0.0,0.0,0.0,0.0,0.0,0.0,0.0,0.0,0.0,0.0,0.0,0.0,1.5812,1.5447,0.0,0.0,0.0,0.0,0.0,0.0,0.0,0.0,0.0,0.0,0.0,2.4055,2.5168,0.0,0.0,0.0,0.0,0.0,0.0,0.0,0.0,0.0,0.0,0.0,0.0,2.2257,2.3398,2.6077,2.7729,2.8287,2.8356,2.8619,2.8961,2.8479,2.7698,2.663,0.0,0.0,0.0,0.0,0.0,0.0,0.0,0.0,0.0,0.0,0.0,0.0,0.0,0.0,0.0,0.0,0.0,0.0,0.0,0.0,0.0,0.0,0.0,0.0,0.0,1.8443,0.0,0.0,0.0,0.0,0.0,0.0,0.0,0.0,0.0,0.0,0.0,2.3323,2.3893,2.4529,2.5002,2.519,2.5785,2.6193,0.0,0.0,0.0,0.0,0.0,0.0,0.0,0.0,0.0,0.0,0.0,0.0,0.0,0.0,2.4434,2.2632,2.2107,2.1931,2.1873,0.0,0.0,0.0,0.0,0.0,0.0,0.0,0.0,0.0,0.0,0.0,0.0,0.0,0.0,1.8152,0.0,1.7226,0.0,0.0,0.0,0.0,0.0,0.0,0.0,0.0,2.317,2.5021,2.595,2.6989,2.7388,0.0,2.6733,2.5361,0.0,0.0,0.0,0.0,0.0,0.0,0.0,0.0,2.3107,2.4464,2.6336,2.7728,2.8478,2.8487,2.8607,2.8879,2.8684,2.793,2.6708,2.5412,2.4634,0.0,0.0,0.0,0.0,0.0,0.0,0.0,0.0,0.0,0.0,0.0,0.0,0.0,0.0,0.0,0.0,0.0,0.0,0.0,0.0,0.0,0.0,0.0,2.0261,0.0,0.0,0.0,0.0,0.0,0.0,0.0,0.0,0.0,2.2267,2.3337,2.4319,2.4728,2.4937,2.5238,2.567,0.0,0.0,0.0,0.0,0.0,0.0,0.0,2.5677,2.5273,2.5658,2.5997,2.5872,2.6563,2.7088,2.6958,0.0,0.0,2.4666,2.4136,2.3929,2.3867,2.3846,2.386,2.3825,2.4496,2.4974,0.0,0.0,0.0,0.0,0.0,0.0,0.0,0.0,2.0259,2.0802,0.0,1.976,0.0,0.0,0.0,0.0,1.8287,1.9907,0.0,0.0,2.5159,2.6663,2.687,2.7344,2.7676,2.7894,2.8333,2.8127,2.7243,2.3879,0.0,0.0,0.0,0.0,0.0,0.0,2.4747,2.6114,2.678,2.7686,2.8803,2.8531,2.86,2.9026,2.8766,2.8397,2.7865,2.644,2.5334,2.4586,2.2061,0.0,0.0,0.0,0.0,0.0,0.0,0.0,0.0,0.0,0.0,0.0,0.0,0.0,0.0,0.0,0.0,0.0,0.0,0.0,0.0,2.2279,0.0,0.0,0.0,0.0,0.0,0.0,0.0,0.0,0.0,0.0,2.4492,2.441,2.4656,2.5422,0.0,0.0,0.0,0.0,2.6766,2.8083,2.7881,2.7772,2.8383,2.7901,2.7492,2.7607,0.0,0.0,2.733,2.7792,2.797,2.7354,2.7698,2.7841,2.6826,2.6214,2.5886,2.5836,2.5847,2.5925,2.5962,2.637,2.666,2.6556,0.0,0.0,0.0,0.0,2.2812,2.3169,2.3232,2.3516,2.3596,2.3456,2.2532,0.0,0.0,0.0,0.0,0.0,0.0,2.2338,2.3773,2.5275,2.665,2.7943,2.8634,2.8944,2.8945,2.8885,2.8738,2.8424,2.6904,2.5349,2.3814,0.0,0.0,0.0,0.0,2.5011,2.6197,2.7529,2.8298,2.8541,2.8958,2.904,2.883,2.8836,2.8511,2.7727,2.7335,2.6766,2.5861,2.3896,0.0,0.0,0.0,0.0,0.0,0.0,0.0,0.0,0.0,0.0,0.0,0.0,0.0,0.0,0.0,0.0,0.0,0.0,0.0,2.2646,2.3155,2.3141,0.0,0.0,0.0,0.0,0.0,0.0,0.0,0.0,0.0,2.5975,2.5735,2.5715,0.0,0.0,2.5935,2.6221,2.6842,2.7243,2.7193,2.7632,0.0,2.7625,2.756,2.7495,2.7506,2.7912,2.8404,2.8981,2.8807,2.8425,2.7886,2.7492,2.7188,2.6972,2.7344,2.7621,2.7544,2.7199,2.6885,2.6796,2.658,2.6298,2.9423,2.732,2.6104,2.5332,2.5047,2.5488,2.5849,2.6104,2.6202,2.6191,2.6104,2.5007,2.4162,2.3604,2.2757,0.0,0.0,0.0,2.4011,2.5227,2.607,2.7177,2.8377,2.8846,2.9259,2.96,2.9414,2.9329,2.9244,2.8686,2.7774,2.6541,0.0,0.0,2.493,2.5531,2.6332,2.7251,2.8124,2.8723,2.9082,2.9197,2.9045,2.8665,2.8605,2.8416,2.8082,2.7874,2.7442,2.6733,2.5417,2.4606,0.0,0.0,0.0,0.0,0.0,0.0,0.0,0.0,0.0,0.0,0.0,2.0732,2.1068,0.0,0.0,0.0,2.2686,2.3429,2.4067,2.4491,0.0,0.0,0.0,0.0,0.0,0.0,0.0,2.5452,2.6309,2.6942,2.6961,2.6826,2.6684,2.6566,2.6313,2.6275,2.6665,0.0,2.7511,2.7395,2.7927,2.8234,2.7838,2.7929,2.8092,2.8136,2.8477,2.8904,2.9553,2.9317,2.8995,2.8628,2.8289,2.7985,2.8017,2.86,2.8847,2.8241,2.7852,2.7476,2.7123,2.6677,2.6282,3.1623,3.1228,2.9407,2.834,2.7924,2.7924,2.8225,2.8753,2.8325,2.8522,2.8946,2.7162,2.6694,2.7189,2.5224,0.0,2.5214,2.5437,2.6027,2.6791,2.7416,2.7984,2.8455,2.8502,2.9017,2.9919,2.9965,2.9965,2.9839,2.9572,2.9376,2.92,2.8307,2.7772,2.7606,2.7841,2.8276,2.89,2.8672,2.905,3.009,2.9267,2.8766,2.8671,2.8211,2.8201,2.8665,2.8111,2.7603,2.7189,2.6592,2.5853,2.4949,0.0,0.0,0.0,0.0,0.0,0.0,0.0,0.0,0.0,0.0,0.0,0.0,0.0,0.0,0.0,2.4931,0.0,2.6016,2.5986,0.0,0.0,0.0,2.5528,2.4965,2.5848,2.6545,2.6789,0.0,0.0,2.759,2.7585,2.7425,2.6922,2.6391,2.6327,2.713,2.7316,2.7595,2.8179,2.8477,2.8621,2.8584,2.8748,2.891,2.9094,2.9289,2.9312,2.9457,2.9457,2.9457,2.9288,2.9473,2.9498,2.9585,2.9599,2.9523,2.8376,2.8154,2.7859,2.7185,2.6924,2.6629,3.309,3.2427,3.1894,3.0898,2.9609,2.959,2.9528,2.9407,2.9623,2.9518,2.9237,2.8767,2.8501,2.836,2.7557,2.7378,2.7703,2.78,2.8022,2.8446,2.8403,2.8621,2.918,2.9354,2.9715,3.0149,3.0676,3.0783,3.0445,3.0514,3.0279,2.9679,2.9763,2.9378,2.8563,2.9057,2.9222,2.9051,2.9466,2.9985,3.0514,2.8917,2.8471,2.9247,2.8729,2.8293,2.7985,2.826,2.7967,2.711,2.6902,2.6815,2.6841,2.4993,0.0,0.0,0.0,0.0,0.0,0.0,0.0,0.0,0.0,2.4619,2.4403,0.0,2.5955,0.0,2.581,2.575,2.5871,2.5894,0.0,0.0,2.6201,2.6342,2.6569,2.6815,2.6971,2.6949,2.7221,2.7412,2.7437,2.7539,2.758,2.7425,2.7275,2.724,2.7494,2.7697,2.7881,2.8057,2.8314,2.8501,2.8692,2.8897,2.9091,2.9129,2.9129,2.9206,2.9344,2.9275,2.9071,2.8621,2.8516,2.8582,2.8724,2.8823,2.9114,2.9307,2.9067,2.8502,2.7672,2.712,2.6536,3.3672,3.3047,3.2676,3.1776,3.0607,3.0723,3.0644,3.0449,3.0488,3.0194,2.9715,2.9628,2.9345,2.8926,2.8838,2.8696,2.8649,2.8835,2.8865,2.8828,2.8885,2.9015,2.9225,2.9353,2.959,2.9882,3.0537,3.067,3.0435,3.0717,3.0698,3.0463,3.072,3.0534,2.9934,3.0233,3.0144,2.9618,2.9918,3.0114,3.0134,2.921,2.883,2.91,2.8899,2.8487,2.7985,2.8157,2.8052,2.7504,2.7342,2.7413,2.7708,2.6533,2.6225,0.0,0.0,0.0,0.0,0.0,0.0,0.0,0.0,0.0,0.0,0.0,2.6879,2.6931,2.676,2.6747,2.7018,2.7149,2.7323,2.7499,2.7266,2.7185,2.7486,2.7228,2.7055,2.7078,2.7207,2.731,2.7386,2.7539,2.7585,2.7585,2.7585,2.7585,2.7585,2.774,2.784,2.792,2.8039,2.821,2.8422,2.8708,2.8928,2.892,2.9045,2.9137,2.9206,2.9129,2.8979,2.8677,2.8649,2.8694,2.8717,2.8916,2.9253,2.9532,2.9567,2.9113,2.8357,2.7883,2.7429,3.3906,3.3437,3.2656,3.1988,3.1378,3.1521,3.1425,3.1132,3.082,3.047,3.0119,3.0049,2.9749,2.9313,2.9525,2.932,2.8918,2.929,2.927,2.8918,2.9228,2.9289,2.9115,2.9166,2.9282,2.958,3.0139,3.0295,3.0195,3.0526,3.081,3.109,3.1172,3.1212,3.121,3.1238,3.0943,3.0428,3.0273,3.0012,2.9678,2.9748,2.9496,2.8881,2.8955,2.8805,2.849,2.827,2.8134,2.8102,2.7963,2.787,2.7995,2.8109,2.8025,0.0,2.765,0.0,0.0,0.0,0.0,0.0,0.0,0.0,0.0,2.7454,2.7594,2.77,2.77,2.7959,2.8565,2.8736,2.8821,2.8708,2.8269,2.7971,2.7883,2.7336,2.6957,2.7104,2.7155,2.7233,2.7335,2.7488,2.756,2.7585,2.7585,2.7585,2.7585,2.7585,2.7665,2.7765,2.7815,2.7965,2.8162,2.8453,2.8661,2.8685,2.8858,2.9045,2.899,2.9045,2.9013,2.9036,2.9074,2.912,2.9091,2.9335,2.957,2.9493,2.9649,2.9545,2.8919,2.8692,2.853,3.4336,3.3906,3.3398,3.3082,3.2883,3.2344,3.0994,2.926,2.9411,2.964,2.9872,3.006,3.0142,3.0163,3.0273,3.0316,3.0305,3.0387,3.0367,3.0284,2.9994,2.9881,2.985,3.0036,3.02,3.0248,3.1019,3.0958,3.0224,3.0685,3.0663,3.0171,3.0534,3.0935,3.1284,0.0,0.0,0.0,3.0907,3.0696,3.0609,3.0097,2.9751,2.959,2.9469,0.0,2.9283,2.9384,2.908,2.833,2.886,0.0,0.0,0.0,0.0,0.0,0.0,0.0,0.0,0.0,0.0,0.0,2.8827,2.834,2.7678,2.7985,2.8247,2.8254,2.8139,2.8225,2.8567,2.8624,2.8652,2.8735,2.8619,2.8301,2.7971,2.7688,2.7345,2.6931,2.6977,2.7107,2.7233,2.7361,2.7488,2.759,2.7585,2.7585,2.7585,2.7585,2.7615,2.7635,2.7876,2.797,2.8044,2.8321,2.8552,2.8508,2.8573,2.8692,2.8716,2.8692,2.874,2.8811,2.8787,2.8811,2.8897,2.9082,2.9275,2.9344,2.9457,2.9422,2.8909,2.879,2.8563,3.4668,3.4043,3.3594,3.3058,0.0,3.2049,3.0935,2.9393,2.9814,3.0122,3.0316,3.0489,3.0636,3.0685,3.0173,3.0025,3.0093,2.9452,2.9318,2.9574,2.9381,2.9454,2.9837,3.0078,3.013,3.0076,3.0619,3.0558,3.0035,3.0308,3.0446,3.0388,3.0377,3.0784,3.1494,3.1813,3.189,3.1647,3.1245,3.109,3.124,3.0688,3.0252,3.0045,2.9798,0.0,0.0,0.0,0.0,0.0,0.0,0.0,0.0,2.928,0.0,2.9198,2.9268,2.947,2.9778,2.9693,2.9868,3.0284,2.9997,2.9375,2.8469,2.8697,2.8937,2.899,2.9021,2.911,2.9288,2.9317,2.9434,2.9639,2.9291,2.8885,2.8623,2.8072,2.7552,2.7207,2.7076,2.7055,2.7181,2.731,2.7437,2.759,2.7585,2.7585,2.7585,2.7585,2.7705,2.8034,2.8247,2.85,2.8776,2.8991,2.8986,2.8797,2.8824,2.8817,2.8604,2.8597,2.8621,2.8771,2.8747,2.8716,2.8763,2.8951,2.9082,2.9129,2.9321,2.9438,2.9209,2.9178,2.92,3.4844,3.4141,3.3633,3.282,3.1957,3.1793,3.1186,3.0407,3.0703,0.0,0.0,3.0859,3.0933,3.097,3.0127,2.9753,2.9774,2.8677,2.8413,2.883,2.8834,2.9112,2.9606,2.9889,2.9891,2.9764,2.9998,3.0005,2.9719,2.9816,3.0112,3.0533,3.0351,3.0698,3.1642,3.1824,3.1913,3.1925,3.1521,3.1456,3.1726,3.1312,3.0925,3.056,3.0225,2.9822,2.9409,2.9496,2.9572,2.9609,2.9901,2.9954,2.9767,2.9989,3.0069,2.9927,3.0111,3.0338,3.0559,3.0753,3.0877,3.0904,3.0802,3.0281,2.9297,2.9347,2.9477,2.9554,2.9682,2.9806,2.9988,3.005,3.0144,3.0417,2.9925,2.952,2.9348,2.8654,2.8071,2.7786,2.7569,2.7401,2.7469,2.7543,2.7582,2.7564,2.7585,2.7585,2.7585,2.7585,2.7764,2.8214,2.8321,2.8673,2.9105,2.9392,2.9403,2.8732,2.9032,2.9173,2.8651,2.8594,2.8697,2.87,2.8723,2.87,2.8645,2.8834,2.9021,2.8897,2.9183,2.9434,2.9457,2.9547,2.9649,3.4726,3.4551,3.375,3.3277,3.314,3.2793,3.2322,3.1813,3.0896,3.0316,3.0007,3.0606,3.0798,3.067,3.0928,3.098,3.0898,3.0665,3.0444,3.0233,3.0012,2.9827,2.9606,2.9889,3.0026,3.0016,3.0255,3.0071,2.9537,2.9704,2.9654,2.9471,2.9954,3.0788,3.162,3.1511,3.1581,3.1972,3.216,3.2105,3.1888,3.1955,3.1861,3.1508,3.1187,3.0971,3.0894,3.0622,3.0344,3.0059,3.0698,3.0623,2.9663,3.0688,3.1043,3.0385,3.0512,3.094,3.1604,3.1066,3.0833,3.0975,3.1116,3.0739,2.9734,2.963,2.96,2.9453,2.9488,2.9495,2.9648,2.9803,2.9898,2.9931,3.0088,2.9981,2.9491,2.9493,2.9258,2.8704,2.8754,2.8567,2.8284,2.8248,2.8118,2.7769,2.7735,2.7645,2.7705,2.7585,2.7615,2.7705,2.776,2.779,2.8244,2.8453,2.8625,2.7875,2.8966,2.9312,2.8329,2.8625,2.8922,2.8583,2.8515,2.8508,2.8549,2.8723,2.8818,2.8811,2.9021,2.9206,2.9321,2.9434,2.9602,3.5137,3.4687,3.4277,3.3848,3.3398,3.3203,3.2891,3.248,3.1968,3.1345,3.0801,3.1093,3.121,3.1179,3.0636,3.0512,3.0741,2.9818,2.9475,2.9639,2.959,2.9553,2.9514,2.9888,2.9978,2.9837,2.9932,2.9977,2.9806,2.982,2.9878,3.0071,3.0603,3.1072,3.146,3.1341,3.149,3.1805,3.2069,3.2234,3.235,3.2137,3.2031,3.1962,3.1635,3.1377,3.1214,3.1177,3.0981,3.057,3.1029,3.0998,3.0377,3.1045,3.1241,3.0755,3.0913,3.1266,3.168,3.1585,3.1532,3.1631,3.1739,3.1431,3.063,3.0351,3.0251,3.0336,3.0062,2.9963,3.0189,2.9973,2.987,3.0054,3.0144,3.0088,2.9832,2.9666,2.9465,2.9088,2.8996,2.8925,2.8796,2.8874,2.8893,2.8667,2.8423,2.8274,2.8603,2.8364,2.8154,2.8128,2.8128,2.8457,2.8966,2.9112,2.9172,2.9116,2.9439,2.9489,2.891,2.9147,2.8997,2.8872,2.8639,2.8442,2.8484,2.8604,2.87,2.8794,2.8881,2.9013,2.9183,2.9321,2.948,3.541,3.4707,3.459,3.4121,3.3437,3.3418,3.3242,3.2949,3.293,3.2519,3.1855,3.1699,3.1722,3.1714,3.0636,3.0356,3.0458,2.929,2.8894,2.9199,2.9329,2.942,2.9575,2.9985,3.0064,2.9749,2.9735,2.9824,3.0003,2.9864,3.0162,3.0843,3.1048,3.1259,3.1576,3.1368,3.1479,3.1776,3.1878,3.2113,3.2525,3.2172,3.2077,3.2281,3.1987,3.1711,3.1439,3.1549,3.1487,3.1201,3.131,3.1386,3.1327,3.1254,3.1213,3.1194,3.1202,3.1272,3.1485,3.1853,3.2073,3.2073,3.2146,3.2028,3.1567,3.1148,3.098,3.1071,3.0632,3.049,3.0648,3.0378,3.0133,3.0233,3.0203,3.0113,3.0054,2.9834,2.9636,2.9461,2.9435,2.9456,2.9446,2.9527,2.9548,2.9448,2.9116,2.9086,2.9415,2.9116,2.8846,2.8786,2.8727,2.8876,2.9894,2.9624,2.9505,3.0043,2.9924,2.9678,2.9519,2.932,2.936,2.9337,2.8939,2.8676,2.8602,2.857,2.8745,2.8965,2.9147,2.9313,2.9698,2.961,2.9571,3.5176,3.4668,3.4316,3.3867,3.3437,3.3418,3.3379,3.334,3.3359,3.3105,3.2637,3.2266,3.2116,3.1959,3.18,3.1523,3.1244,3.1049,3.062,3.0135,3.0305,3.0297,2.9957,3.0146,3.0173,3.0125,3.0034,2.9932,2.9782,2.9749,3.0133,3.0793,3.0789,3.1278,3.2165,3.1691,3.1575,3.2053,3.1869,3.1849,3.2025,3.2239,3.2432,3.2649,3.2314,3.2114,3.2072,3.2062,3.1943,3.168,3.1707,3.1915,3.2123,3.1498,3.1235,3.1667,3.1287,3.1011,3.1112,3.1447,3.1669,3.1669,3.2,3.2182,3.2101,3.2055,3.1709,3.1171,3.0881,3.087,3.0821,3.0839,3.0706,3.0371,3.0291,3.0235,3.0201,3.0328,3.054,3.063,3.0602,3.0747,3.0383,3.0264,3.0056,2.9834,2.9624,2.9564,2.9744,2.9651,2.9475,2.9412,2.9026,2.8757,2.8966,2.8757,2.8906,2.9026,2.9774,2.9891,2.9589,2.988,3.0383,2.9796,2.9407,2.9134,2.9081,2.8898,2.8914,2.9452,2.9755,3.0123,3.0814,3.0529,3.0084,3.5351,3.4687,3.4512,3.4043,3.3457,3.3418,3.3418,3.3418,3.3418,3.332,3.3164,3.2988,3.2647,3.2215,3.186,3.1682,3.1576,3.1228,3.0897,3.0605,3.0721,3.0543,3.0187,3.0569,3.0504,3.0052,3.0278,3.0318,3.015,3.0294,3.0683,3.1273,3.1227,3.1667,3.2414,3.217,3.1972,3.1874,3.2243,3.2141,3.1701,3.1981,3.2332,3.2655,3.2561,3.2456,3.2365,3.2345,3.2215,3.1924,3.1909,3.2068,3.238,3.2019,3.198,3.228,3.1925,3.1502,3.1224,3.1447,3.1755,3.2049,3.2041,3.2135,3.2432,3.2336,3.2046,3.1795,3.1585,3.1561,3.1811,3.163,3.1386,3.1292,3.1008,3.0716,3.0685,3.0526,3.0447,3.0507,3.0866,3.1072,3.1008,3.1006,3.0915,3.0673,3.0432,3.0253,3.0582,3.0402,3.0133,3.0073,2.9864,2.9564,2.9265,2.8816,2.8966,2.9564,3.0133,3.0193,3.0432,3.0306,3.0569,3.0328,2.9944,2.9703,2.9776,2.97,2.9704,3.0134,3.0417,3.0735,3.1085,3.0654,3.0236,3.5586,3.4902,3.4648,3.4101,3.3437,3.3418,3.3418,3.3418,3.3418,3.3418,3.3418,3.3418,3.3082,3.2555,3.2157,3.1919,3.179,3.1344,3.1054,3.0957,3.0898,3.0723,3.0468,3.088,3.0782,3.0328,3.0512,3.0535,3.035,3.0568,3.0931,3.127,3.1476,3.186,3.2297,3.243,3.236,3.2113,3.2629,3.2531,3.1886,3.2006,3.2259,3.2487,3.2636,3.2653,3.2575,3.2676,3.2625,3.2301,3.2327,3.2489,3.2765,3.2602,3.254,3.2672,3.2424,3.2119,3.1736,3.1887,3.2122,3.2478,3.2305,3.2293,3.2535,3.2397,3.2255,3.2326,3.214,3.2187,3.2512,3.2245,3.2065,3.2224,3.1636,3.1311,3.1314,3.101,3.0933,3.0937,3.1183,3.122,3.1249,3.1365,3.1421,3.1361,3.1062,3.0883,3.1331,3.1062,3.0791,3.0733,3.0642,3.0283,2.9864,2.9325,2.9505,3.0043,3.0492,3.0644,3.1182,3.0908,3.0934,3.0846,3.047,3.0216,3.0232,3.0281,3.04,3.0789,3.1145,3.145,3.1777,3.1155,3.0829,3.5762,3.5254,3.4453,3.3848,3.3418,3.3418,3.3418,3.3418,3.3418,3.3418,3.3418,3.3418,3.324,3.3035,3.2935,3.2533,3.1868,3.1672,3.1402,3.0957,3.0898,3.0879,3.0898,3.106,3.1083,3.0902,3.0806,3.0532,3.0109,3.0329,3.0443,3.0495,3.1219,3.1761,3.2056,3.237,3.2609,3.2763,3.2889,3.2887,3.2768,3.257,3.2385,3.2167,3.2463,3.2698,3.2735,3.3079,3.325,3.3079,3.3053,3.3251,3.3553,3.3057,3.2777,3.2725,3.2712,3.266,3.2607,3.2751,3.2882,3.296,3.2753,3.2686,3.2793,3.256,3.2418,3.2436,3.2472,3.249,3.2664,3.2597,3.2454,3.2327,3.2123,3.1972,3.1972,3.2019,3.2237,3.2188,3.1847,3.1596,3.1279,3.1336,3.1541,3.157,3.1481,3.1451,3.1451,3.1421,3.1391,3.1271,3.0943,3.0492,3.0402,2.9953,2.9894,3.0313,3.0582,3.0584,3.0763,3.0971,3.124,3.133,3.0964,3.0687,3.0621,3.0664,3.0807,3.1261,3.2035,3.2387,3.2394,3.2352,3.1849,3.5605,3.4902,3.4316,3.3828,3.3437,3.3418,3.3418,3.3418,3.3418,3.3418,3.3418,3.3418,3.3355,3.3213,3.3176,3.2612,3.1828,3.1402,3.1112,3.0898,3.0898,3.0898,3.0937,3.1108,3.1157,3.114,3.1248,3.099,3.0512,3.0535,3.0632,3.0724,3.1116,3.1629,3.2196,3.2587,3.2807,3.2924,3.3212,3.3265,3.2982,3.3124,3.2953,3.2385,3.244,3.255,3.268,3.3025,3.3154,3.3136,3.3123,3.331,3.3649,3.3757,3.3613,3.33,3.3273,3.3091,3.279,3.2778,3.2975,3.3329,3.321,3.3257,3.3536,3.3446,3.3295,3.3288,3.311,3.3101,3.3266,3.3108,3.2952,3.3191,3.2859,3.2568,3.2548,3.2515,3.2449,3.2483,3.2438,3.2485,3.2435,3.2229,3.202,3.2049,3.178,3.157,3.1511,3.1511,3.157,3.1481,3.1301,3.1122,3.1152,3.0612,3.0313,3.0552,3.0761,3.1032,3.1241,3.1241,3.1451,3.1451,3.1207,3.1054,3.0927,3.0915,3.1094,3.1685,3.2461,3.2683,3.2908,3.25,3.1874,3.5508,3.4726,3.4394,3.3926,3.3437,3.3418,3.3418,3.3418,3.3418,3.3418,3.3418,3.3418,3.3371,3.3287,3.3092,3.2655,3.1991,3.1404,3.1112,3.0995,3.0957,3.0937,3.1054,3.1325,3.1454,3.1515,3.1636,3.1464,3.0967,3.076,3.0724,3.08,3.115,3.1578,3.2117,3.2718,3.3036,3.3125,3.3555,3.3639,3.3387,3.3625,3.3552,3.3044,3.2852,3.272,3.2618,3.2939,3.3136,3.3111,3.3154,3.3411,3.381,3.4147,3.4158,3.3901,3.3766,3.3651,3.3326,3.3247,3.343,3.377,3.3647,3.3728,3.4153,3.3948,3.3846,3.3799,3.3516,3.3385,3.3505,3.3171,3.3122,3.3652,3.3414,3.3191,3.3264,3.312,3.3028,3.2987,3.3152,3.3319,3.336,3.2943,3.2735,3.2796,3.2407,3.2108,3.1869,3.2019,3.1899,3.163,3.175,3.163,3.1511,3.1032,3.0821,3.1031,3.1031,3.1361,3.1511,3.1511,3.1511,3.1511,3.142,3.1326,3.1259,3.122,3.1539,3.2071,3.2327,3.2578,3.2524,3.2337,3.1929,3.5508,3.4746,3.4687,3.418,3.3476,3.3418,3.3418,3.3418,3.3418,3.3418,3.3418,3.3418,3.3391,3.3243,3.3001,3.267,3.2374,3.1953,3.1558,3.1286,3.0995,3.1054,3.1208,3.1556,3.1903,3.2166,3.2081,3.1836,3.1381,3.1029,3.0835,3.0808,3.127,3.1592,3.1629,3.2667,3.322,3.3373,3.3767,3.404,3.4091,3.4006,3.3959,3.3909,3.3685,3.3256,3.2523,3.2884,3.3169,3.3187,3.3283,3.3624,3.392,3.4063,3.4147,3.4262,3.4163,3.4163,3.4277,3.4267,3.4214,3.4282,3.4079,3.4032,3.4233,3.4031,3.3904,3.4005,3.3604,3.3254,3.332,3.2837,3.281,3.3675,3.3589,3.363,3.3871,3.4065,3.4004,3.3751,3.3833,3.3822,3.3505,3.3421,3.3423,3.3454,3.3335,3.3066,3.2617,3.2886,3.2766,3.2049,3.1929,3.2049,3.178,3.1481,3.1451,3.1451,3.1391,3.1511,3.1511,3.1511,3.1511,3.1481,3.1241,3.1147,3.1386,3.1377,3.1576,3.1987,3.2213,3.2496,3.2524,3.252,3.2348,3.5508,3.4726,3.4687,3.4199,3.3457,3.3418,3.3418,3.3418,3.3418,3.3418,3.3418,3.3418,3.3403,3.3352,3.3178,3.3067,3.2933,3.2256,3.168,3.1326,3.0995,3.0937,3.1112,3.1344,3.173,3.2227,3.2411,3.2215,3.1878,3.1671,3.134,3.0921,3.1275,3.1521,3.1673,3.2342,3.2969,3.3542,3.3717,3.3965,3.4237,3.429,3.4174,3.4006,3.4121,3.3871,3.3259,3.3316,3.3471,3.3621,3.3356,3.3326,3.3556,3.3725,3.3937,3.4147,3.4173,3.4189,3.4356,3.4397,3.4397,3.4413,3.4421,3.4641,3.4819,3.4835,3.4901,3.4952,3.4272,3.3751,3.3711,3.2955,3.2687,3.2988,3.3262,3.3501,3.3779,3.4094,3.4341,3.4368,3.4438,3.4486,3.451,3.4341,3.4079,3.4113,3.3844,3.3455,3.3305,3.3425,3.3185,3.2407,3.2467,3.2467,3.2079,3.1899,3.1899,3.178,3.169,3.1511,3.1511,3.1511,3.1511,3.1421,3.1152,3.115,3.1417,3.1533,3.1645,3.1931,3.2188,3.2496,3.2792,3.2765,3.2562,3.5508,3.4726,3.4687,3.4199,3.3457,3.3418,3.3418,3.3418,3.3418,3.3418,3.3418,3.3418,3.3418,3.3359,3.3395,3.3302,3.3228,3.2413,3.188,3.1524,3.1093,3.1015,3.1228,3.1692,3.196,3.2383,3.2612,3.2525,3.2235,3.205,3.1698,3.1366,3.1486,3.1835,3.2162,3.2469,3.3037,3.3677,3.3834,3.3965,3.4261,3.4433,3.4461,3.4342,3.4486,3.4412,3.4214,3.398,3.3806,3.372,3.337,3.3283,3.3411,3.3513,3.3683,3.3894,3.3979,3.4063,3.4272,3.4356,3.4397,3.4439,3.4522,3.4797,3.5044,3.5249,3.5386,3.5494,3.4585,3.3946,3.3935,3.3046,3.2463,3.2489,3.2945,3.3326,3.3675,3.4122,3.4467,3.4639,3.4739,3.4964,3.5077,3.5029,3.4703,3.4771,3.4502,3.4053,3.4023,3.4113,3.3664,3.3335,3.3305,3.3036,3.2467,3.2347,3.2317,3.2108,3.1899,3.166,3.1511,3.1511,3.1511,3.1451,3.1271,3.1271,3.148,3.133,3.1384,3.176,3.2191,3.2413,3.2656,3.2801,3.2688,3.5527,3.4766,3.4707,3.4238,3.3516,3.3437,3.3418,3.3418,3.3418,3.3418,3.3418,3.3418,3.3418,3.3418,3.3359,3.3371,3.3184,3.2507,3.2155,3.186,3.1368,3.1228,3.1787,3.2268,3.2498,3.2669,3.2669,3.2649,3.2566,3.2256,3.2008,3.1913,3.1996,3.2317,3.2827,3.2981,3.3265,3.3871,3.405,3.4064,3.4162,3.4531,3.4775,3.4775,3.4751,3.4824,3.492,3.453,3.4056,3.3598,3.3388,3.33,3.3368,3.3386,3.3471,3.3683,3.3658,3.3852,3.4063,3.4272,3.4356,3.4397,3.4439,3.4605,3.5003,3.5127,3.5263,3.5534,3.4666,3.4016,3.3892,3.3061,3.2418,3.2264,3.2731,3.3262,3.3813,3.4191,3.4467,3.4769,3.4902,3.5034,3.5359,3.5365,3.5397,3.54,3.534,3.5011,3.4833,3.4711,3.4651,3.4382,3.3963,3.3574,3.3036,3.2886,3.2886,3.2736,3.2467,3.2138,3.172,3.16,3.1511,3.1451,3.1511,3.1511,3.148,3.1389,3.153,3.1962,3.2219,3.233,3.2516,3.2775,3.2903,3.5703,3.5195,3.4844,3.4394,3.3887,3.3574,3.3418,3.3418,3.3418,3.3418,3.3418,3.3418,3.3418,3.3418,3.3418,3.3403,3.3211,3.2561,3.2311,3.2296,3.1603,3.1576,3.2076,3.2305,3.2555,3.2669,3.2669,3.2669,3.2669,3.2525,3.2297,3.2043,3.2361,3.276,3.3081,3.3086,3.343,3.3912,3.4073,3.4064,3.4162,3.4531,3.4775,3.4775,3.4775,3.4823,3.4872,3.4605,3.4108,3.3573,3.3283,3.3154,3.3197,3.3197,3.3283,3.3428,3.3471,3.3683,3.3979,3.4173,3.423,3.4397,3.4397,3.4522,3.4839,3.5044,3.5208,3.5359,3.4885,3.4531,3.4368,3.3539,3.2826,3.2463,3.2814,3.3283,3.3779,3.4088,3.4332,3.4698,3.4835,3.5001,3.5228,3.5424,3.5489,3.5489,3.5489,3.5459,3.525,3.519,3.51,3.4651,3.4262,3.3963,3.3664,3.3514,3.3425,3.3335,3.3155,3.2856,3.2318,3.1839,3.166,3.1481,3.166,3.169,3.1686,3.1652,3.1938,3.2135,3.2302,3.2382,3.2742,3.3033,3.3087,3.5781,3.5371,3.5098,3.4629,3.4082,3.3789,3.3594,3.3437,3.3418,3.3418,3.3418,3.3418,3.3418,3.3418,3.3418,3.3481,3.3509,3.2796,3.2588,3.2655,3.2073,3.2001,3.2248,3.2363,3.2555,3.2669,3.2669,3.2669,3.2669,3.2669,3.2582,3.2348,3.2385,3.2788,3.3497,3.2914,3.3218,3.3914,3.4036,3.3965,3.4136,3.4457,3.4677,3.4775,3.4775,3.4775,3.4751,3.4557,3.4206,3.383,3.3501,3.3233,3.3093,3.3136,3.3154,3.3283,3.3368,3.3556,3.3852,3.4047,3.4189,3.4356,3.4397,3.4548,3.4756,3.4921,3.5086,3.5291,3.4928,3.4777,3.4639,3.3973,3.3424,3.3283,3.344,3.3681,3.3823,3.4025,3.4332,3.4631,3.4802,3.4968,3.5195,3.5359,3.5457,3.5489,3.5489,3.5489,3.5459,3.5489,3.54,3.5011,3.4831,3.4651,3.4532,3.4412,3.4322,3.4203,3.3754,3.3514,3.2916,3.2258,3.1929,3.178,3.1869,3.1898,3.1894,3.1917,3.1968,3.2137,3.2302,3.2492,3.2823,3.3043,3.315,3.5801,3.5449,3.541,3.4902,3.4199,3.4082,3.3872,3.354,3.3481,3.3481,3.3544,3.3544,3.3607,3.3481,3.3607,3.367,3.3902,3.324,3.3011,3.2914,3.2621,3.2465,3.2363,3.2555,3.2669,3.2669,3.2669,3.2669,3.2669,3.2669,3.2669,3.2556,3.2211,3.2683,3.3461,3.2849,3.3072,3.4041,3.4042,3.4027,3.4205,3.443,3.458,3.4775,3.4775,3.4775,3.4727,3.4582,3.4403,3.4371,3.3821,3.3427,3.3244,3.3212,3.3111,3.3111,3.3283,3.3428,3.3641,3.3894,3.4105,3.4272,3.4356,3.4481,3.4673,3.4797,3.4962,3.5263,3.4862,3.4806,3.4681,3.426,3.4011,3.4011,3.4293,3.426,3.3974,3.4134,3.4516,3.4689,3.4857,3.4968,3.5166,3.5359,3.5457,3.5489,3.5489,3.5489,3.5489,3.5489,3.5489,3.54,3.534,3.54,3.537,3.537,3.528,3.513,3.4503,3.4054,3.3425,3.2826,3.2407,3.2228,3.2258,3.2227,3.2073,3.2096,3.209,3.2137,3.2272,3.2523,3.2773,3.2935,3.3074,3.5957,3.5859,3.5527,3.5078,3.4551,3.4219,3.402,3.3816,3.3796,3.3922,3.411,3.4173,3.4173,3.4173,3.411,3.4235,3.4238,3.3755,3.3417,3.2967,3.3156,3.2901,3.2695,3.2669,3.2669,3.2669,3.2669,3.2669,3.2669,3.2669,3.2669,3.2623,3.249,3.2783,3.3484,3.3355,3.359,3.4373,3.4326,3.4326,3.451,3.4475,3.4531,3.4775,3.4775,3.4775,3.4775,3.4727,3.4702,3.4492,3.4004,3.3657,3.3652,3.3345,3.3144,3.3162,3.3179,3.3283,3.3428,3.3683,3.3894,3.4147,3.4314,3.4439,3.4481,3.4673,3.488,3.5141,3.5156,3.5023,3.4871,3.4694,3.4489,3.4333,3.4541,3.4742,3.4612,3.4661,3.4899,3.5004,3.4918,3.4865,3.5192,3.5288,3.5386,3.5487,3.5519,3.5519,3.5519,3.5549,3.5489,3.5489,3.5489,3.5489,3.5489,3.5489,3.5489,3.5489,3.5011,3.4683,3.4053,3.3634,3.3275,3.2946,3.2706,3.2616,3.2584,3.2278,3.2272,3.2318,3.2364,3.265,3.2877,3.2952,3.3146,3.6191,3.5996,3.5781,3.543,3.5,3.4551,3.4314,3.4176,3.4001,3.411,3.436,3.436,3.436,3.436,3.4423,3.4485,3.4511,3.4167,3.3697,3.3305,3.3152,3.2934,3.2752,3.2669,3.2669,3.2669,3.2669,3.2669,3.2669,3.2669,3.2669,3.2628,3.244,3.2742,3.3423,3.3465,3.3763,3.4378,3.4377,3.4411,3.4672,3.4471,3.4433,3.4726,3.4775,3.4775,3.4775,3.4775,3.4921,3.4913,3.453,3.4164,3.4134,3.3771,3.3495,3.3445,3.3212,3.3222,3.3386,3.3598,3.381,3.4063,3.4272,3.4356,3.4397,3.4522,3.4797,3.5044,3.5182,3.5211,3.5196,3.5209,3.4992,3.4935,3.5112,3.5449,3.5464,3.5347,3.5146,3.5129,3.4998,3.5122,3.5238,3.5414,3.5878,3.622,3.6088,3.6058,3.5878,3.5848,3.5549,3.5489,3.5489,3.5489,3.5489,3.5489,3.5489,3.5459,3.531,3.513,3.4891,3.4532,3.4233,3.3814,3.3365,3.3366,3.3307,3.2912,3.2664,3.2745,3.2826,3.2906,3.2983,3.306,3.3318,3.6367,3.6035,3.6035,3.5742,3.5273,3.4909,3.4699,3.4501,3.4226,3.436,3.4548,3.4548,3.4673,3.461,3.461,3.4715,3.4677,3.447,3.3976,3.3466,3.3128,3.2913,3.2711,3.2669,3.2669,3.2669,3.2669,3.2669,3.2669,3.2669,3.2669,3.2644,3.2327,3.2706,3.3317,3.3508,3.3864,3.4639,3.4478,3.4495,3.4762,3.449,3.4382,3.4726,3.4775,3.4775,3.4775,3.4823,3.5042,3.5548,3.5178,3.4991,3.484,3.4374,3.3947,3.3897,3.347,3.3305,3.3351,3.3513,3.3725,3.4047,3.423,3.4356,3.4397,3.4439,3.4673,3.4962,3.5182,3.5386,3.5629,3.5628,3.5655,3.5669,3.5924,3.6246,3.633,3.6089,3.5784,3.5346,3.5257,3.5241,3.5536,3.5835,3.6419,3.6887,3.673,3.6537,3.6357,3.6118,3.5818,3.5519,3.5489,3.5489,3.5489,3.5489,3.5489,3.5489,3.5429,3.5429,3.54,3.516,3.4771,3.4382,3.4084,3.4026,3.3848,3.3517,3.3335,3.3297,3.332,3.3405,3.3362,3.3197,3.3547,3.6074,3.6035,3.6035,3.5566,3.4949,3.5054,3.4839,3.4541,3.4671,3.4922,3.517,3.5232,3.517,3.517,3.5232,3.5108,3.484,3.461,3.4176,3.3561,3.3244,3.3037,3.2711,3.2669,3.2669,3.2669,3.2669,3.2669,3.2669,3.2669,3.2669,3.2644,3.2482,3.284,3.3492,3.3955,3.4371,3.5029,3.4888,3.5005,3.5086,3.4657,3.4359,3.4775,3.4775,3.4775,3.4775,3.4823,3.5017,3.5524,3.5474,3.5709,3.5715,3.5056,3.45,3.4073,3.3796,3.3564,3.3348,3.3368,3.3556,3.3768,3.4021,3.423,3.4356,3.4397,3.4647,3.5044,3.5345,3.5588,3.5669,3.571,3.571,3.5817,3.6018,3.6338,3.6559,3.6581,3.6571,3.6237,3.5769,3.5443,3.5857,3.6213,3.6634,3.7074,3.7218,3.6914,3.6626,3.6387,3.6088,3.5789,3.5489,3.5489,3.5489,3.5489,3.5489,3.5489,3.5459,3.5459,3.5459,3.5489,3.522,3.4861,3.4592,3.4474,3.4266,3.4058,3.3849,3.3665,3.3783,3.3931,3.395,3.3937,3.405,3.6406,3.6035,3.6035,3.5712,3.5343,3.5179,3.5176,3.5037,3.4961,3.5108,3.5294,3.5418,3.5418,3.5418,3.5418,3.5273,3.5045,3.4548,3.4155,3.3699,3.3285,3.2954,3.269,3.2669,3.2669,3.2669,3.2669,3.2669,3.2669,3.2669,3.2669,3.2685,3.2648,3.2972,3.3586,3.4128,3.4737,3.5254,3.5405,3.5457,3.5568,3.4804,3.4675,3.4726,3.4775,3.4775,3.4775,3.4775,3.4969,3.5332,3.5524,3.5812,3.5924,3.5834,3.5303,3.4776,3.4223,3.3822,3.3514,3.3485,3.3471,3.3658,3.3937,3.4147,3.4314,3.4439,3.4605,3.5018,3.5331,3.5588,3.5669,3.571,3.571,3.571,3.5938,3.6218,3.6457,3.6654,3.681,3.6826,3.6168,3.5892,3.6324,3.6606,3.6869,3.7199,3.7576,3.7372,3.7011,3.6742,3.6503,3.5875,3.5547,3.5489,3.5489,3.5489,3.5489,3.5489,3.5489,3.5489,3.5489,3.5489,3.5489,3.534,3.513,3.4923,3.4983,3.4866,3.4483,3.4122,3.4394,3.4605,3.4659,3.474,3.4825,3.6641,3.6035,3.6035,3.5925,3.5699,3.5454,3.5365,3.5389,3.5147,3.517,3.5356,3.5418,3.5418,3.5418,3.5397,3.5314,3.5128,3.4341,3.3989,3.3575,3.3078,3.269,3.2669,3.2669,3.2669,3.2669,3.2669,3.2669,3.2669,3.2669,3.2669,3.2727,3.2727,3.3182,3.3818,3.428,3.4902,3.5463,3.5741,3.5765,3.5482,3.5175,3.4871,3.4799,3.4775,3.4775,3.4775,3.4775,3.492,3.5235,3.5476,3.5716,3.5955,3.6216,3.6157,3.5629,3.4675,3.4148,3.3815,3.35,3.3454,3.3683,3.3894,3.4105,3.4356,3.4481,3.4647,3.5044,3.529,3.5534,3.5669,3.571,3.571,3.571,3.5777,3.5938,3.6338,3.6615,3.6889,3.6721,3.6202,3.6331,3.6773,3.6851,3.7063,3.7732,3.8119,3.802,3.766,3.7302,3.6884,3.6081,3.5603,3.5549,3.5489,3.5489,3.5489,3.5489,3.5489,3.5489,3.5489,3.5489,3.5489,3.5489,3.5527,3.5347,3.5524,3.5527,3.515,3.4972,3.5155,3.5309,3.5302,3.548,3.5661,3.6113,3.6035,3.6035,3.5748,3.5369,3.5576,3.5376,3.5064,3.5252,3.5356,3.5418,3.5418,3.5418,3.5418,3.5418,3.4983,3.4465,3.4214,3.3762,3.3244,3.2892,3.2669,3.2669,3.2669,3.2669,3.2669,3.2669,3.2669,3.2669,3.2669,3.2669,3.2727,3.3012,3.3523,3.4099,3.4457,3.5069,3.5859,3.5772,3.5503,3.5375,3.5394,3.5207,3.4895,3.4775,3.4775,3.4775,3.4823,3.492,3.5187,3.5476,3.5716,3.5955,3.6288,3.6358,3.5981,3.5303,3.4424,3.3972,3.3507,3.3326,3.3598,3.3725,3.3979,3.4272,3.459,3.4797,3.5044,3.529,3.5426,3.5588,3.5696,3.571,3.575,3.5858,3.6138,3.6496,3.6496,3.6772,3.6933,3.6542,3.6836,3.7215,3.7221,3.7308,3.801,3.8539,3.8388,3.8156,3.7645,3.7258,3.6458,3.6075,3.5959,3.5872,3.5845,3.5729,3.5639,3.5519,3.5519,3.5489,3.5489,3.5489,3.5522,3.5589,3.5653,3.5589,3.5597,3.5641,3.5675,3.5706,3.5799,3.5943,3.6157,3.6374,3.6035,3.6016,3.62,3.5957,3.5531,3.5881,3.5695,3.5314,3.5356,3.5418,3.5418,3.5418,3.5418,3.5418,3.5418,3.5231,3.4776,3.436,3.3906,3.3327,3.2996,3.2669,3.2669,3.2669,3.2669,3.2669,3.2669,3.2669,3.2669,3.2669,3.2669,3.2727,3.3012,3.3409,3.4121,3.4513,3.5091,3.5649,3.5879,3.5963,3.5839,3.5661,3.5376,3.4871,3.4799,3.4799,3.4775,3.4823,3.4823,3.5017,3.5332,3.562,3.586,3.6121,3.6405,3.6329,3.5655,3.4951,3.4399,3.3596,3.3434,3.3454,3.3556,3.3725,3.4147,3.4439,3.4714,3.4921,3.5127,3.5304,3.5507,3.5629,3.5669,3.575,3.5817,3.6058,3.6338,3.6457,3.6615,3.6749,3.6965,3.7137,3.7252,3.7243,3.7325,3.7904,3.8376,3.8413,3.8062,3.7575,3.7248,3.6891,3.6658,3.6573,3.6458,3.6406,3.6237,3.6058,3.5609,3.5579,3.5519,3.5489,3.5489,3.5619,3.5782,3.5782,3.5653,3.5785,3.5918,3.6043,3.6137,3.626,3.6438,3.6651,3.6867,3.6035,3.6016,3.6268,3.615,3.5912,3.6071,3.5968,3.5583,3.5459,3.5418,3.5418,3.5418,3.5418,3.5418,3.5418,3.5314,3.5148,3.4424,3.4051,3.3658,3.3182,3.2731,3.2669,3.2669,3.2669,3.2669,3.2669,3.2669,3.2669,3.2669,3.2669,3.2669,3.2898,3.3353,3.3805,3.4367,3.498,3.5763,3.6333,3.6502,3.6446,3.6216,3.5713,3.5256,3.4967,3.4919,3.4799,3.4775,3.4823,3.492,3.5235,3.5524,3.5668,3.6051,3.631,3.6257,3.5755,3.5307,3.4756,3.4173,3.36,3.3444,3.3581,3.3836,3.4047,3.4272,3.4522,3.4797,3.4921,3.5127,3.5304,3.5507,3.5548,3.5629,3.5669,3.5858,3.6046,3.6286,3.6524,3.6744,3.6883,3.6961,3.707,3.712,3.7347,3.7823,3.8086,3.8311,3.8089,3.7706,3.7469,3.7262,3.7139,3.702,3.6896,3.6816,3.6679,3.6507,3.6058,3.5699,3.5639,3.5549,3.5489,3.5683,3.5938,3.591,3.5782,3.6005,3.6195,3.629,3.6415,3.6692,3.6906,3.715,3.7301,3.6035,3.6035,3.6016,3.6127,3.6294,3.5912,3.5855,3.5976,3.5583,3.5418,3.5418,3.5418,3.5418,3.5418,3.5397,3.5231,3.4838,3.43,3.3948,3.3492,3.2996,3.2752,3.269,3.2669,3.2669,3.2669,3.2669,3.2669,3.2669,3.2669,3.2669,3.2727,3.2841,3.3353,3.3805,3.4255,3.5124,3.595,3.668,3.685,3.6863,3.6737,3.6408,3.5713,3.5497,3.5352,3.4823,3.4775,3.4775,3.4823,3.5187,3.5428,3.562,3.5955,3.6241,3.6257,3.5956,3.5558,3.5157,3.4726,3.4205,3.3809,3.3811,3.4194,3.4357,3.4402,3.4575,3.4846,3.4982,3.4974,3.5153,3.529,3.5547,3.5656,3.5818,3.5981,3.6089,3.6166,3.6405,3.6642,3.6811,3.6929,3.7017,3.7062,3.7234,3.7682,3.8089,3.8281,3.8451,3.8161,3.802,3.7789,3.7585,3.7411,3.7248,3.7198,3.728,3.7045,3.6656,3.6178,3.5848,3.5759,3.5938,3.5857,3.611,3.5995,3.6064,3.6528,3.6779,3.663,3.6693,3.6939,3.7247,3.7523,3.7675,3.5644,3.5644,3.5625,3.5929,3.6374,3.6127,3.6088,3.6017,3.5625,3.5418,3.5418,3.5418,3.5418,3.5418,3.5418,3.5355,3.5107,3.4693,3.4217,3.3782,3.3389,3.3016,3.2851,3.2669,3.2669,3.2669,3.2669,3.2669,3.2669,3.2669,3.2669,3.2727,3.2862,3.3126,3.3579,3.4311,3.5345,3.6145,3.6719,3.6831,3.6877,3.6816,3.6494,3.5737,3.5617,3.5352,3.4919,3.4775,3.4775,3.4872,3.5235,3.5428,3.562,3.5955,3.6241,3.6358,3.6081,3.5881,3.5483,3.5031,3.4544,3.4502,3.4627,3.4881,3.4822,3.5202,3.5208,3.5299,3.52,3.5273,3.5001,3.5405,3.5811,3.5936,3.606,3.621,3.6253,3.6265,3.6313,3.6552,3.6721,3.6811,3.6968,3.7028,3.726,3.7481,3.7901,3.8248,3.8421,3.8554,3.8318,3.8309,3.8169,3.8216,3.808,3.7977,3.7943,3.7584,3.7255,3.6836,3.6477,3.6716,3.6806,3.6573,3.6397,3.6592,3.6849,3.7264,3.7241,3.6845,3.6847,3.7094,3.7433,3.799,3.8177,3.5312,3.5215,3.5446,3.5904,3.6354,3.6192,3.6088,3.6017,3.5625,3.5418,3.5418,3.5418,3.5418,3.5418,3.5418,3.5418,3.5211,3.4797,3.4463,3.3906,3.343,3.3058,3.2773,3.2669,3.2669,3.2669,3.269,3.2711,3.2954,3.2809,3.2851,3.2929,3.296,3.309,3.3466,3.4367,3.5478,3.6091,3.6503,3.6734,3.6861,3.6867,3.6768,3.6189,3.6194,3.593,3.5497,3.528,3.5112,3.5089,3.5211,3.538,3.5668,3.5883,3.6168,3.631,3.638,3.6157,3.5755,3.5127,3.4851,3.4896,3.5035,3.5258,3.5487,3.5797,3.5652,3.56,3.565,3.5621,3.5215,3.5764,3.6162,3.6358,3.658,3.668,3.6565,3.6525,3.6426,3.6432,3.6642,3.6917,3.6929,3.7046,3.7201,3.7394,3.7634,3.8014,3.8285,3.8413,3.8561,3.862,3.8779,3.8875,3.9,3.8788,3.8542,3.8093,3.7793,3.7554,3.7375,3.7554,3.7434,3.7015,3.6963,3.7244,3.7412,3.7582,3.7292,3.6904,3.7125,3.7499,3.8246,3.8777,3.8903,3.5098,3.4851,3.5554,3.6064,3.6248,3.5932,3.5895,3.6016,3.5583,3.5418,3.5418,3.5418,3.5418,3.5418,3.5418,3.5418,3.5252,3.461,3.4214,3.3927,3.3348,3.2892,3.269,3.2669,3.2669,3.2727,3.283,3.3016,3.3285,3.2996,3.3037,3.3078,3.3048,3.3033,3.3296,3.4423,3.5124,3.5488,3.6036,3.6534,3.6888,3.6949,3.6943,3.6853,3.6892,3.6579,3.6122,3.5761,3.5569,3.5474,3.5234,3.5357,3.5572,3.5668,3.6003,3.6358,3.6405,3.638,3.6304,3.5303,3.5203,3.5429,3.5552,3.5506,3.5552,3.5767,3.6015,3.6061,3.6096,3.6114,3.6105,3.6288,3.6532,3.6801,3.7026,3.7214,3.7091,3.7098,3.7112,3.704,3.6972,3.7035,3.7035,3.7074,3.7152,3.7278,3.7471,3.7749,3.8052,3.8315,3.8464,3.8649,3.887,3.9053,3.9126,3.9301,3.914,3.8691,3.8392,3.8212,3.8003,3.7938,3.7759,3.7464,3.7648,3.7957,3.7846,3.7737,3.7801,3.7947,3.7807,3.8153,3.8968,3.9566,3.9692,3.4434,3.4381,3.5139,3.5514,3.5691,3.5961,3.6187,3.6134,3.5686,3.5418,3.5418,3.5418,3.5418,3.5418,3.5418,3.5418,3.5293,3.49,3.4505,3.3989,3.3368,3.3037,3.283,3.2669,3.2669,3.283,3.2975,3.3182,3.3348,3.3203,3.3223,3.3302,3.3147,3.3224,3.3636,3.4423,3.5091,3.5235,3.584,3.6417,3.658,3.6881,3.7068,3.6963,3.7148,3.6988,3.6504,3.6216,3.6026,3.5761,3.5474,3.5527,3.5647,3.5693,3.6003,3.631,3.6405,3.6405,3.638,3.6003,3.5931,3.6049,3.6042,3.6049,3.6289,3.6708,3.6729,3.6579,3.6609,3.6496,3.6245,3.6585,3.6893,3.7316,3.7616,3.7863,3.7952,3.8082,3.8103,3.7924,3.7879,3.773,3.7641,3.754,3.7563,3.736,3.7459,3.75,3.7777,3.8089,3.8277,3.8501,3.8686,3.8943,3.9126,3.9228,3.9301,3.9009,3.8985,3.905,3.8811,3.8476,3.8362,3.8182,3.8422,3.8631,3.8407,3.8336,3.896,3.918,3.8795,3.8933,3.9754,4.026,4.0482,3.3984,3.399,3.4927,3.5165,3.5165,3.5945,3.619,3.5949,3.5562,3.5418,3.5418,3.5418,3.5418,3.5418,3.5418,3.5418,3.5355,3.4755,3.4505,3.3989,3.341,3.3016,3.2789,3.2669,3.2669,3.2851,3.3161,3.343,3.3658,3.3637,3.3534,3.3422,3.3241,3.3338,3.3749,3.4367,3.4813,3.5035,3.5511,3.6059,3.6386,3.6665,3.6925,3.7033,3.7207,3.7272,3.6932,3.6645,3.6507,3.6221,3.5959,3.5916,3.577,3.5767,3.5885,3.6026,3.6216,3.6288,3.6332,3.638,3.6304,3.6329,3.6546,3.6615,3.6756,3.698,3.7083,3.7085,3.7163,3.7045,3.6881,3.722,3.7382,3.7764,3.7989,3.8283,3.8297,3.8406,3.8571,3.8491,3.8546,3.8417,3.8315,3.8187,3.8086,3.776,3.7433,3.7544,3.7557,3.7777,3.8052,3.8277,3.8464,3.8686,3.8907,3.9017,3.9156,3.9265,3.9301,3.9337,3.9313,3.8985,3.896,3.8871,3.896,3.896,3.8816,3.8933,3.9252,3.9436,3.94,3.9798,4.0601,4.089,4.105,3.3809,3.3638,3.4744,3.5034,3.4969,3.5816,3.5947,3.5459,3.5376,3.5418,3.5418,3.5418,3.5418,3.5418,3.5418,3.5418,3.5231,3.4507,3.4196,3.3824,3.3244,3.2913,3.269,3.2669,3.2731,3.2934,3.3244,3.382,3.4031,3.3948,3.3741,3.3427,3.3299,3.3359,3.3692,3.4121,3.4479,3.4758,3.5146,3.5621,3.6004,3.6472,3.6804,3.7032,3.7435,3.7647,3.7455,3.7316,3.7204,3.6795,3.629,3.6007,3.5769,3.5527,3.5502,3.562,3.5908,3.6146,3.6358,3.6405,3.6405,3.6405,3.6405,3.6546,3.6662,3.6922,3.7078,3.7284,3.7462,3.7678,3.7821,3.7815,3.7834,3.8088,3.8315,3.8399,3.8317,3.8467,3.8706,3.8809,3.9006,3.9017,3.8945,3.8846,3.8664,3.8283,3.7986,3.7913,3.7912,3.749,3.7806,3.8052,3.824,3.8427,3.8649,3.8833,3.9017,3.9192,3.9192,3.9228,3.9301,3.9403,3.9224,3.9164,3.9284,3.929,3.911,3.9073,3.9194,3.9417,3.9763,4.0295,4.0979,4.114,4.1365,3.3535,3.3516,3.4744,3.5034,3.4838,3.5556,3.573,3.5537,3.5459,3.5418,3.5418,3.5418,3.5418,3.5418,3.5418,3.5418,3.5086,3.459,3.4196,3.3741,3.3203,3.2814,3.2669,3.269,3.2913,3.3244,3.3617,3.409,3.4422,3.436,3.3865,3.3447,3.3304,3.3344,3.3544,3.3918,3.4199,3.459,3.498,3.5312,3.573,3.6332,3.6657,3.7012,3.7601,3.7838,3.7796,3.7777,3.7589,3.7132,3.6916,3.6633,3.594,3.5843,3.5868,3.5861,3.6003,3.6098,3.6335,3.6405,3.6405,3.6405,3.6405,3.6405,3.6546,3.676,3.6994,3.7201,3.7505,3.767,3.7808,3.79,3.7946,3.8057,3.8285,3.8352,3.8354,3.8698,3.8945,3.9461,3.9634,3.969,3.9592,3.9549,3.9311,3.8902,3.8564,3.8492,3.8206,3.7827,3.7709,3.8026,3.8089,3.8315,3.8501,3.8686,3.887,3.9083,3.9083,3.9119,3.9265,3.9373,3.9403,3.9403,3.9403,3.9403,3.9343,3.9277,3.9119,3.9847,4.0293,4.0798,4.1227,4.1358,4.1489,3.3418,3.3516,3.4438,3.4811,3.4975,3.5291,3.55,3.5534,3.5438,3.5418,3.5418,3.5418,3.5418,3.5418,3.5418,3.5418,3.5335,3.4755,3.43,3.3886,3.3306,3.2975,3.2752,3.2711,3.2996,3.3389,3.3844,3.4297,3.4629,3.4567,3.4173,3.3738,3.3434,3.3371,3.3416,3.3523,3.3896,3.4423,3.4924,3.5146,3.5621,3.6277,3.6712,3.6958,3.7601,3.7892,3.7892,3.7945,3.7781,3.7469,3.7397,3.7015,3.6348,3.6156,3.5915,3.5892,3.5863,3.6005,3.6193,3.6383,3.6358,3.643,3.643,3.6556,3.6603,3.6818,3.6857,3.6968,3.732,3.7577,3.7716,3.7808,3.7854,3.79,3.8103,3.8258,3.8594,3.8953,3.9486,4.0012,4.0247,4.0321,4.0294,4.021,3.9957,3.9479,3.9142,3.9015,3.8645,3.8212,3.8086,3.8206,3.8198,3.8231,3.8418,3.8501,3.8649,3.8797,3.8907,3.898,3.9228,3.9337,3.9403,3.9403,3.9403,3.9403,3.9373,3.908,3.9048,3.9777,4.0378,4.0532,4.0935,4.1392,4.1489,3.3418,3.3457,3.3906,3.4491,3.5091,3.5076,3.5278,3.5513,3.5397,3.5418,3.5418,3.5418,3.5418,3.5418,3.5418,3.5418,3.5293,3.4879,3.4546,3.4152,3.3534,3.3141,3.2913,3.2731,3.3078,3.3451,3.3945,3.4422,3.4774,3.4733,3.4463,3.4051,3.3613,3.3372,3.3281,3.3126,3.3523,3.4177,3.4813,3.5257,3.5817,3.6472,3.7089,3.7197,3.7572,3.7945,3.7785,3.7838,3.7974,3.7805,3.7589,3.7276,3.6871,3.6317,3.6033,3.594,3.5893,3.6011,3.6152,3.6316,3.6335,3.6383,3.6455,3.6684,3.688,3.6701,3.6666,3.6934,3.7313,3.7418,3.7551,3.7716,3.7762,3.7854,3.8011,3.8167,3.8395,3.8845,3.9469,3.998,4.03,4.0404,4.0575,4.0435,4.035,3.9957,3.9788,3.962,3.9309,3.8783,3.849,3.8421,3.8189,3.8138,3.8156,3.8306,3.8352,3.8501,3.8686,3.8907,3.9156,3.9265,3.9403,3.9403,3.9403,3.9403,3.9313,3.911,3.9163,3.9698,4.0109,4.0173,4.0575,4.1194,4.1489,3.3418,3.3457,3.3887,3.4205,3.4457,3.4892,3.4949,3.4709,3.5232,3.5418,3.5418,3.5418,3.5418,3.5418,3.5418,3.5418,3.5314,3.5066,3.4816,3.438,3.3803,3.3389,3.3141,3.2892,3.3182,3.3699,3.4194,3.4486,3.4941,3.494,3.4588,3.4132,3.3696,3.3397,3.3095,3.2939,3.3353,3.3918,3.4479,3.5069,3.5653,3.6309,3.685,3.7173,3.7601,3.7892,3.7838,3.7921,3.7974,3.7902,3.7878,3.7589,3.718,3.6555,3.6418,3.6474,3.6184,3.6211,3.6331,3.6374,3.6343,3.6561,3.6734,3.696,3.7008,3.6679,3.6672,3.7017,3.7231,3.7334,3.7413,3.7551,3.769,3.7854,3.7992,3.8057,3.8167,3.8756,3.938,3.9821,4.0241,4.0457,4.063,4.0688,4.0603,4.0547,4.0491,4.0393,4.0182,3.973,3.8936,3.87,3.8159,3.8045,3.8149,3.8234,3.8434,3.8543,3.8671,3.8892,3.9083,3.9265,3.9403,3.9403,3.9403,3.9403,3.9403,3.9343,3.9493,3.9809,4.003,4.0155,4.0498,4.1088,4.1323,3.3418,3.3457,3.3672,3.398,3.4279,3.4659,3.477,3.49,3.5232,3.5418,3.5418,3.5418,3.5418,3.5418,3.5418,3.5418,3.5376,3.519,3.4921,3.4629,3.4173,3.3637,3.3306,3.2996,3.3182,3.3658,3.4297,3.4754,3.5045,3.5128,3.4797,3.4134,3.372,3.3451,3.3037,3.3101,3.3167,3.3466,3.403,3.4758,3.5455,3.6254,3.6657,3.6958,3.7388,3.7708,3.7655,3.7708,3.7974,3.7921,3.7868,3.7825,3.7412,3.6904,3.6768,3.678,3.6668,3.6478,3.6628,3.6627,3.6548,3.6868,3.6985,3.7211,3.7939,3.7662,3.7109,3.7379,3.7394,3.7453,3.733,3.7413,3.7644,3.7854,3.7946,3.8011,3.8194,3.8575,3.9158,3.9662,4.0039,4.0371,4.0544,4.0716,4.0659,4.0659,4.0688,4.0688,4.0562,4.0435,3.9702,3.9203,3.8774,3.8706,3.8966,3.8852,3.8639,3.8693,3.8802,3.8915,3.9106,3.9258,3.9403,3.9373,3.9373,3.9403,3.9403,3.9403,3.9409,3.9589,3.9879,4.0165,4.0543,4.0882,4.1185,3.3418,3.3481,3.3501,3.3796,3.436,3.4485,3.4818,3.5232,3.5356,3.5418,3.5418,3.5418,3.5418,3.5418,3.5418,3.5418,3.5397,3.5335,3.5107,3.4838,3.4383,3.3969,3.3513,3.312,3.3265,3.3596,3.4214,3.4484,3.4652,3.4838,3.4776,3.4176,3.3969,3.3865,3.3389,3.3178,3.3147,3.3344,3.3869,3.4634,3.5478,3.6309,3.6549,3.6874,3.7227,3.7441,3.7281,3.7388,3.7868,3.7921,3.7838,3.7791,3.7695,3.7307,3.7292,3.7232,3.7,3.6935,3.6917,3.685,3.7072,3.732,3.7341,3.7715,3.8492,3.8492,3.7939,3.7686,3.7728,3.7489,3.7343,3.7392,3.765,3.786,3.7952,3.7998,3.8247,3.8448,3.8917,3.9469,3.9821,4.0154,4.0457,4.063,4.0716,4.0716,4.0716,4.0716,4.0659,4.0533,4.0126,3.9899,3.9656,3.9715,3.9682,3.9466,3.9083,3.9257,3.937,3.9156,3.9151,3.9483,3.9533,3.9337,3.9337,3.9433,3.9403,3.9403,3.9409,3.9505,3.9625,3.9945,4.0226,4.057,4.0976,3.3544,3.3796,3.3796,3.4047,3.4423,3.4673,3.4859,3.5046,3.5314,3.5418,3.5418,3.5418,3.5418,3.5418,3.5418,3.5418,3.5418,3.5418,3.5418,3.5231,3.4734,3.438,3.3986,3.3492,3.3348,3.3637,3.4069,3.4214,3.4463,3.4733,3.4465,3.3658,3.4463,3.4072,3.3141,3.3099,3.3584,3.3545,3.3648,3.4318,3.5058,3.5895,3.6766,3.7089,3.7251,3.7411,3.7435,3.7596,3.7785,3.7892,3.7921,3.7838,3.7737,3.7642,3.7652,3.756,3.7356,3.7315,3.7251,3.7089,3.7315,3.7717,3.7817,3.8241,3.8842,3.9245,3.8743,3.8366,3.8211,3.7667,3.7497,3.7577,3.7785,3.797,3.8109,3.8109,3.8247,3.845,3.8717,3.9159,3.955,3.9947,4.0328,4.0544,4.0645,4.0688,4.0716,4.0716,4.0716,4.0575,4.0435,4.0435,4.0365,4.0022,3.971,3.9797,3.9639,3.9778,3.9867,3.9718,3.9681,3.9809,3.9802,3.9691,3.9533,3.9546,3.9523,3.9695,3.9559,3.9589,3.9469,3.9589,3.9905,4.0314,4.082]}]]